[[{"header":{"parameterUnit":"m.s-1","parameterCategory":1,"la1":30.6,"la2":29.2853,"lo1":-89.7004,"lo2":-87.6739,"dy":0.0162,"dx":0.0183,"nx":112,"ny":82,"refTime":"2026-04-15T12:00:00:Z","depth":0,"parameterNumber":2,"parameterNumberName":"U-component_of_WINDS"},"data":[0.0,0.0,0.0,0.0,0.0,0.0,0.0,0.0,0.0,0.0,0.0,0.0,0.0,0.0,0.0,0.0,0.0,0.0,0.0,0.0,0.0,0.0,0.0,0.0,0.0,0.0,0.0,0.0,0.0,0.0,0.0,0.0,0.0,0.0,0.0,0.0,0.0,0.0,0.0,0.0,0.0,0.0,0.0,0.0,0.0,0.0,0.0,0.0,0.0,0.0,0.0,0.0,0.0,0.0,0.0,0.0,0.0,0.0,0.0,0.0,0.0,0.0,0.0,0.0,0.0,0.0,0.0,0.0,0.0,0.0,0.0,0.0,0.0,0.0,0.0,0.0,0.0,0.0,0.0,0.0,0.0,0.0,0.0,0.0,0.0,0.0,0.0,0.0,0.0,0.0,-1.8944,-2.0874,-2.3078,-2.4202,-2.3705,-2.4054,-2.2759,-1.9095,0.0,0.0,0.0,0.0,0.0,0.0,0.0,0.0,0.0,0.0,0.0,0.0,0.0,0.0,0.0,0.0,0.0,0.0,0.0,0.0,0.0,0.0,0.0,0.0,0.0,0.0,0.0,0.0,0.0,0.0,0.0,0.0,0.0,0.0,0.0,0.0,0.0,0.0,0.0,0.0,0.0,0.0,0.0,0.0,0.0,0.0,0.0,0.0,0.0,0.0,0.0,0.0,0.0,0.0,0.0,0.0,0.0,0.0,0.0,0.0,0.0,0.0,0.0,0.0,0.0,0.0,0.0,0.0,0.0,0.0,0.0,0.0,0.0,0.0,0.0,0.0,0.0,0.0,0.0,0.0,0.0,0.0,0.0,0.0,0.0,0.0,0.0,0.0,0.0,0.0,0.0,0.0,0.0,0.0,0.0,0.0,0.0,0.0,0.0,0.0,0.0,0.0,0.0,0.0,-1.8724,-2.2415,-2.3824,-2.4444,-2.4366,-2.3258,-2.172,-1.967,0.0,0.0,0.0,0.0,0.0,0.0,0.0,0.0,0.0,0.0,0.0,0.0,0.0,0.0,0.0,0.0,0.0,0.0,0.0,0.0,0.0,0.0,0.0,0.0,0.0,0.0,0.0,0.0,0.0,0.0,0.0,0.0,0.0,0.0,0.0,0.0,0.0,0.0,0.0,0.0,0.0,0.0,0.0,0.0,0.0,0.0,0.0,0.0,0.0,0.0,0.0,0.0,0.0,0.0,0.0,0.0,0.0,0.0,0.0,0.0,0.0,0.0,0.0,0.0,0.0,0.0,0.0,0.0,0.0,0.0,0.0,0.0,0.0,0.0,0.0,0.0,0.0,0.0,0.0,0.0,0.0,0.0,0.0,0.0,0.0,0.0,0.0,0.0,0.0,0.0,0.0,0.0,0.0,0.0,0.0,0.0,0.0,0.0,0.0,0.0,0.0,0.0,0.0,-1.8616,-2.0304,-2.3553,-2.4242,-2.45,-2.4607,-2.3462,-2.2095,-2.0614,-1.9271,0.0,0.0,0.0,0.0,0.0,0.0,0.0,0.0,0.0,0.0,0.0,0.0,0.0,0.0,0.0,0.0,0.0,0.0,0.0,0.0,0.0,0.0,0.0,0.0,0.0,0.0,0.0,0.0,0.0,0.0,0.0,0.0,0.0,0.0,0.0,0.0,0.0,0.0,0.0,0.0,0.0,0.0,0.0,0.0,0.0,0.0,0.0,0.0,0.0,0.0,0.0,0.0,0.0,0.0,0.0,0.0,0.0,0.0,0.0,0.0,0.0,0.0,0.0,0.0,0.0,0.0,0.0,0.0,0.0,0.0,0.0,0.0,0.0,0.0,0.0,0.0,0.0,0.0,0.0,0.0,0.0,0.0,0.0,0.0,0.0,0.0,0.0,0.0,0.0,0.0,0.0,0.0,0.0,0.0,0.0,0.0,0.0,0.0,0.0,0.0,0.0,0.0,-2.1157,-2.2417,-2.4547,-2.4734,-2.4778,-2.4909,-2.3726,-2.2428,-2.121,-1.8359,0.0,0.0,0.0,0.0,0.0,0.0,0.0,0.0,0.0,0.0,0.0,0.0,0.0,0.0,0.0,0.0,0.0,0.0,0.0,0.0,0.0,0.0,0.0,0.0,0.0,0.0,0.0,0.0,0.0,0.0,0.0,0.0,0.0,0.0,0.0,0.0,0.0,0.0,0.0,0.0,0.0,0.0,0.0,0.0,0.0,0.0,0.0,0.0,0.0,0.0,0.0,0.0,0.0,0.0,0.0,0.0,0.0,0.0,0.0,0.0,0.0,0.0,0.0,0.0,0.0,0.0,0.0,0.0,0.0,0.0,0.0,0.0,0.0,0.0,0.0,0.0,0.0,0.0,0.0,0.0,0.0,0.0,0.0,0.0,0.0,0.0,0.0,0.0,0.0,0.0,0.0,0.0,0.0,0.0,0.0,0.0,0.0,0.0,0.0,0.0,0.0,0.0,-2.2346,-2.4584,-2.5522,-2.5606,-2.5615,-2.5624,-2.3571,-2.188,-2.0976,-1.7238,0.0,0.0,0.0,0.0,0.0,0.0,0.0,0.0,0.0,0.0,0.0,0.0,0.0,0.0,0.0,0.0,0.0,0.0,0.0,0.0,0.0,0.0,0.0,0.0,0.0,0.0,0.0,0.0,0.0,0.0,0.0,0.0,0.0,0.0,0.0,0.0,0.0,0.0,0.0,0.0,0.0,0.0,0.0,0.0,0.0,0.0,0.0,0.0,0.0,0.0,0.0,0.0,0.0,0.0,0.0,0.0,0.0,0.0,0.0,0.0,0.0,0.0,0.0,0.0,0.0,0.0,0.0,0.0,0.0,0.0,0.0,0.0,0.0,0.0,0.0,0.0,0.0,0.0,0.0,0.0,0.0,0.0,0.0,0.0,0.0,0.0,0.0,0.0,0.0,0.0,0.0,0.0,0.0,0.0,0.0,0.0,0.0,0.0,0.0,0.0,0.0,0.0,-2.1874,-2.3646,-2.5494,-2.5708,-2.5708,-2.5708,-2.3473,-2.1764,-2.1006,0.0,0.0,0.0,0.0,0.0,0.0,0.0,0.0,0.0,0.0,0.0,0.0,0.0,0.0,0.0,0.0,0.0,0.0,0.0,0.0,0.0,0.0,0.0,0.0,0.0,0.0,0.0,0.0,0.0,0.0,0.0,0.0,0.0,0.0,0.0,0.0,0.0,0.0,0.0,0.0,0.0,0.0,0.0,0.0,0.0,0.0,0.0,0.0,0.0,0.0,0.0,0.0,0.0,0.0,0.0,0.0,0.0,0.0,0.0,0.0,0.0,0.0,0.0,0.0,0.0,0.0,0.0,0.0,0.0,0.0,0.0,0.0,0.0,0.0,0.0,0.0,0.0,0.0,0.0,0.0,0.0,0.0,0.0,0.0,0.0,0.0,0.0,0.0,0.0,0.0,0.0,0.0,0.0,0.0,0.0,0.0,0.0,0.0,0.0,0.0,0.0,0.0,-1.988,-2.2022,-2.3925,-2.5866,-2.607,-2.607,-2.607,-2.3564,-2.1704,-2.1006,0.0,0.0,0.0,0.0,0.0,0.0,0.0,0.0,0.0,0.0,0.0,0.0,0.0,0.0,0.0,0.0,0.0,0.0,0.0,0.0,0.0,0.0,0.0,0.0,0.0,0.0,0.0,0.0,0.0,0.0,0.0,0.0,0.0,0.0,0.0,0.0,0.0,0.0,0.0,0.0,0.0,0.0,0.0,0.0,0.0,0.0,0.0,0.0,0.0,0.0,0.0,0.0,0.0,0.0,0.0,0.0,0.0,0.0,0.0,0.0,0.0,0.0,0.0,0.0,0.0,0.0,0.0,0.0,0.0,0.0,0.0,0.0,0.0,0.0,0.0,0.0,0.0,0.0,0.0,0.0,0.0,0.0,0.0,0.0,0.0,0.0,0.0,0.0,0.0,0.0,0.0,0.0,0.0,0.0,0.0,0.0,0.0,0.0,0.0,0.0,0.0,0.0,-1.9311,-2.3172,-2.6005,-2.6814,-2.6888,-2.6888,-2.6907,-2.3879,-2.1678,0.0,0.0,0.0,0.0,0.0,0.0,0.0,0.0,0.0,0.0,0.0,0.0,0.0,0.0,0.0,0.0,0.0,0.0,0.0,0.0,0.0,0.0,0.0,0.0,0.0,0.0,0.0,0.0,0.0,0.0,0.0,0.0,0.0,0.0,0.0,0.0,0.0,0.0,0.0,0.0,0.0,0.0,0.0,0.0,0.0,0.0,0.0,0.0,0.0,0.0,0.0,0.0,0.0,0.0,0.0,0.0,0.0,0.0,0.0,0.0,0.0,0.0,0.0,0.0,0.0,0.0,0.0,0.0,0.0,0.0,0.0,0.0,0.0,0.0,0.0,0.0,0.0,0.0,0.0,0.0,0.0,0.0,0.0,0.0,0.0,0.0,0.0,0.0,0.0,0.0,0.0,0.0,0.0,0.0,0.0,0.0,0.0,0.0,0.0,0.0,0.0,0.0,0.0,-2.0827,-2.3376,-2.5373,-2.6739,-2.6386,-2.6275,-2.6851,-2.3879,-2.1417,-2.0066,0.0,0.0,0.0,0.0,0.0,0.0,0.0,0.0,0.0,0.0,0.0,0.0,0.0,0.0,0.0,0.0,0.0,0.0,0.0,0.0,0.0,0.0,0.0,0.0,0.0,0.0,0.0,0.0,0.0,0.0,0.0,0.0,0.0,0.0,0.0,0.0,0.0,0.0,0.0,0.0,0.0,0.0,0.0,0.0,0.0,0.0,0.0,0.0,0.0,0.0,0.0,0.0,0.0,0.0,0.0,0.0,0.0,0.0,0.0,0.0,0.0,0.0,0.0,0.0,0.0,0.0,0.0,0.0,0.0,0.0,0.0,0.0,0.0,0.0,0.0,0.0,0.0,0.0,0.0,0.0,0.0,0.0,0.0,0.0,0.0,0.0,0.0,0.0,0.0,0.0,0.0,0.0,0.0,0.0,0.0,0.0,0.0,0.0,0.0,0.0,0.0,0.0,-2.1087,-2.3535,-2.5466,-2.6758,-2.6182,-2.6042,-2.6832,-2.3879,-2.1313,-1.9733,0.0,0.0,0.0,0.0,0.0,0.0,0.0,0.0,0.0,0.0,0.0,0.0,0.0,0.0,0.0,0.0,0.0,0.0,0.0,0.0,0.0,0.0,0.0,0.0,0.0,0.0,0.0,0.0,0.0,0.0,0.0,0.0,0.0,0.0,0.0,0.0,0.0,0.0,0.0,0.0,0.0,0.0,0.0,0.0,0.0,0.0,0.0,0.0,0.0,0.0,0.0,0.0,0.0,0.0,0.0,0.0,0.0,0.0,0.0,0.0,0.0,0.0,0.0,0.0,0.0,0.0,0.0,0.0,0.0,0.0,0.0,0.0,0.0,0.0,0.0,0.0,0.0,0.0,0.0,0.0,0.0,0.0,0.0,0.0,0.0,0.0,0.0,0.0,0.0,0.0,0.0,0.0,0.0,0.0,0.0,0.0,0.0,0.0,0.0,0.0,0.0,0.0,-2.0585,-2.3646,-2.5912,-2.6702,-2.608,-2.5912,-2.6721,-2.3842,-2.1381,-1.9894,0.0,0.0,0.0,0.0,0.0,0.0,0.0,0.0,0.0,0.0,0.0,0.0,0.0,0.0,0.0,0.0,0.0,0.0,0.0,0.0,0.0,0.0,0.0,0.0,0.0,0.0,0.0,0.0,0.0,0.0,0.0,0.0,0.0,0.0,0.0,0.0,0.0,0.0,0.0,0.0,0.0,0.0,0.0,0.0,0.0,0.0,0.0,0.0,0.0,0.0,0.0,0.0,0.0,0.0,0.0,0.0,0.0,0.0,0.0,0.0,-2.3327,-2.1947,0.0,0.0,0.0,0.0,0.0,0.0,0.0,0.0,0.0,0.0,0.0,0.0,0.0,0.0,0.0,0.0,0.0,0.0,0.0,0.0,0.0,0.0,0.0,0.0,0.0,0.0,0.0,0.0,0.0,0.0,0.0,0.0,0.0,0.0,0.0,0.0,0.0,0.0,0.0,0.0,-2.1421,-2.3506,-2.5057,-2.5875,-2.5243,-2.5076,-2.5894,-2.3508,-2.1584,-2.0629,-1.7557,0.0,0.0,0.0,0.0,0.0,0.0,0.0,0.0,0.0,0.0,0.0,0.0,0.0,0.0,0.0,0.0,0.0,0.0,0.0,0.0,0.0,0.0,0.0,0.0,0.0,0.0,0.0,0.0,0.0,0.0,0.0,0.0,0.0,0.0,0.0,0.0,0.0,0.0,0.0,0.0,0.0,0.0,0.0,0.0,0.0,0.0,0.0,0.0,0.0,0.0,0.0,0.0,0.0,0.0,0.0,0.0,0.0,0.0,0.0,-2.7029,-2.5554,0.0,0.0,0.0,0.0,0.0,0.0,0.0,0.0,0.0,0.0,0.0,0.0,0.0,0.0,0.0,0.0,0.0,0.0,0.0,0.0,0.0,0.0,0.0,0.0,0.0,0.0,0.0,0.0,0.0,0.0,0.0,0.0,0.0,0.0,0.0,0.0,0.0,0.0,0.0,0.0,-2.2219,-2.4011,-2.5356,-2.6182,-2.5559,-2.5243,-2.5671,-2.3768,-2.207,-2.0882,-1.851,0.0,0.0,0.0,0.0,0.0,0.0,0.0,0.0,0.0,0.0,0.0,0.0,0.0,0.0,0.0,0.0,0.0,0.0,0.0,0.0,0.0,0.0,0.0,0.0,0.0,0.0,0.0,0.0,0.0,0.0,0.0,0.0,0.0,0.0,0.0,0.0,0.0,0.0,0.0,0.0,0.0,0.0,0.0,0.0,0.0,0.0,0.0,0.0,0.0,0.0,0.0,0.0,0.0,-3.1684,-3.218,-3.2832,-3.37,-3.3513,-3.2439,-3.1333,-2.9921,-2.8388,-2.7552,0.0,0.0,0.0,0.0,0.0,0.0,0.0,0.0,0.0,0.0,0.0,0.0,0.0,0.0,0.0,0.0,0.0,0.0,0.0,0.0,0.0,0.0,-2.437,-2.5613,-2.5979,-2.4985,-2.1093,0.0,0.0,0.0,0.0,0.0,0.0,0.0,0.0,0.0,0.0,0.0,-2.2805,-2.4606,-2.5931,-2.6814,-2.6182,-2.5708,-2.5708,-2.4158,-2.2627,-2.1291,-1.9597,-1.774,0.0,0.0,0.0,0.0,0.0,0.0,0.0,0.0,0.0,0.0,0.0,0.0,0.0,0.0,0.0,0.0,0.0,0.0,0.0,0.0,0.0,0.0,0.0,0.0,0.0,0.0,0.0,0.0,0.0,0.0,0.0,0.0,-1.9962,-2.0889,0.0,0.0,0.0,0.0,0.0,0.0,0.0,0.0,0.0,0.0,0.0,0.0,0.0,-2.996,-3.0932,-3.3182,-3.479,-3.5799,-3.725,-3.7974,-3.8037,-3.8916,-3.8419,-3.6899,-3.7515,0.0,-3.096,-3.0074,0.0,0.0,0.0,0.0,0.0,0.0,0.0,0.0,0.0,0.0,0.0,0.0,0.0,0.0,0.0,0.0,0.0,0.0,0.0,0.0,0.0,0.0,-2.9006,-2.8458,-2.8684,-2.8488,-2.6441,-2.3961,-2.18,-2.0658,-1.8552,-1.6668,0.0,0.0,0.0,0.0,0.0,0.0,-2.2965,-2.4597,-2.5931,-2.6814,-2.6182,-2.5708,-2.5708,-2.4158,-2.311,-2.2906,-2.077,-1.9363,-1.8999,-1.6223,0.0,0.0,0.0,0.0,0.0,0.0,0.0,0.0,0.0,0.0,0.0,0.0,0.0,0.0,0.0,0.0,0.0,0.0,0.0,0.0,0.0,0.0,0.0,0.0,0.0,0.0,0.0,0.0,0.0,-1.9196,-2.1293,-2.212,-2.2663,-2.2778,0.0,0.0,0.0,0.0,0.0,0.0,0.0,0.0,0.0,-3.1806,-3.2687,-3.376,-3.5074,-3.6656,-3.8076,-3.9352,-4.0135,-4.0728,-4.116,-4.157,-4.1321,-4.0567,-4.0508,-3.8969,-3.622,-3.3516,-3.1705,-3.0503,0.0,0.0,0.0,0.0,-2.8744,-2.8885,-3.0311,-3.0145,-2.9321,-2.9321,0.0,0.0,0.0,0.0,0.0,0.0,0.0,-2.7538,-2.8047,-2.9582,-3.1021,-3.1098,-3.0944,-3.0559,-2.9703,-2.8009,-2.5946,-2.3487,-2.1663,-2.0121,-1.8859,-1.8284,0.0,0.0,0.0,-2.2708,-2.4391,-2.6005,-2.7154,-2.7529,-2.6851,-2.6182,-2.5745,-2.4621,-2.3721,-2.324,-2.1816,-2.0593,-1.9692,-1.7818,-1.6223,0.0,0.0,0.0,0.0,0.0,0.0,0.0,0.0,0.0,0.0,0.0,0.0,0.0,0.0,0.0,0.0,0.0,0.0,0.0,0.0,0.0,0.0,0.0,0.0,0.0,0.0,0.0,0.0,-2.1427,-2.2808,-2.3673,-2.4731,-2.4957,0.0,0.0,0.0,0.0,0.0,0.0,-3.1466,-3.1983,-3.3183,-3.5289,-3.6353,-3.7494,-3.8759,-3.9628,-4.0767,-4.2164,-4.2231,-4.2546,-4.312,-4.3388,-4.3245,-4.2776,-4.2403,-4.1752,-4.0662,-3.6664,-3.4549,-3.3674,-3.2172,-3.1591,-3.1674,-3.2287,-3.2262,-3.2204,-3.4117,-3.3892,-3.2835,-3.3058,-3.2285,-3.0853,-2.874,0.0,0.0,0.0,0.0,-2.9883,-3.0963,-3.1656,-3.2256,-3.3066,-3.2768,-3.221,-3.1849,-3.1047,-2.9359,-2.5877,-2.4637,-2.3638,-2.2022,-2.125,0.0,-2.0827,0.0,-2.4347,-2.581,-2.722,-2.8192,-2.8402,-2.7706,-2.6869,-2.608,-2.528,-2.4435,-2.3582,-2.2797,-2.1745,-2.0354,-1.9243,-1.7919,-1.6387,0.0,0.0,0.0,0.0,0.0,0.0,0.0,0.0,0.0,0.0,0.0,0.0,0.0,0.0,0.0,0.0,0.0,0.0,0.0,0.0,0.0,0.0,0.0,0.0,0.0,0.0,0.0,0.0,0.0,-2.632,-2.7852,0.0,0.0,0.0,0.0,-2.9985,-3.1557,-3.3221,-3.4971,-3.6559,-3.7823,-3.8734,-4.0339,-4.1256,-4.1408,-4.2221,-4.3063,-4.3972,-4.3972,-4.3971,-4.3978,-4.481,-4.4306,-4.2833,-4.3637,-4.3532,-4.2496,-3.8969,-3.7031,-3.6222,-3.5389,-3.5081,-3.5163,-3.5249,-3.5762,-3.6404,-3.6519,-3.6469,-3.6485,-3.7301,-3.5871,-3.3651,-3.274,-3.1364,0.0,0.0,-3.1172,-3.1472,-3.3109,-3.3278,-3.322,-3.4039,-3.41,-3.3764,-3.2992,-3.224,-3.0783,-2.7666,-2.6877,-2.62,-2.4592,0.0,-2.4222,-2.416,-2.4912,-2.5801,-2.6719,-2.7571,-2.8425,-2.9248,-2.856,-2.7706,-2.6907,-2.6089,-2.5299,-2.45,-2.3732,-2.2888,-2.1919,-2.0422,-1.8815,-1.7077,-1.5468,0.0,0.0,0.0,0.0,0.0,0.0,0.0,0.0,0.0,0.0,0.0,0.0,0.0,0.0,0.0,0.0,0.0,0.0,0.0,0.0,0.0,0.0,0.0,0.0,0.0,0.0,0.0,0.0,-2.9594,-3.0841,0.0,-3.0624,-3.1602,-3.263,-3.3455,-3.502,-3.6706,-3.8428,-3.9583,-4.0568,-4.1418,-4.203,-4.2594,-4.3139,-4.399,-4.4583,-4.4939,-4.5505,-4.5476,-4.4911,-4.5304,-4.5122,-4.447,-4.425,-4.3944,-4.3474,-4.1714,-4.0229,-3.8994,-3.8135,-3.7479,-3.6999,-3.6999,-3.752,-3.8153,-3.7546,-3.771,-3.8178,-3.792,-3.6856,-3.5626,-3.5339,-3.4863,-3.4477,-3.4772,-3.5203,-3.5576,-3.5619,-3.5512,-3.5353,-3.5143,-3.4605,-3.4049,-3.3629,-3.3336,-3.2635,-3.0886,-2.9439,-2.7984,-2.634,-2.6461,-2.6461,-2.5402,-2.6358,-2.7323,-2.763,-2.84,-2.906,-2.9359,-2.8616,-2.7761,-2.6962,-2.6163,-2.5123,-2.3749,-2.2925,-2.2171,-2.1393,-2.0245,-1.9125,-1.8011,-1.6846,-1.5295,0.0,0.0,0.0,0.0,0.0,0.0,0.0,0.0,0.0,0.0,0.0,0.0,0.0,0.0,0.0,0.0,0.0,0.0,0.0,0.0,0.0,0.0,0.0,0.0,0.0,-2.7818,-3.0206,-3.1847,-3.3556,-3.4349,-3.3736,-3.4955,-3.6128,-3.693,-3.8253,-3.9641,-4.1074,-4.1934,-4.2775,-4.3615,-4.3941,-4.4476,-4.5267,-4.5851,-4.6178,-4.6209,-4.6805,-4.6777,-4.6213,-4.6321,-4.634,-4.6242,-4.5419,-4.5026,-4.4911,-4.4087,-4.2972,-4.1698,-4.0825,-4.0126,-3.9618,-3.9597,-3.9772,-3.9917,-3.928,-3.9635,-4.0189,-3.9014,-3.8276,-3.7737,-3.7154,-3.7014,-3.7072,-3.7076,-3.7437,-3.7701,-3.7118,-3.6925,-3.6638,-3.5749,-3.5119,-3.4571,-3.4073,-3.3835,-3.3492,-3.2835,-3.1459,-2.9963,-2.8568,-2.8474,-2.824,-2.7186,-2.7884,-2.8542,-2.8542,-2.9043,-2.9396,-2.9396,-2.8876,-2.8096,-2.6981,-2.6405,-2.5401,-2.3731,-2.285,-2.208,-2.1382,-2.0476,-1.9501,-1.8441,-1.7293,-1.6038,-1.4688,0.0,0.0,0.0,0.0,0.0,0.0,0.0,0.0,0.0,0.0,0.0,0.0,0.0,0.0,0.0,0.0,0.0,0.0,0.0,0.0,0.0,0.0,0.0,-2.7934,-3.0871,-3.2981,-3.3089,-3.5998,-3.7348,-3.5752,-3.7784,-3.9531,-4.0326,-4.1196,-4.202,-4.2804,-4.3684,-4.4526,-4.5307,-4.6171,-4.7012,-4.7788,-4.7826,-4.7837,-4.7818,-4.7837,-4.7837,-4.7818,-4.7865,-4.7947,-4.796,-4.7175,-4.6858,-4.6827,-4.597,-4.5124,-4.4259,-4.337,-4.3035,-4.3015,-4.3069,-4.2538,-4.178,-4.1747,-4.2223,-4.2582,-4.088,-4.0356,-4.0062,-3.8371,-3.7889,-3.7923,-3.7923,-3.7761,-3.7594,-3.7556,-3.7413,-3.6979,-3.5938,-3.5728,-3.5469,-3.4395,-3.3751,-3.3394,-3.3364,-3.2864,-3.2169,-3.1269,-3.0318,-2.9683,-2.9645,-2.9538,0.0,-2.9407,-2.9425,-2.9444,-2.9396,-2.9396,-2.8728,-2.7074,-2.6907,-2.62,-2.4555,-2.3638,-2.2794,-2.2004,-2.1187,-1.9991,-1.8339,-1.6743,-1.5536,-1.4744,0.0,0.0,0.0,0.0,0.0,0.0,0.0,0.0,0.0,0.0,0.0,0.0,0.0,0.0,0.0,0.0,0.0,0.0,0.0,0.0,0.0,-2.8717,-3.1256,-3.1487,-3.2852,-3.4743,-3.7187,-3.8835,-3.9837,-3.9964,-4.1106,-4.1959,-4.217,-4.2948,-4.3513,-4.3732,-4.512,-4.598,-4.6156,-4.7027,-4.7581,-4.7788,-4.843,-4.8474,-4.7947,-4.8531,-4.8511,-4.7947,-4.796,-4.796,-4.7918,-4.7739,-4.7328,-4.6743,-4.6551,-4.5955,-4.5099,-4.4252,-4.3588,-4.3069,-4.3032,-4.248,-4.182,-4.2433,-4.2375,-4.1944,-4.1475,-4.179,-4.2241,-4.1696,-4.1157,-4.0702,-4.0702,-4.0205,-3.9536,-3.8961,-3.8616,-3.8261,-3.7511,-3.7212,-3.6834,-3.5951,-3.5656,-3.5342,-3.4595,-3.3928,-3.3135,-3.2015,-3.1599,-3.1203,-3.0574,-3.0432,-3.0197,-2.9616,-2.9973,-3.0047,-2.9452,-2.9396,-2.8951,-2.7854,-2.7241,-2.594,-2.3694,-2.2794,-2.2006,-2.1295,-2.0401,-1.9416,-1.8321,-1.73,-1.6372,0.0,0.0,0.0,0.0,0.0,0.0,0.0,0.0,0.0,0.0,0.0,0.0,0.0,0.0,0.0,0.0,0.0,0.0,0.0,0.0,0.0,0.0,-3.1602,-3.393,-3.5372,-3.6014,-3.7173,-3.9477,-4.0484,-4.1341,-4.2202,-4.301,-4.3481,-4.3481,-4.4221,-4.4786,-4.513,-4.6068,-4.6889,-4.7565,-4.8103,-4.8553,-4.8928,-4.9425,-4.9458,-4.9043,-4.9522,-4.9503,-4.9053,-4.9085,-4.9075,-4.9013,-4.873,-4.8308,-4.7809,-4.7473,-4.6848,-4.5992,0.0,0.0,0.0,0.0,-4.3457,-4.3344,-4.3496,-4.3208,-4.2787,-4.2787,-4.2892,-4.3007,-4.297,-4.2642,-4.231,-4.231,-4.1703,-4.0931,-4.0469,-3.9956,-3.9391,-3.8599,-3.8295,-3.7906,-3.6863,-3.6518,-3.619,-3.5524,-3.4883,0.0,-3.3515,-3.2751,-3.2053,-3.1544,-3.1402,-3.1063,-3.0328,-3.0527,-3.0397,-2.9566,-2.944,-2.9084,-2.8297,-2.7466,0.0,0.0,0.0,-2.2118,-2.0956,-2.0394,0.0,0.0,0.0,0.0,0.0,0.0,0.0,0.0,-1.5072,-1.4404,0.0,0.0,0.0,0.0,0.0,0.0,0.0,0.0,0.0,0.0,0.0,0.0,0.0,0.0,0.0,0.0,-3.4032,-3.5879,-3.8996,-3.9515,-3.9861,-4.0554,-4.1437,-4.2313,-4.3162,-4.3966,-4.4477,-4.4582,-4.5189,-4.5908,-4.6739,-4.6863,0.0,0.0,0.0,-4.9714,-5.0481,-5.05,-5.0511,-5.0511,-5.0511,-5.0511,-5.0511,-5.0582,-5.0603,-5.0565,-4.9846,-4.949,-4.9336,-4.8567,-4.7778,-4.6951,-4.597,-4.5594,-4.5518,-4.472,-4.4874,-4.5344,-4.4566,0.0,0.0,-4.4198,-4.3652,-4.3069,-4.3069,-4.3038,-4.3035,-4.3111,-4.2503,-4.1788,-4.1788,-4.1146,-4.0249,-3.9376,-3.916,-3.8784,-3.75,-3.6948,-3.6571,-3.6188,-3.5682,-3.5297,-3.5196,-3.3714,-3.2565,-3.2565,-3.2326,-3.1902,-3.1219,-3.0996,-3.0556,-2.9683,-2.9491,0.0,-2.8558,-2.7723,-2.6896,-2.611,-2.4524,-2.2828,-2.1001,-2.1012,-2.1031,-2.0938,-2.0938,-2.1291,-2.1996,-2.1996,-2.1996,-2.1903,-1.8191,-1.6836,0.0,0.0,0.0,0.0,0.0,0.0,0.0,0.0,0.0,0.0,0.0,0.0,0.0,0.0,0.0,-3.3705,-3.6399,-3.8765,-4.0073,-4.0873,-4.1373,-4.1527,-4.2885,-4.3865,-4.4047,-4.4801,-4.5571,-4.6337,-4.6483,-4.6897,-4.7751,-4.8432,-4.8901,-4.9167,-4.9886,-5.0327,-5.05,-5.05,-5.0521,-5.0582,-5.0582,0.0,-5.0582,-5.0593,-5.0603,-5.0584,-5.044,-5.0009,-4.9394,-4.9221,-4.8644,-4.7721,-4.6182,-4.5594,-4.5575,-4.5421,-4.5017,-4.4528,-4.4355,-4.4297,-4.4192,-4.353,-4.3645,-4.4021,-4.4021,-4.3588,0.0,-4.3865,-4.2962,-4.1788,-4.1788,-4.1016,-4.0257,-4.0213,-4.0091,-3.9718,-3.8813,-3.8554,-3.801,-3.6407,-3.6138,-3.5912,-3.5106,-3.4207,-3.3614,-3.3614,-3.2972,-3.2221,-3.1447,-3.103,-3.0499,-2.9701,-2.9491,-2.9343,-2.9216,-2.8559,-2.7814,-2.7004,-2.5385,-2.3649,-2.1837,-2.2386,-2.2423,-2.1773,-2.1773,-2.1848,-2.1996,-2.1996,-2.1996,-2.1977,-2.0511,-1.9936,0.0,0.0,0.0,0.0,0.0,0.0,0.0,0.0,0.0,0.0,0.0,-2.9025,-3.0743,0.0,-3.4891,-3.7014,-3.8457,-3.99,-4.1566,-4.2181,-4.2604,-4.3008,-4.3797,-4.447,-4.4913,-4.5299,-4.5924,-4.6827,-4.6848,-4.7357,-4.8625,-4.9056,-4.9449,-4.989,-5.0312,-5.0572,-5.0603,-5.0603,-5.0623,-5.0643,-5.0643,-5.0643,-5.0643,-5.0643,-5.0643,-5.0643,-5.0643,-5.0413,-5.001,-4.9586,-4.9144,-4.8625,-4.7355,-4.6605,-4.6201,-4.5768,-4.5325,-4.496,-4.496,-4.4662,-4.4316,-4.4335,-4.4335,-4.4374,-4.4816,-4.4662,-4.4432,-4.4844,-4.4028,-4.297,-4.2566,-4.1731,-4.092,-4.0569,-4.0414,-4.0206,-3.9706,-3.9357,-3.8695,-3.7194,-3.6708,-3.627,-3.5359,-3.4917,-3.4672,-3.4568,-3.3807,-3.2978,-3.2248,-3.1535,-3.0743,-2.9844,-2.9598,-2.9541,-2.9636,-2.9047,-2.8298,-2.7444,-2.6487,-2.5338,-2.4006,-2.3891,-2.3665,-2.3256,-2.2916,-2.2916,-2.3256,-2.3327,-2.3319,-2.3238,-2.2829,-2.2197,0.0,0.0,0.0,0.0,0.0,0.0,0.0,0.0,-2.6827,-2.8736,-3.0333,-3.2077,-3.4276,-3.5545,-3.718,-4.0035,-4.0112,-4.0623,-4.3008,-4.3335,-4.3643,-4.4451,-4.4547,-4.4816,-4.5537,-4.5748,-4.6201,-4.7067,-4.7242,-4.7962,-4.9499,-4.9527,-4.9834,-5.0594,-5.0613,-5.0643,-5.0712,-5.0712,-5.0712,-5.0712,-5.0712,-5.0712,-5.0712,-5.0712,-5.0712,-5.0712,-5.0712,-5.0712,-5.0654,-4.9933,-4.9644,-4.9567,-4.8682,-4.7971,-4.7259,-4.622,-4.5748,-4.5594,-4.5594,-4.5152,-4.4643,-4.5171,-4.4874,-4.4432,-4.5133,-4.5344,-4.5383,-4.5556,-4.4979,-4.4143,-4.3508,-4.2566,-4.1623,-4.0912,-4.0631,-4.0457,-4.0295,-3.9874,-3.9219,-3.821,-3.7448,-3.6692,-3.5865,-3.5596,-3.5439,-3.5273,-3.4512,-3.3703,-3.2994,-3.2164,-3.1268,-3.0232,-2.996,-2.9868,-2.9905,-2.9398,-2.8745,-2.7905,-2.7634,-2.7083,-2.6185,-2.5385,-2.4964,-2.4964,-2.4447,-2.4428,-2.4964,-2.5074,-2.5074,-2.4964,-2.4964,-2.4082,-2.5256,-2.5016,-2.5375,-2.6818,-2.6678,-2.7159,0.0,0.0,-3.0519,-3.2993,-3.4257,-3.5231,-3.6231,-3.7777,-3.9227,-4.0323,-4.1066,-4.2143,-4.3912,-4.4162,-4.4489,-4.5344,-4.546,-4.5498,-4.5594,-4.6297,-4.7086,-4.7894,-4.8673,-4.9519,-5.0491,-5.0538,-5.0577,-5.0702,-5.0702,-5.0683,-5.0712,-5.0712,-5.0712,-5.0712,-5.0712,-5.0712,-5.0712,-5.0712,-5.0712,-5.0712,-5.0712,-5.0712,-5.0693,-5.0596,-5.0558,-5.0481,-4.9586,-4.9202,-4.8933,-4.7336,-4.6259,-4.5594,-4.5594,-4.5537,-4.5344,-4.4662,-4.4374,-4.4316,-4.4412,-4.4451,-4.4605,-4.5383,-4.4979,-4.4278,-4.4182,-4.2989,-4.1769,-4.1681,-4.1066,-4.0489,-4.0473,-4.0404,-4.0123,-3.9273,-3.8442,-3.7584,-3.6712,-3.5962,-3.5493,-3.5479,-3.471,-3.3859,-3.3006,-3.2694,-3.2157,-3.1078,-3.0836,-3.0526,-2.9943,-2.9823,-2.9483,-2.881,-2.8612,-2.8083,-2.7107,-2.6776,-2.6628,-2.6628,-2.6554,-2.6554,-2.6628,-2.6647,-2.6647,-2.6628,-2.6628,-2.5773,-2.829,-2.7911,-2.7813,0.0,-2.9467,-3.0025,-3.1795,-3.241,-3.3064,-3.4622,-3.643,-3.7815,-3.8142,-3.9604,-4.1027,0.0,-4.2316,-4.3143,-4.4816,-4.4624,-4.4432,-4.4797,-4.5287,-4.5594,-4.5594,-4.6394,-4.7231,-4.8048,-4.8913,-4.9779,-5.0654,-5.0712,-5.0712,-5.0712,-5.0712,-5.0712,-5.0712,-5.0712,-5.0712,-5.0712,-5.0712,-5.0712,-5.0712,-5.0712,-5.0712,-5.0712,-5.0712,-5.0712,-5.0712,-5.0712,-5.0712,-5.0654,-5.0308,-4.9856,-4.9202,-4.7528,-4.6682,-4.6278,-4.5787,-4.5594,-4.5537,-4.519,-4.5056,-4.5056,-4.5056,-4.5056,-4.5133,-4.5498,-4.5344,-4.494,-4.4432,-4.3778,-4.3008,-4.2019,-4.1527,-4.1123,-4.0612,-4.0496,-4.0265,-3.9457,-3.9015,-3.8315,-3.6942,-3.6423,-3.6038,-3.5577,-3.4757,-3.4071,-3.3699,-3.3153,-3.2424,-3.139,-3.1225,-3.0866,-3.0091,-3.0114,-3.0074,-2.9793,-2.9546,-2.9207,-2.8782,-2.8016,-2.7594,-2.7594,-2.7224,-2.699,-2.6907,-2.699,-2.6981,-2.6907,-2.6907,-2.6535,-2.963,-2.9583,0.0,-3.0827,-3.1923,-3.2814,-3.3026,-3.4199,-3.5507,-3.6372,-3.8027,-3.9381,-3.9592,-4.0623,-4.1816,-4.2912,-4.3104,-4.3682,-4.5364,-4.4855,-4.4297,-4.4297,-4.4662,-4.4998,-4.5229,-4.6259,-4.7231,-4.8048,-4.8913,-4.9779,-5.0654,-5.0712,-5.0712,-5.0712,-5.0712,-5.0808,-5.1029,-5.1029,-5.1144,-5.1395,-5.1395,-5.126,-5.101,-5.0808,-5.0712,-5.0712,-5.0712,-5.0712,-5.0712,-5.0712,-5.0712,-5.0712,-5.0712,-5.0308,-4.9586,-4.8125,-4.7298,-4.6817,-4.6182,-4.5806,-4.5594,-4.5594,-4.5594,-4.5594,-4.5594,-4.5594,-4.5594,-4.5594,-4.5594,-4.546,-4.4816,-4.447,-4.3932,-4.2508,-4.1962,-4.1566,-4.0689,-4.0496,-4.0323,-3.9746,-3.9457,-3.8815,-3.7315,-3.6865,-3.6423,-3.5615,-3.4968,-3.4468,-3.4225,-3.3608,-3.2894,-3.2163,-3.1836,-3.1344,-3.0529,-3.0375,-3.0349,-3.0398,-3.009,-2.9902,-2.9902,-2.8971,-2.8467,-2.8467,-2.797,-2.7699,-2.7594,-2.7681,-2.7681,-2.7594,-2.7594,-2.7594,-2.8209,0.0,-3.075,-3.241,-3.4115,-3.5596,-3.6365,-3.7238,-3.8123,-3.8996,-3.9246,-3.9534,-4.0323,-4.0516,-4.1112,-4.2816,-4.3104,-4.3682,-4.5364,-4.4855,-4.4297,-4.4297,-4.3624,-4.347,0.0,-4.5893,-4.7231,-4.8048,-4.8913,-4.9779,-5.0654,-5.0712,-5.0712,-5.0712,-5.0712,-5.1068,-5.1865,-5.1865,-5.2288,-5.3126,-5.3126,-5.2683,-5.1846,-5.1048,-5.0712,-5.0712,-5.0712,-5.0712,-5.0712,-5.0712,-5.0712,-5.0712,-5.0712,-5.0693,-5.0558,-4.9644,-4.8298,-4.6904,-4.6865,-4.6317,-4.5594,-4.5594,-4.5594,-4.5594,-4.5594,-4.5594,-4.5594,-4.5594,-4.5594,-4.5594,-4.5575,-4.494,-4.4085,-4.3258,-4.2412,-4.1566,-4.0689,-4.0496,-4.0496,-4.0477,-3.9823,-3.9015,-3.8123,-3.7257,-3.6423,-3.5615,-3.5481,-3.5154,-3.4321,-3.4016,-3.3869,-3.3838,-3.2944,-3.2104,-3.1427,-3.0593,-3.0189,-3.0398,-3.009,-2.9902,-2.9902,-2.9551,-2.9359,-2.9359,-2.9332,-2.9332,-2.9322,-2.9332,-2.9332,-2.9322,-2.9322,-2.9322,-3.019,0.0,-3.3199,-3.4346,-3.5911,-3.7238,-3.7507,-3.8238,-3.8777,-3.8488,-3.8892,-3.9381,-3.965,-4.015,-4.1073,-4.2816,-4.3547,-4.4297,-4.5441,-4.5344,-4.4739,-4.3643,-4.4239,0.0,0.0,0.0,0.0,-4.8009,-4.8913,-4.9779,-5.0654,-5.0712,-5.0712,-5.0712,-5.1221,-5.1625,-5.1904,-5.2462,-5.2914,-5.3203,-5.3203,-5.2731,-5.1885,-5.1625,-5.1202,-5.0712,-5.0712,-5.0712,-5.0712,-5.0712,-5.0712,-5.0712,-5.0712,-5.0712,-5.0654,-5.0366,-4.9529,-4.8394,-4.7298,-4.6721,-4.6374,-4.5787,-4.5594,-4.5594,-4.5594,-4.5594,-4.5594,-4.5594,-4.5594,-4.5594,-4.5594,-4.5383,-4.496,-4.4105,-4.3258,-4.2431,-4.1546,-4.0912,-4.0496,-4.0496,-4.0285,-3.9823,-3.9015,-3.8142,-3.7084,-3.5712,-3.55,-3.5385,-3.5103,-3.4997,-3.4738,-3.4157,-3.3801,-3.3058,-3.1706,-3.1328,-3.0938,-3.0436,-3.0162,-3.0037,-3.0037,-2.9716,-2.9522,-2.9522,-2.945,-2.9396,-2.9396,-2.9396,-2.9396,-2.9396,-2.9396,-2.9396,-3.2057,-3.3372,-3.4552,-3.6026,-3.745,-3.845,-3.845,-3.8892,-3.915,-3.8584,-3.8411,-3.8469,-3.8777,-3.8777,-3.9565,-4.222,-4.2816,-4.3555,-4.5344,-4.5325,-4.4739,-4.3662,-4.422,-4.4393,0.0,0.0,0.0,-4.7952,-4.8625,-4.9452,-5.0635,-5.0712,-5.0712,-5.0712,-5.1491,-5.2038,-5.2365,-5.3241,-5.3818,-5.4087,-5.3799,-5.3376,-5.2818,-5.2173,-5.1625,-5.1106,-5.0827,-5.0712,-5.0712,-5.0712,-5.0712,-5.0712,-5.0712,-5.0712,-5.0712,-5.0712,-5.0346,-4.9625,-4.7913,-4.7135,-4.6759,-4.5874,-4.5594,-4.5594,-4.5594,-4.5594,-4.5594,-4.5594,-4.5594,-4.5594,-4.5594,-4.5594,-4.5383,-4.4509,-4.3912,-4.322,-4.2038,-4.1354,-4.0873,-4.0554,-4.0496,-4.0246,-3.9438,-3.8315,-3.7065,-3.5712,-3.55,-3.55,-3.55,-3.55,-3.5288,-3.4718,-3.4398,-3.3763,-3.2679,-3.2045,-3.1468,-3.0904,-3.0381,-3.0109,-3.0109,-2.9851,-2.9662,-2.9608,-2.9522,-2.946,-2.9396,-2.9396,-2.9396,-2.9396,-2.9396,-2.9396,-3.3596,-3.4359,-3.5033,-3.745,-3.8719,-3.9361,-3.9304,-3.9304,-3.9265,-3.913,-3.7757,-3.6815,-3.7584,0.0,-3.6846,-4.1,-4.1085,-4.1805,-4.5133,-4.4902,-4.4374,0.0,0.0,0.0,0.0,0.0,0.0,-4.799,0.0,-4.8856,-5.0616,-5.0712,-5.0731,-5.077,-5.1548,-5.2385,-5.326,-5.4126,-5.4934,-5.5684,-5.4934,-5.453,-5.4434,-5.2741,-5.1942,-5.1865,-5.1048,-5.0712,-5.0712,-5.0712,-5.0712,-5.0712,-5.0712,-5.0712,-5.0712,-5.0712,-5.0712,-5.0462,-4.8759,-4.7682,-4.6874,-4.5951,-4.5671,-4.5671,-4.5614,-4.5594,-4.5594,-4.5594,-4.5594,-4.5594,-4.5594,-4.5594,-4.5402,-4.4566,-4.4335,-4.3855,-4.2277,-4.1865,-4.1566,-4.0727,-4.0535,-4.0246,-3.9438,-3.7892,-3.6481,-3.5673,-3.5538,-3.55,-3.55,-3.55,-3.55,-3.55,-3.4757,-3.4244,-3.4205,-3.2737,-3.1795,-3.1718,-3.0733,-3.0161,-3.0122,-2.9988,-2.982,-2.9635,-2.9608,-2.9522,-2.9417,-2.9407,-2.9396,-2.9396,-2.9396,-2.9396,-3.4821,-3.6546,-3.8169,-3.8823,-3.9592,-4.0035,-3.9438,-3.9304,-3.8757,-3.6853,-3.5603,-3.4699,-3.4276,-3.4904,0.0,-3.945,-4.1335,0.0,-4.5306,-4.5421,0.0,-4.5267,0.0,-4.6009,-4.622,-4.6778,0.0,0.0,-4.8471,-4.8856,-5.0616,-5.0712,-5.0971,-5.1587,-5.2433,-5.3299,-5.4164,-5.4972,-5.5491,-5.5703,-5.5491,-5.5068,-5.4453,-5.3376,-5.25,-5.1865,-5.1048,-5.0712,-5.0712,-5.0712,-5.0712,-5.0712,-5.0712,-5.0712,-5.0712,-5.0712,-5.0712,-5.0539,-4.9452,-4.8933,-4.8529,-4.7048,-4.6567,-4.6451,-4.5806,-4.5594,-4.5594,-4.5594,-4.5594,-4.5594,-4.5594,-4.5594,-4.5537,-4.5325,-4.4759,-4.4182,-4.3758,-4.2681,-4.1731,-4.1508,-4.0931,-4.0246,-3.9438,-3.8392,-3.7373,-3.6519,-3.5885,-3.55,-3.55,-3.55,-3.55,-3.55,-3.5308,-3.4911,-3.4263,-3.3821,-3.3026,-3.1775,-3.1437,-3.0996,-3.0356,-3.0049,-2.9915,-2.9966,-2.9636,-2.9472,-2.9551,-2.946,-2.9396,-2.9396,-2.9396,-2.9396,-3.6719,-3.82,-3.9381,-3.9746,-3.99,-3.9657,-3.8469,-3.7601,-3.6463,-3.4314,-3.2881,0.0,-3.182,-3.2941,-3.4828,0.0,0.0,0.0,-4.4748,-4.5364,-4.5748,0.0,-4.6605,0.0,-4.7394,-4.7836,-4.8471,0.0,-4.8952,-4.926,-5.0635,-5.1029,-5.1433,-5.1885,-5.3126,-5.4164,-5.5011,-5.5472,-5.5703,-5.5703,-5.5703,-5.5453,-5.4991,-5.376,-5.2933,-5.2404,-5.1221,-5.0712,-5.0712,-5.0712,-5.0712,-5.0712,-5.0712,-5.0712,-5.0712,-5.0712,-5.0712,-5.0635,-5.0144,-4.9971,-4.9683,-4.799,-4.7192,-4.6817,-4.6317,-4.5893,-4.5594,-4.5594,-4.5594,-4.5594,-4.5594,-4.5594,-4.5594,-4.5594,-4.5229,-4.4759,-4.4374,-4.3278,-4.2143,-4.1373,-4.0835,-4.0246,-3.9438,-3.8892,-3.8142,-3.6885,-3.6327,-3.5904,-3.5558,-3.55,-3.55,-3.55,-3.55,-3.5308,-3.4814,-3.441,-3.3801,-3.2852,-3.2449,-3.2006,-3.1519,-3.0981,-3.0675,-3.067,-3.004,-2.9672,-2.9608,-2.9513,-2.9451,-2.9396,-2.9396,-2.9396,-3.8679,-3.9391,-3.9629,-4.0222,-3.9834,-3.8813,-3.6902,-3.5315,-3.3692,-3.1839,0.0,-2.9221,-2.9806,-3.0851,-3.2662,-3.5868,0.0,-4.1266,-4.3932,-4.496,-4.5836,-4.6932,-4.7058,-4.7432,-4.8355,-4.8452,-4.8759,-4.951,-4.9567,-4.9894,-5.0654,-5.1471,-5.2,-5.2231,-5.3818,-5.4991,-5.5684,-5.5703,-5.5703,-5.5703,-5.5703,-5.5703,-5.5645,-5.3953,-5.3203,-5.3106,-5.1433,-5.0712,-5.0712,-5.0712,-5.0712,-5.0712,-5.0712,-5.0712,-5.0712,-5.0712,-5.0712,-5.0712,-5.0712,-5.0712,-5.0442,-4.8798,-4.7798,-4.7201,-4.6962,-4.6374,-4.5748,-4.5633,-4.5594,-4.5594,-4.5594,-4.5594,-4.5594,-4.5594,-4.5594,-4.5402,-4.4643,-4.3739,-4.2624,-4.0997,-4.0573,-4.0285,-3.9573,-3.9381,-3.8796,-3.7276,-3.6846,-3.6442,-3.575,-3.5577,-3.55,-3.55,-3.55,-3.55,-3.55,-3.4814,-3.4321,-3.4205,-3.3487,-3.3026,-3.2891,-3.2218,-3.1763,-3.1604,-3.0815,-3.0269,-2.9964,-2.9936,-2.9869,-2.9712,-2.9712,-2.9712,-3.9077,-3.9908,-4.0339,-3.9799,-3.9496,-3.8507,-3.5505,-3.454,0.0,0.0,-2.8954,-2.8108,-2.7535,-2.9223,-3.1602,-3.4289,0.0,0.0,0.0,0.0,-4.5355,0.0,0.0,-4.8509,-5.0087,-5.025,0.0,0.0,-5.0481,-5.0539,-5.0693,-5.1471,-5.2558,-5.3991,-5.4991,-5.5549,-5.5703,-5.5703,-5.5703,-5.5703,-5.5703,-5.5703,-5.5645,-5.3953,-5.3203,-5.3106,-5.1433,-5.0712,-5.0712,-5.0712,-5.0712,-5.0712,-5.0712,-5.0712,-5.0712,-5.0712,-5.0712,-5.0712,-5.0712,-5.0712,-5.0539,-4.951,-4.9086,-4.8702,-4.7317,-4.6797,-4.6528,-4.5806,-4.5594,-4.5594,-4.5594,-4.5594,-4.5594,-4.5594,-4.5594,-4.5556,-4.5421,-4.4182,-4.2797,-4.1777,-4.0989,-4.0458,-4.0323,-3.9746,-3.9207,-3.8892,-3.7623,-3.6654,-3.65,-3.5904,-3.55,-3.55,-3.55,-3.55,-3.55,-3.5365,-3.4968,-3.4244,-3.4071,-3.3641,-3.2929,-3.267,-3.2553,-3.2647,-3.2222,-3.1967,-3.1918,-3.1751,-3.1563,-3.1385,-3.1385,-3.1385,-3.9189,-4.007,-4.0551,-3.9704,-3.914,-3.7793,-3.402,0.0,0.0,0.0,-2.7073,-2.666,-2.6203,0.0,0.0,0.0,0.0,0.0,0.0,0.0,0.0,0.0,0.0,0.0,0.0,-5.0712,-5.0712,-5.0712,-5.0712,-5.0712,-5.0712,-5.1895,-5.3164,-5.4453,-5.528,-5.5703,-5.5703,-5.5703,-5.5703,-5.5703,-5.5703,-5.5703,-5.5645,-5.3953,-5.3203,-5.3106,-5.1433,-5.0712,-5.0712,-5.0712,-5.0712,-5.0712,-5.0712,-5.0712,-5.0712,-5.0712,-5.0712,-5.0712,-5.0712,-5.0712,-5.0635,-5.0212,-4.976,-4.9163,-4.7913,-4.7231,-4.6721,-4.5845,-4.5594,-4.5594,-4.5594,-4.5594,-4.5594,-4.5594,-4.5594,-4.5479,-4.5017,-4.4297,-4.3335,-4.2038,-4.147,-4.1027,-4.0573,-4.0189,-3.9785,-3.9361,-3.8584,-3.7738,-3.6808,-3.6365,-3.5962,-3.5538,-3.55,-3.55,-3.55,-3.55,-3.5327,-3.4911,-3.4872,-3.4699,-3.4269,-3.3754,-3.3504,-3.3583,-3.2982,-3.2634,-3.2551,-3.2457,-3.227,-3.196,-3.196,-3.1896,-3.9252,-4.0141,-4.0589,-3.956,-3.8661,-3.6927,-3.272,-3.1023,0.0,0.0,-2.5614,-2.5603,-2.5547,0.0,-2.9226,0.0,-3.3098,0.0,0.0,0.0,0.0,0.0,0.0,0.0,0.0,-5.0616,0.0,-5.0712,-5.0712,-5.0789,-5.0952,-5.2202,-5.3414,-5.4472,-5.5107,-5.553,-5.5703,-5.5703,-5.5703,-5.5703,-5.5703,-5.5607,-5.5395,-5.3895,-5.3106,-5.2837,-5.1337,-5.0712,-5.0712,-5.0712,-5.0712,-5.0712,-5.0712,-5.0712,-5.0712,-5.0712,-5.0712,-5.0712,-5.0712,-5.0712,-5.0712,-5.0712,-5.025,-4.9471,-4.8413,-4.7663,-4.6951,-4.5902,-4.5594,-4.5594,-4.5594,-4.5594,-4.5594,-4.5594,-4.5594,-4.5421,-4.472,-4.4432,-4.3912,-4.2585,-4.2038,-4.1585,-4.0893,-4.0631,-4.0285,-3.965,-3.9419,-3.8815,-3.743,-3.7077,-3.6654,-3.5846,-3.5596,-3.55,-3.55,-3.55,-3.55,-3.55,-3.55,-3.55,-3.55,-3.4834,-3.4468,-3.4468,-3.3814,-3.3382,-3.3249,-3.3191,-3.2999,-3.2632,-3.2581,-3.2484,-3.9439,-4.0315,-4.0607,-3.908,-3.7887,-3.606,-3.195,0.0,0.0,-2.6224,-2.5684,-2.5683,-2.5681,-2.6476,-2.7902,-3.0297,0.0,-3.4846,0.0,0.0,0.0,0.0,0.0,0.0,0.0,-5.0305,-5.0712,-5.0712,-5.0712,-5.101,-5.175,-5.1942,-5.2779,-5.4453,-5.4568,-5.4953,-5.5684,-5.5703,-5.5703,-5.5703,-5.5703,-5.5318,-5.4587,-5.3626,-5.2779,-5.1962,-5.1087,-5.0712,-5.0712,-5.0712,-5.0712,-5.0712,-5.0712,-5.0712,-5.0712,-5.0712,-5.0712,-5.0712,-5.0712,-5.0712,-5.0712,-5.0712,-5.0654,-5.0269,-4.8606,-4.8048,-4.7663,-4.6056,-4.5594,-4.5594,-4.5594,-4.5594,-4.5594,-4.5594,-4.5594,-4.5575,-4.5498,-4.4855,-4.4239,-4.4105,-4.2835,-4.1769,-4.1692,-4.1027,-4.0477,-4.04,-3.9765,-3.9246,-3.9092,-3.8373,-3.7546,-3.6673,-3.5942,-3.55,-3.55,-3.55,-3.55,-3.55,-3.55,-3.55,-3.55,-3.5423,-3.5385,-3.5385,-3.5308,-3.518,-3.498,-3.4791,-3.4575,-3.4358,-3.4116,-3.3998,-3.8561,-3.9234,-3.939,-3.8764,-3.7494,-3.5422,-3.1693,0.0,-2.8793,-2.6232,-2.5707,-2.5707,-2.5707,-2.5952,-2.683,-2.8866,-2.9755,-3.1637,-3.581,0.0,0.0,0.0,0.0,0.0,0.0,0.0,-5.0856,-5.0816,-5.0759,-5.0846,-5.1164,-5.1645,-5.2212,-5.2914,-5.3953,-5.4645,-5.4972,-5.5453,-5.5703,-5.5684,-5.5203,-5.4799,-5.4453,-5.3049,-5.2231,-5.1865,-5.1048,-5.0712,-5.0712,-5.0712,-5.0712,-5.0712,-5.0712,-5.0712,-5.0712,-5.0712,-5.0712,-5.0712,-5.0712,-5.0712,-5.0712,-5.0712,-5.0346,-4.9683,-4.8471,-4.7759,-4.7124,-4.5941,-4.5594,-4.5594,-4.5594,-4.5594,-4.5594,-4.5594,-4.5594,-4.5594,-4.5594,-4.5325,-4.494,-4.4393,-4.3758,-4.2989,-4.1962,-4.1508,-4.1104,-4.0573,-4.0227,-3.9842,-3.9361,-3.8996,-3.8257,-3.6846,-3.6404,-3.6038,-3.5538,-3.55,-3.55,-3.55,-3.55,-3.55,-3.55,-3.55,-3.55,-3.55,-3.55,-3.541,-3.5209,-3.5115,-3.4908,-3.4602,-3.4495,-3.4351,-3.7303,-3.8131,-3.8535,-3.8279,-3.6891,-3.4763,0.0,-2.9982,-2.8558,-2.6197,-2.5708,-2.5707,-2.5709,-2.5708,-2.6169,-2.7606,-2.8285,-2.9978,-3.3918,0.0,0.0,0.0,0.0,-4.7174,0.0,-5.0248,-5.0985,-5.093,-5.0835,-5.0782,-5.0767,-5.1324,-5.1721,-5.1895,-5.3087,-5.3857,-5.4107,-5.4684,-5.4953,-5.4953,-5.4395,-5.3972,-5.3683,-5.2462,-5.1769,-5.151,-5.0952,-5.0712,-5.0712,-5.0712,-5.0712,-5.0712,-5.0712,-5.0712,-5.0712,-5.0712,-5.0712,-5.0712,-5.0712,-5.0712,-5.0712,-5.0712,-4.9933,-4.8894,-4.8298,-4.7548,-4.6721,-4.5845,-4.5594,-4.5594,-4.5594,-4.5594,-4.5594,-4.5594,-4.5594,-4.5594,-4.5594,-4.5594,-4.5421,-4.4797,-4.447,-4.3932,-4.2739,-4.2135,-4.1585,-4.0969,-4.0669,-4.0304,-3.9727,-3.965,-3.9084,-3.7623,-3.7238,-3.6654,-3.5596,-3.55,-3.55,-3.55,-3.55,-3.55,-3.55,-3.55,-3.55,-3.55,-3.55,-3.5432,-3.53,-3.5234,-3.5028,-3.4689,-3.4634,-3.4461,-3.5787,-3.7291,-3.8384,-3.7537,-3.5994,-3.4022,0.0,-2.9512,-2.7816,-2.6064,-2.569,-2.5708,-2.5693,-2.569,-2.598,-2.6879,-2.846,-3.077,-3.413,-3.6907,0.0,0.0,0.0,-4.5515,-4.726,-4.9591,-5.1002,-5.1002,-5.1002,0.0,-5.0902,-5.0972,-5.1279,-5.1875,-5.1923,-5.2327,-5.3222,-5.3222,-5.3241,-5.3241,-5.3222,-5.275,-5.1923,-5.1904,-5.1471,-5.0712,-5.0712,-5.0712,-5.0712,-5.0712,-5.0712,-5.0712,-5.0712,-5.0712,-5.0712,-5.0712,-5.0712,-5.0712,-5.0712,-5.0712,-5.0712,-5.0712,-4.9529,-4.8105,-4.8105,-4.7548,-4.6721,-4.5845,-4.5594,-4.5594,-4.5594,-4.5594,-4.5594,-4.5594,-4.5594,-4.5594,-4.5594,-4.5594,-4.5594,-4.5594,-4.4893,-4.4297,-4.4278,-4.2893,-4.1788,-4.1788,-4.1046,-4.0496,-4.0496,-4.0496,-4.0189,-3.9361,-3.8507,-3.7315,-3.5635,-3.55,-3.55,-3.55,-3.55,-3.55,-3.55,-3.55,-3.55,-3.55,-3.55,-3.55,-3.55,-3.5308,-3.5098,-3.4879,-3.4689,-3.4461,-3.31,-3.3743,-3.4093,-3.3817,-3.2469,-3.085,-2.9425,-2.8214,-2.7083,-2.5932,-2.5695,-2.5692,-2.5694,-2.569,-2.6371,-2.8441,-2.9241,0.0,0.0,0.0,0.0,0.0,0.0,-4.8228,0.0,0.0,-5.1137,-5.1137,-5.1053,-5.0984,-5.0966,-5.0984,-5.1082,-5.1219,-5.1743,-5.2168,-5.2457,-5.3037,-5.3346,-5.3326,-5.2728,-5.2343,-5.2155,-5.1402,-5.099,-5.0825,-5.073,-5.0712,-5.0712,-5.0712,-5.0712,-5.0712,-5.0712,-5.0712,-5.0712,-5.0712,-5.0712,-5.0712,-5.0712,-5.0712,-5.0712,-5.0712,-4.951,-4.8105,-4.8105,-4.7124,-4.5951,-4.5691,-4.5594,-4.5594,-4.5594,-4.5594,-4.5594,-4.5594,-4.5594,-4.5594,-4.5594,-4.5594,-4.5594,-4.5594,-4.5383,-4.4998,-4.4393,-4.3855,-4.3124,-4.1962,-4.1566,-4.1162,-4.0573,-4.0496,-4.0189,-3.94,-3.9053,-3.818,-3.6462,-3.5827,-3.55,-3.55,-3.55,-3.55,-3.55,-3.55,-3.55,-3.55,-3.55,-3.5432,-3.5281,-3.5234,-3.5028,-3.4689,-3.4626,-3.4461,0.0,-3.1403,-3.1656,-3.1654,-3.0618,-2.9369,-2.8491,-2.7632,-2.6754,-2.5877,-2.5699,-2.5697,-2.5698,-2.5694,-2.6237,-2.7857,-2.8676,-3.0196,0.0,0.0,0.0,0.0,0.0,0.0,0.0,-5.0937,-5.1284,-5.1284,-5.1199,-5.1132,-5.1074,-5.1128,-5.1103,-5.1024,-5.1449,-5.1685,-5.1685,-5.2228,-5.2492,-5.2492,-5.1937,-5.1735,-5.1792,-5.1111,-5.0867,-5.093,-5.0825,-5.0785,0.0,-5.0721,-5.0712,-5.0712,-5.0712,-5.0712,-5.0712,-5.0712,-5.0712,-5.0712,-5.0712,-5.0712,-5.0654,-5.0327,-4.9048,-4.7586,-4.7259,-4.6432,-4.5594,-4.5594,-4.5594,-4.5594,-4.5594,-4.5594,-4.5594,-4.5594,-4.5594,-4.5594,-4.5594,-4.5594,-4.5594,-4.5594,-4.5594,-4.5441,-4.4874,-4.4509,-4.3835,-4.2489,-4.2,-4.1489,-4.0612,-4.0496,-4.0304,-3.9804,-3.9477,-3.8854,-3.7777,-3.6615,-3.5827,-3.5519,-3.55,-3.55,-3.55,-3.55,-3.55,-3.55,-3.55,-3.5439,-3.5316,-3.5234,-3.5072,-3.4812,-3.4668,-3.4506,0.0,-2.9901,-3.0604,-3.0543,-2.9917,-2.9116,-2.8296,-2.7496,0.0,-2.5878,-2.5702,-2.574,-2.5858,-2.5777,-2.5792,-2.6104,-2.7467,-2.9416,0.0,0.0,0.0,0.0,-4.6708,0.0,-4.8896,-5.0457,-5.1394,-5.1394,-5.1394,-5.1355,-5.1214,-5.133,-5.1335,-5.1214,-5.1084,-5.1025,-5.102,-5.102,-5.102,-5.102,-5.102,-5.102,-5.1031,-5.1014,-5.1008,-5.1008,-5.0937,-5.091,-5.0902,-5.0766,-5.0721,-5.0712,-5.0712,-5.0702,-5.0712,-5.0712,-5.0712,-5.0712,-5.0712,-5.0712,-5.0558,-4.9606,-4.8259,-4.6817,-4.5883,-4.5594,-4.5594,-4.5594,-4.5594,-4.5594,-4.5594,-4.5652,-4.5691,-4.5614,-4.5652,-4.5691,-4.5614,-4.5594,-4.5594,-4.5594,-4.5594,-4.5594,-4.5594,-4.494,-4.4124,-4.3316,-4.2508,-4.1643,-4.0708,-4.0593,-4.0573,-4.0516,-3.9823,-3.9361,-3.9304,-3.77,-3.6385,-3.5635,-3.5538,-3.55,-3.55,-3.55,-3.55,-3.55,-3.55,-3.55,-3.55,-3.5316,-3.5218,-3.5201,-3.4811,-3.4604,-2.5273,0.0,-2.7754,-2.709,-2.6777,-2.6562,0.0,-2.6152,-2.5957,-2.5742,0.0,-2.6112,-2.7441,-2.6599,-2.6772,-3.0069,-3.0417,-3.1644,-3.5525,0.0,0.0,-4.7451,-4.8271,-4.9111,-5.0633,-5.116,-5.1394,-5.1394,-5.1394,-5.139,-5.136,-5.1388,-5.139,-5.1357,-5.1325,-5.1255,-5.115,-5.115,-5.115,-5.115,-5.115,-5.1207,-5.1297,-5.1084,-5.1053,-5.1146,-5.1033,-5.0979,-5.0979,-5.0946,-5.0901,-5.085,-5.085,-5.0784,-5.0712,-5.0712,-5.0712,-5.0712,-5.0712,-5.0712,-5.0462,-4.8913,-4.8144,-4.7548,-4.6056,-4.5594,-4.5594,-4.5594,-4.5594,-4.5594,-4.5594,-4.6086,-4.6432,-4.5768,-4.6105,-4.6413,-4.5748,-4.5594,-4.5594,-4.5594,-4.5594,-4.5594,-4.5594,-4.5441,-4.4998,-4.4143,-4.3835,-4.3181,-4.17,-4.1489,-4.1239,-4.0573,-4.0323,-3.9977,-3.9361,-3.77,-3.6615,-3.6423,-3.5846,-3.55,-3.55,-3.55,-3.55,-3.55,-3.55,-3.55,-3.55,-3.5446,-3.5346,-3.5182,-3.4955,-3.4751,-2.3574,-2.5078,-2.6387,-2.6309,-2.6309,-2.6309,-2.6309,0.0,0.0,0.0,0.0,-2.5996,-2.6933,-2.6659,-2.7183,-2.9915,-3.0965,0.0,0.0,0.0,0.0,-4.7842,-4.8584,-4.9325,0.0,-5.118,-5.1394,-5.1394,-5.1394,-5.1394,-5.1394,-5.1394,-5.1394,-5.1394,-5.1394,-5.1362,-5.1294,-5.1291,-5.1291,-5.1291,-5.1291,-5.133,-5.1392,-5.1252,-5.1214,-5.1288,-5.115,-5.1084,-5.1079,-5.1025,-5.0966,-5.0894,-5.0894,-5.0827,-5.0712,-5.0712,-5.0712,-5.0712,-5.0712,-5.0442,-4.9875,-4.8548,-4.7855,-4.7317,-4.5998,-4.5594,-4.5594,-4.5594,-4.5594,-4.5594,-4.5594,-4.5951,-4.6182,-4.571,-4.5951,-4.6163,-4.571,-4.5594,-4.5594,-4.5594,-4.5594,-4.5594,-4.5594,-4.5594,-4.5306,-4.4432,-4.4297,-4.3682,-4.2019,-4.1788,-4.147,-4.0593,-4.0496,-4.0323,-3.99,-3.8642,-3.7719,-3.7315,-3.65,-3.6058,-3.6058,-3.5692,-3.55,-3.55,-3.55,-3.55,-3.55,-3.55,-3.5439,-3.5331,-3.5124,-3.4936,-2.3164,-2.4668,-2.6016,-2.6484,-2.6797,-2.6973,-2.6836,0.0,0.0,0.0,0.0,0.0,0.0,-2.6893,0.0,0.0,0.0,0.0,-4.0543,-4.2162,-4.3995,-4.7215,-4.8193,0.0,-4.9811,-5.0575,-5.1004,-5.1004,-5.1004,-5.1063,-5.1199,-5.1199,-5.1258,-5.1394,-5.1394,-5.1394,-5.1394,-5.1394,-5.1394,-5.1394,-5.1394,-5.1394,-5.1394,-5.1394,-5.1394,-5.1392,-5.1288,-5.1222,-5.1214,-5.1118,-5.0997,-5.0932,-5.0932,-5.0825,-5.0712,-5.0712,-5.0712,-5.0712,-5.0712,-5.0125,-4.926,-4.8375,-4.7567,-4.674,-4.5855,-4.5594,-4.5594,-4.5594,-4.5594,-4.5594,-4.5594,-4.571,-4.5768,-4.5633,-4.571,-4.5768,-4.5633,-4.5594,-4.5594,-4.5594,-4.5594,-4.5594,-4.5594,-4.5594,-4.5344,-4.4605,-4.4489,-4.3932,-4.2393,-4.2181,-4.1797,-4.0804,-4.0708,-4.065,-4.0516,-3.9881,-3.9169,-3.843,-3.745,-3.6846,-3.6712,-3.6058,-3.5635,-3.55,-3.55,-3.55,-3.55,-3.55,-3.55,-3.55,-3.5281,-3.5107,-2.4473,-2.6035,-2.6484,-2.5137,-2.5918,-2.6816,-2.6074,0.0,0.0,0.0,0.0,0.0,0.0,-2.9101,-3.0195,0.0,0.0,-3.9515,0.0,0.0,-4.5342,-4.7352,0.0,-4.8096,-4.8915,-4.9111,-4.9208,-4.9208,-4.9208,-4.952,-5.026,-5.0299,-5.0631,-5.1375,-5.1394,-5.1394,-5.1394,-5.1394,-5.1394,-5.1394,-5.1394,-5.1394,-5.1394,-5.1394,-5.1394,-5.1394,-5.1386,-5.1364,-5.1364,-5.1355,-5.1199,-5.0978,-5.0978,-5.0871,-5.0712,-5.0712,-5.0712,-5.0712,-5.0712,-5.0125,-4.926,-4.8375,-4.7567,-4.674,-4.5855,-4.5594,-4.5594,-4.5594,-4.5594,-4.5594,-4.5594,-4.6144,-4.6509,-4.5787,-4.6163,-4.6509,-4.5768,-4.5594,-4.5594,-4.5594,-4.5594,-4.5594,-4.5594,-4.5594,-4.5556,-4.5421,-4.5402,-4.5037,-4.4047,-4.3912,-4.3316,-4.1777,-4.1604,-4.1296,-4.0554,-4.04,-4.0265,-4.0131,-3.8661,-3.7469,-3.6731,-3.6577,-3.6192,-3.5519,-3.55,-3.55,-3.55,-3.55,-3.55,-3.55,-3.5281,-3.5174,-2.2519,-2.4238,-2.5391,-2.4609,-2.6777,-2.8887,-2.8008,0.0,0.0,0.0,0.0,0.0,0.0,0.0,-3.2379,-3.6748,0.0,-4.1307,-4.3509,-4.4483,-4.548,0.0,0.0,-4.7742,-4.8115,-4.8545,-4.8798,-4.8798,-4.8798,-4.8974,-4.9384,-4.9403,-4.9579,-4.9989,-5.0008,-5.0008,-5.0008,-5.0457,-5.0926,-5.1394,-5.1394,-5.1394,-5.1394,-5.1394,-5.1394,-5.1394,-5.1394,-5.1394,-5.1394,-5.1394,-5.1288,-5.1094,-5.1031,-5.0925,-5.0801,-5.0731,-5.0712,-5.0712,-5.0712,-5.0442,-4.9875,-4.8548,-4.7855,-4.7298,-4.5998,-4.5594,-4.5594,-4.5594,-4.5594,-4.5594,-4.5594,-4.5893,-4.6105,-4.571,-4.5913,-4.6086,-4.5691,-4.5594,-4.5594,-4.5594,-4.5594,-4.5594,-4.5594,-4.5594,-4.5594,-4.5594,-4.5594,-4.5287,-4.4412,-4.4297,-4.3835,-4.2624,-4.2508,-4.2143,-4.1277,-4.12,-4.0816,-3.9919,-3.913,-3.8315,-3.745,-3.6942,-3.6519,-3.6154,-3.5712,-3.55,-3.55,-3.55,-3.55,-3.55,-3.541,-3.5289,-2.1621,-2.3223,-2.4805,-2.5215,-2.7676,-2.9961,-2.9922,-2.9238,0.0,0.0,0.0,0.0,0.0,-3.203,0.0,-3.936,-4.1017,-4.248,-4.4683,-4.5187,-4.5558,-4.6222,-4.6885,-4.7295,-4.7295,-4.7842,-4.8213,-4.8213,-4.8213,-4.8291,-4.8505,-4.8525,-4.8603,-4.8798,-4.8798,-4.8798,-4.8798,-4.9462,-5.0221,-5.1102,-5.1102,-5.1102,-5.1082,-5.0887,-5.0789,-5.0789,-5.0789,-5.0789,-5.0789,-5.0789,-5.0837,-5.0883,-5.0787,-5.0817,-5.0905,-5.0793,-5.074,-5.074,-5.0702,-5.0577,-5.0144,-4.8606,-4.7971,-4.7548,-4.6056,-4.5594,-4.5594,-4.5594,-4.5594,-4.5594,-4.5594,-4.5594,-4.5594,-4.5594,-4.5594,-4.5594,-4.5594,-4.5594,-4.5594,-4.5594,-4.5594,-4.5594,-4.5594,-4.5594,-4.5594,-4.5594,-4.5594,-4.5364,-4.4682,-4.4605,-4.4297,-4.347,-4.3374,-4.2951,-4.1885,-4.1788,-4.1181,-3.9688,-3.9573,-3.9207,-3.8334,-3.7661,-3.7219,-3.7,-3.6404,-3.5981,-3.5788,-3.5788,-3.5788,-3.5788,-3.5788,-3.5808,-2.4687,-2.5469,-2.5996,-2.7617,-2.7656,-2.7891,-3.0273,-3.0137,0.0,-3.2559,0.0,0.0,0.0,-3.5215,-3.7812,-4.0564,-4.2416,-4.3857,-4.4867,0.0,-4.6222,-4.628,-4.6358,-4.6397,-4.6397,-4.6456,-4.6475,-4.6475,-4.6475,-4.6827,-4.7645,-4.7684,-4.8037,-4.8779,-4.8798,-4.8798,-4.8798,-4.8857,-4.9325,-5.0182,-5.0182,-5.0182,-5.0163,-4.9364,-4.8993,-4.8993,-4.8993,-4.8993,-4.8993,-4.8993,-4.9374,-4.9995,-4.9987,-5.0393,-5.0978,-5.0913,-5.0898,-5.0874,-5.074,-5.0164,-4.9336,-4.8394,-4.7586,-4.6817,-4.5883,-4.5594,-4.5594,-4.5594,-4.5594,-4.5594,-4.5594,-4.5594,-4.5594,-4.5594,-4.5594,-4.5594,-4.5594,-4.5594,-4.5594,-4.5594,-4.5594,-4.5594,-4.5594,-4.5594,-4.5594,-4.5594,-4.5594,-4.5575,-4.5518,-4.5518,-4.5171,-4.4316,-4.4201,-4.3566,-4.1942,-4.1788,-4.1393,-4.0477,-4.0419,-4.0054,-3.9246,-3.915,-3.8719,-3.7911,-3.7853,-3.743,-3.6615,-3.6615,-3.6615,-3.6615,-3.6615,-3.7038,-2.3086,-2.4492,-2.5859,-2.6523,-2.8066,0.0,0.0,-3.1836,-3.2539,-3.459,-3.5019,0.0,0.0,0.0,-3.9569,-4.1578,-4.2923,-4.4192,-4.5615,-4.6082,-4.6294,-4.6309,-4.6308,-4.6308,-4.6308,-4.6303,-4.6303,-4.6308,-4.6303,-4.6436,-4.6768,-4.6788,-4.6924,-4.7237,-4.7256,-4.7256,-4.7256,-4.7783,-4.8211,-4.8543,-4.9052,-4.9286,-4.9286,-4.8954,-4.8798,-4.8798,-4.8798,-4.8798,-4.8798,-4.8798,-4.8964,-4.9215,-4.9172,-4.9605,-5.0258,-5.0229,-5.0526,-5.0952,-5.0855,-5.0256,-4.9363,-4.8411,-4.7567,-4.674,-4.5855,-4.5594,-4.5594,-4.5594,-4.5594,-4.5594,-4.5594,-4.5594,-4.5594,-4.5594,-4.5594,-4.5594,-4.5594,-4.5594,-4.5594,-4.5594,-4.5594,-4.5594,-4.5594,-4.5594,-4.5594,-4.5594,-4.5594,-4.5594,-4.5594,-4.5594,-4.5479,-4.5152,-4.4624,-4.4047,-4.3412,-4.2412,-4.1662,-4.1335,-4.0804,-4.0362,-4.0054,-3.9573,-3.915,-3.8815,-3.8277,-3.7834,-3.7507,-3.7507,-3.7507,-3.7507,-3.7507,-3.77,-2.2344,-2.375,-2.543,-2.5977,0.0,0.0,-3.3027,-3.3828,-3.4863,-3.7168,-3.7422,-3.7402,-3.8007,0.0,0.0,0.0,-4.2964,-4.4213,-4.5678,-4.6127,-4.6301,-4.6296,-4.6296,-4.6296,-4.6296,-4.6291,-4.6291,-4.6295,-4.6291,-4.6308,-4.6308,-4.6308,-4.6308,-4.6305,-4.6305,-4.6303,-4.63,-4.6885,-4.7198,-4.7198,-4.7744,-4.8154,-4.8408,-4.8135,-4.8017,-4.8017,-4.8017,-4.8017,-4.8017,-4.8017,-4.8174,-4.8443,-4.8641,-4.904,-4.9508,-4.9751,-5.0028,-5.0303,-5.0487,-4.9974,-4.9093,-4.8073,-4.7377,-4.6752,-4.5881,-4.5594,-4.5594,-4.5594,-4.5594,-4.5594,-4.5594,-4.5594,-4.5594,-4.5594,-4.5594,-4.5594,-4.5594,-4.5594,-4.5691,-4.5951,-4.6009,-4.6009,-4.6009,-4.6009,-4.5913,-4.5633,-4.5594,-4.5594,-4.5594,-4.5594,-4.5594,-4.5594,-4.5075,-4.4605,-4.4316,-4.3258,-4.2354,-4.1827,-4.1239,-4.0785,-4.0516,-3.9977,-3.9688,-3.9688,-3.9084,-3.8661,-3.8411,-3.8411,-3.8411,-3.8411,-3.8411,-3.8546,-2.334,-2.375,-2.4844,0.0,0.0,0.0,-3.5254,-3.6016,-3.7012,-4.0488,-4.0508,-3.9902,-3.9902,-3.9902,0.0,-4.1055,-4.2597,-4.3983,-4.4881,-4.5737,-4.6282,-4.6301,-4.6301,-4.6301,-4.6301,-4.6301,-4.6301,-4.6301,-4.6301,-4.6301,-4.6301,-4.6301,-4.63,-4.6293,-4.6293,-4.6309,-4.6302,-4.63,-4.63,-4.63,-4.63,-4.6749,-4.7567,-4.669,-4.63,-4.63,-4.63,-4.63,-4.63,-4.63,-4.6807,-4.7664,-4.8466,-4.8779,-4.887,-4.9614,-4.9387,-4.8807,-4.9545,-4.9229,-4.8326,-4.7325,-4.7011,-4.6827,-4.5877,-4.5594,-4.5594,-4.5594,-4.5594,-4.5594,-4.5594,-4.5594,-4.5594,-4.5594,-4.5594,-4.5594,-4.5594,-4.5594,-4.5864,-4.6721,-4.6885,-4.6904,-4.6904,-4.6904,-4.6624,-4.5748,-4.5614,-4.5614,-4.5594,-4.5594,-4.5594,-4.5594,-4.5594,-4.5248,-4.4393,-4.4297,-4.3585,-4.1923,-4.1808,-4.1412,-4.0535,-4.0496,-4.0496,-4.0496,-4.0496,-4.0112,-3.9304,-3.9304,-3.9304,-3.9304,-3.9304,-3.9746,-2.334,-2.4629,0.0,-2.8398,0.0,0.0,0.0,-3.7832,0.0,0.0,-4.0996,-4.0625,-4.0019,-4.0391,0.0,-4.1152,-4.209,-4.33,-4.4785,-4.5214,-4.5604,-4.6228,-4.6306,-4.6306,-4.6306,-4.6303,-4.6303,-4.6305,-4.6303,-4.6301,-4.6301,-4.6301,-4.6301,-4.63,-4.63,-4.6299,-4.6296,-4.6296,-4.6296,-4.6296,-4.6296,-4.6447,-4.6671,-4.6417,-4.63,-4.63,-4.63,-4.63,-4.63,-4.63,-4.6456,-4.671,-4.6944,-4.7412,-4.7977,-4.8196,-4.8484,-4.8789,-4.8966,-4.8451,-4.7659,-4.727,-4.6731,-4.6169,-4.5844,-4.5734,-4.5712,-4.5629,-4.5594,-4.5594,-4.5594,-4.5594,-4.5594,-4.5594,-4.5594,-4.5594,-4.5594,-4.5594,-4.5691,-4.5932,-4.649,-4.6904,-4.6904,-4.7375,-4.7471,-4.6644,-4.6509,-4.6297,-4.5691,-4.5594,-4.5594,-4.5594,-4.5594,-4.5498,-4.5248,-4.4643,-4.4085,-4.3585,-4.3028,-4.2047,-4.0554,-4.0496,-4.0496,-4.0496,-4.0496,-4.0381,-4.015,-4.015,-4.015,-4.015,-4.015,-4.0265,-2.418,-2.5781,0.0,-3.0117,-3.2676,-3.5488,-3.8437,0.0,0.0,0.0,-4.1191,-4.1035,-4.0508,-4.0859,0.0,-4.1191,-4.1875,-4.2773,-4.3828,-4.4551,-4.5195,-4.5722,-4.6093,-4.6308,-4.6308,-4.6307,-4.6307,-4.6308,-4.6307,-4.6306,-4.6306,-4.6306,-4.6305,-4.6304,-4.6304,-4.6303,-4.6301,-4.6301,-4.6301,-4.6301,-4.6301,-4.6299,-4.6291,-4.6306,-4.6305,-4.6305,-4.6302,-4.6303,-4.6305,-4.6302,-4.6303,-4.6305,-4.6302,-4.6612,-4.7139,-4.7469,-4.7686,-4.7858,-4.8156,-4.7696,-4.6947,-4.6803,-4.6406,-4.5964,-4.5871,-4.5828,-4.5822,-4.5704,-4.5676,-4.5668,-4.5612,-4.5594,-4.5594,-4.5594,-4.5594,-4.5594,-4.5594,-4.5594,-4.571,-4.6047,-4.6547,-4.6904,-4.6904,-4.7567,-4.7836,-4.7019,-4.6904,-4.6586,-4.571,-4.5594,-4.5594,-4.5594,-4.5594,-4.5594,-4.5594,-4.5133,-4.4662,-4.4316,-4.3835,-4.2951,-4.1593,-4.12,-4.0854,-4.0516,-4.0496,-4.0496,-4.0496,-4.0496,-4.0496,-4.0496,-4.0496,-4.0496,-2.5469,0.0,0.0,-3.1738,-3.3809,0.0,-3.9082,-4.0527,-4.1191,-4.1191,0.0,-4.1191,-4.1191,-4.1191,-4.1191,-4.1191,-4.1816,-4.2324,-4.2383,-4.3769,-4.4785,-4.4863,-4.5644,-4.6172,-4.6172,-4.625,-4.6308,-4.6308,-4.6308,-4.6308,-4.6308,-4.6308,-4.6308,-4.6307,-4.6307,-4.6306,-4.6303,-4.6303,-4.6303,-4.6303,-4.6303,-4.6303,-4.6302,-4.6297,-4.6294,-4.6294,-4.6306,-4.6308,-4.6294,-4.6306,-4.6308,-4.6293,-4.6306,-4.6303,-4.6401,-4.7199,-4.6985,-4.6401,-4.7217,-4.6963,-4.6277,-4.617,-4.6128,-4.6095,-4.5969,-4.5915,-4.5894,-4.5829,-4.5794,-4.5771,-4.5643,-4.5603,-4.5594,-4.5594,-4.5594,-4.5594,-4.5594,-4.5594,-4.5825,-4.6624,-4.6855,-4.6904,-4.6904,-4.7567,-4.7836,-4.7037,-4.6845,-4.6499,-4.5719,-4.5603,-4.5622,-4.5622,-4.5622,-4.5614,-4.5594,-4.5594,-4.5267,-4.447,-4.4412,-4.4047,-4.3239,-4.2374,-4.1546,-4.0746,-4.0746,-4.0708,-4.0631,-4.0631,-4.0573,-4.0496,-4.0496,-4.0496,0.0,-2.6973,0.0,0.0,-3.6484,-3.8809,-3.8867,-4.0078,-4.1191,-4.1191,-4.1191,-4.1191,-4.1191,-4.1191,-4.1191,-4.1191,-4.1348,-4.168,-4.2305,-4.2715,-4.3203,-4.3906,-4.4746,-4.5273,-4.5273,-4.5898,-4.6308,-4.6308,-4.6308,-4.6308,-4.6308,-4.6308,-4.6308,-4.6308,-4.6308,-4.6308,-4.6308,-4.6308,-4.6308,-4.6308,-4.6308,-4.6308,-4.6308,-4.6304,-4.63,-4.63,-4.6299,-4.6299,-4.63,-4.6299,-4.6299,-4.63,-4.6299,-4.6299,-4.6318,-4.6513,-4.6455,-4.6337,-4.6507,-4.6466,-4.6308,-4.6273,-4.6267,-4.624,-4.6098,-4.6057,-4.6037,-4.5919,-4.5835,-4.58,-4.5764,-4.5676,-4.5594,-4.5594,-4.5594,-4.5594,-4.5594,-4.5594,-4.5671,-4.5845,-4.6432,-4.6904,-4.6904,-4.7613,-4.7918,-4.7105,-4.6395,-4.5885,-4.5695,-4.569,-4.5684,-4.5684,-4.5684,-4.5648,-4.5594,-4.5594,-4.5518,-4.5325,-4.5325,-4.494,-4.4085,-4.3258,-4.2739,-4.2547,-4.2547,-4.22,-4.1527,-4.1527,-4.1162,-4.0496,-4.0496,-4.0496,0.0,0.0,0.0,0.0,0.0,0.0,-3.8086,-3.9004,-4.0078,-4.0488,-4.0918,-4.1191,-4.1191,-4.1191,-4.1191,-4.1191,-4.1191,-4.1348,-4.1777,-4.2168,-4.2578,-4.3027,-4.3848,-4.4375,-4.4375,-4.5176,-4.5683,-4.5683,-4.6055,-4.6308,-4.6308,-4.6308,-4.6308,-4.6308,-4.6308,-4.6308,-4.6308,-4.6308,-4.6308,-4.6308,-4.6308,-4.6308,-4.6308,-4.6307,-4.6304,-4.6301,-4.6301,-4.6303,-4.6305,-4.6302,-4.6303,-4.6305,-4.6302,-4.6301,-4.6301,-4.6301,-4.6301,-4.6301,-4.6299,-4.6295,-4.6293,-4.6308,-4.6306,-4.6284,-4.6223,-4.6197,-4.6167,-4.6029,-4.5978,-4.5928,-4.5861,-4.579,-4.5749,-4.5691,-4.5648,-4.5594,-4.5594,-4.5594,-4.5622,-4.564,-4.6005,-4.6341,-4.632,-4.705,-4.748,-4.7061,-4.6601,-4.6177,-4.5738,-4.5703,-4.5695,-4.5695,-4.5695,-4.5698,-4.5648,-4.5648,-4.564,-4.5594,-4.5594,-4.5402,-4.4932,-4.4509,-4.3912,-4.3124,-4.3104,-4.2874,-4.2431,-4.2431,-4.2181,-4.172,-4.1316,-4.1123,0.0,0.0,0.0,0.0,0.0,0.0,-3.7266,-3.7969,-3.8809,-3.9531,-4.0371,-4.1016,-4.1172,-4.1191,-4.1191,-4.1191,-4.1191,-4.1191,-4.1191,-4.1777,-4.2187,-4.2187,-4.2949,-4.3476,-4.3476,-4.4258,-4.4785,-4.4785,-4.5449,-4.5918,-4.6074,-4.6074,-4.6133,-4.6308,-4.6308,-4.6308,-4.6308,-4.6308,-4.6308,-4.6308,-4.6308,-4.6308,-4.6308,-4.6308,-4.6306,-4.6304,-4.6304,-4.6305,-4.6307,-4.6305,-4.6305,-4.6307,-4.6305,-4.6304,-4.6304,-4.6304,-4.6304,-4.6304,-4.6303,-4.6301,-4.6296,-4.6295,-4.6295,-4.6295,-4.6295,-4.6295,-4.6272,-4.6171,-4.612,-4.6063,-4.5952,-4.5918,-4.5891,-4.5822,-4.5715,-4.5635,-4.562,-4.562,-4.5629,-4.5682,-4.569,-4.5706,-4.5727,-4.6325,-4.6788,-4.6796,-4.6788,-4.6518,-4.58,-4.5723,-4.5715,-4.5715,-4.5715,-4.5719,-4.5698,-4.5566,-4.5453,-4.5391,-4.5383,-4.5383,-4.5383,-4.5518,-4.496,-4.3566,-4.3528,-4.3451,-4.3316,-4.3316,-4.3239,-4.3085,-4.2354,-4.2019,0.0,0.0,0.0,0.0,0.0,0.0,0.0,0.0,-3.8633,0.0,-3.9473,-4.0293,-4.1055,-4.1191,-4.1191,-4.1191,-4.1191,-4.1191,-4.1191,-4.1289,-4.1367,-4.1367,-4.207,-4.2578,-4.2578,-4.3359,-4.3867,-4.3867,-4.3984,-4.4375,-4.5137,-4.5176,-4.5527,-4.6289,-4.6308,-4.6308,-4.6308,-4.6308,-4.6308,-4.6308,-4.6308,-4.6308,-4.6308,-4.6308,-4.6308,-4.6308,-4.6308,-4.6308,-4.6308,-4.6308,-4.6308,-4.6308,-4.6308,-4.6308,-4.6308,-4.6308,-4.6308,-4.6308,-4.6307,-4.6306,-4.6305,-4.6302,-4.6301,-4.6301,-4.6301,-4.6301,-4.6301,-4.6279,-4.6199,-4.6103,-4.6078,-4.5994,-4.5894,-4.5885,-4.5834,-4.5757,-4.5704,-4.5692,-4.5692,-4.57,-4.57,-4.5708,-4.5773,-4.5877,-4.5962,-4.596,-4.595,-4.5923,-4.5805,-4.5783,-4.58,-4.58,-4.58,-4.5765,-4.57,-4.5004,-4.4575,-4.4556,-4.4515,-4.447,-4.447,-4.521,-4.5498,-4.5267,-4.5267,-4.4902,-4.4143,-4.4143,-4.3778,-4.3104,-4.2989,-4.2931,-2.6328,0.0,0.0,0.0,0.0,0.0,0.0,0.0,-3.7285,-3.7773,-3.8184,-3.8867,-4.0215,-4.0879,-4.1191,-4.1191,-4.1191,-4.1191,-4.1191,-4.1191,-4.1191,-4.1191,-4.1504,-4.1738,-4.1738,-4.248,-4.2969,-4.2969,-4.3418,-4.3867,-4.4258,-4.4726,-4.5176,-4.5566,-4.6055,-4.6308,-4.6308,-4.6308,-4.6308,-4.6308,-4.6308,-4.6308,-4.6308,-4.6308,-4.6308,-4.6308,-4.6308,-4.6308,-4.6308,-4.6308,-4.6308,-4.6308,-4.6308,-4.6308,-4.6308,-4.6308,-4.6308,-4.6308,-4.6308,-4.6308,-4.6307,-4.6305,-4.6305,-4.6305,-4.6305,-4.6305,-4.6305,-4.6307,-4.6261,-4.6209,-4.6217,-4.6167,-4.6104,-4.6081,-4.6053,-4.5994,-4.5885,-4.5778,-4.5715,-4.5758,-4.5761,-4.5776,-4.5798,-4.5798,-4.5805,-4.58,-4.5793,-4.5805,-4.58,-4.5793,-4.5798,-4.5798,-4.5798,-4.5783,-4.5765,-4.5395,-4.5171,-4.5123,-4.5106,-4.5062,-4.5037,-4.5402,-4.5594,-4.5594,-4.5594,-4.5421,-4.5037,-4.5037,-4.4863,-4.4489,-4.3989,-4.3778,0.0,0.0,0.0,0.0,0.0,0.0,0.0,0.0,-3.6172,0.0,-3.7148,-3.7695,-3.9004,-4.0137,-4.0879,-4.0879,-4.1055,-4.1191,-4.1191,-4.1191,-4.1191,-4.1191,-4.1191,-4.1191,-4.1191,-4.1738,-4.2109,-4.2109,-4.2695,-4.3144,-4.3359,-4.3984,-4.4433,-4.4668,-4.5527,-4.5976,-4.5976,-4.6191,-4.6308,-4.6308,-4.6308,-4.6308,-4.6308,-4.6308,-4.6308,-4.6308,-4.6308,-4.6308,-4.6308,-4.6308,-4.6308,-4.6308,-4.6308,-4.6308,-4.6308,-4.6308,-4.6308,-4.6308,-4.6308,-4.6308,-4.6307,-4.6307,-4.6307,-4.6307,-4.6307,-4.6307,-4.6308,-4.6308,-4.6307,-4.6306,-4.6308,-4.6308,-4.6287,-4.6238,-4.6209,-4.616,-4.6027,-4.5867,-4.5746,-4.5795,-4.5805,-4.5807,-4.5807,-4.5807,-4.5807,-4.5807,-4.5807,-4.5807,-4.5807,-4.5807,-4.5807,-4.5807,-4.5807,-4.5793,-4.5803,-4.5602,-4.5449,-4.5406,-4.5398,-4.5365,-4.5304,-4.5304,-4.5391,-4.5594,-4.5391,-4.5391,-4.5594,-4.5594,-4.5594,-4.5575,-4.494,-4.4624,0.0,0.0,0.0,0.0,0.0,0.0,0.0,0.0,-3.6016,-3.6055,-3.6719,-3.7324,-3.7422,-3.8828,-3.9961,-3.9961,-4.0664,-4.1191,-4.1191,-4.1191,-4.1191,-4.1191,-4.1191,-4.1191,-4.1191,-4.123,-4.1269,-4.1269,-4.1308,-4.166,-4.2422,-4.2519,-4.291,-4.373,-4.4609,-4.5078,-4.5078,-4.5898,-4.6308,-4.6308,-4.6308,-4.6308,-4.6308,-4.6308,-4.6308,-4.6308,-4.6308,-4.6308,-4.6308,-4.6308,-4.6308,-4.6308,-4.6308,-4.6308,-4.6308,-4.6308,-4.6308,-4.6308,-4.6308,-4.6308,-4.6308,-4.6308,-4.6308,-4.6308,-4.6308,-4.6308,-4.6308,-4.6308,-4.6308,-4.6308,-4.6308,-4.6308,-4.6308,-4.6308,-4.6242,-4.616,-4.6027,-4.588,-4.58,-4.58,-4.5807,-4.5807,-4.5807,-4.5807,-4.5807,-4.5807,-4.5807,-4.5807,-4.5807,-4.5807,-4.5807,-4.5807,-4.5807,-4.5807,-4.58,-4.5037,-4.4571,-4.4564,-4.4565,-4.4527,-4.446,-4.446,-4.4829,-4.5594,-4.4848,-4.4848,-4.5594,-4.5594,-4.5594,-4.5594,-4.5556,-4.5537,0.0,0.0,0.0,0.0,0.0,0.0,-3.3613,-3.4961,-3.5996,-3.5996,-3.625,-3.6465,-3.6465,-3.7891,-3.9062,-3.9062,-3.9805,-4.0371,-4.0371,-4.0859,-4.1191,-4.1191,-4.1191,-4.1191,-4.1191,-4.1191,-4.1191,-4.1191,-4.1191,-4.1328,-4.1601,-4.2129,-4.2539,-4.2851,-4.3711,-4.4433,-4.498,-4.5859,-4.6308,-4.6308,-4.6308,-4.6308,-4.6308,-4.6308,-4.6308,-4.6308,-4.6308,-4.6308,-4.6308,-4.6308,-4.6308,-4.6308,-4.6308,-4.6308,-4.6308,-4.6308,-4.6308,-4.6308,-4.6308,-4.6308,-4.6308,-4.6308,-4.6308,-4.6308,-4.6308,-4.6308,-4.6308,-4.6308,-4.6308,-4.6308,-4.6308,-4.6308,-4.6308,-4.6308,-4.6243,-4.6195,-4.6139,-4.6053,-4.5988,-4.5988,-4.5952,-4.5935,-4.5935,-4.5867,-4.5807,-4.5807,-4.5807,-4.5807,-4.5807,-4.5807,-4.5807,-4.5807,-4.5807,-4.5807,-4.5807,-4.5503,-4.5334,-4.5324,-4.5329,-4.5306,-4.524,-4.524,-4.5367,-4.566,-4.5387,-4.5371,-4.5657,-4.5657,-4.5657,-4.5657,-4.5622,-4.5594,-2.3418,0.0,0.0,0.0,0.0,-3.0976,-3.2949,0.0,-3.5215,-3.5508,-3.5801,-3.5996,-3.5996,-3.6953,-3.7812,-3.8125,-3.8887,-3.9453,-3.9453,-4.0215,-4.0762,-4.0762,-4.1016,-4.1191,-4.1191,-4.1191,-4.1191,-4.1191,-4.1191,-4.1191,-4.1191,-4.1719,-4.2129,-4.2383,-4.2969,-4.3672,-4.4551,-4.5137,-4.5566,-4.5859,-4.5859,-4.6016,-4.6308,-4.6308,-4.6308,-4.6308,-4.6308,-4.6308,-4.6308,-4.6308,-4.6308,-4.6308,-4.6308,-4.6308,-4.6308,-4.6308,-4.6308,-4.6308,-4.6308,-4.6308,-4.6308,-4.6308,-4.6308,-4.6308,-4.6308,-4.6308,-4.6308,-4.6308,-4.6308,-4.6308,-4.6308,-4.6308,-4.6308,-4.6308,-4.6266,-4.6238,-4.6238,-4.616,-4.6098,-4.6098,-4.6056,-4.6032,-4.6032,-4.5958,-4.5891,-4.5867,-4.5874,-4.5841,-4.5814,-4.5807,-4.5807,-4.5807,-4.5807,-4.5807,-4.5807,-4.5807,-4.5793,-4.581,-4.581,-4.5788,-4.575,-4.5453,-4.5291,-4.5256,-4.5001,-4.4994,-4.5298,-4.5571,-4.5706,-4.5698,-4.5654,-4.5637,0.0,0.0,0.0,0.0,0.0,0.0,-3.2266,0.0,-3.3555,-3.4473,-3.5332,-3.5937,-3.5996,-3.5996,-3.6289,-3.7129,-3.7988,-3.8555,-3.8555,-3.9316,-3.9863,-3.9863,-4.0625,-4.1152,-4.1152,-4.1172,-4.1191,-4.1191,-4.1191,-4.1191,-4.1191,-4.1191,-4.1562,-4.2344,-4.2383,-4.2812,-4.3652,-4.3691,-4.4141,-4.5,-4.5,-4.5469,-4.6308,-4.6308,-4.6308,-4.6308,-4.6308,-4.6308,-4.6308,-4.6308,-4.6308,-4.6308,-4.6308,-4.6308,-4.6308,-4.6308,-4.6308,-4.6308,-4.6308,-4.6308,-4.6308,-4.6308,-4.6308,-4.6308,-4.6308,-4.6308,-4.6308,-4.6308,-4.6308,-4.6308,-4.6308,-4.6308,-4.6308,-4.6308,-4.6308,-4.6308,-4.6308,-4.6202,-4.6105,-4.6105,-4.6105,-4.6102,-4.6102,-4.6102,-4.6072,-4.6003,-4.6007,-4.5964,-4.5808,-4.5814,-4.5787,-4.5807,-4.5807,-4.5807,-4.5807,-4.5807,-4.5807,-4.5807,-4.5807,-4.5805,-4.5788,-4.4996,-4.451,-4.4438,-4.3661,-4.3663,-4.4537,-4.5299,-4.5688,-4.5708,-4.5708,-4.5708,-2.2051,0.0,0.0,0.0,0.0,0.0,0.0,0.0,-3.123,-3.332,-3.3945,-3.4492,-3.5762,-3.5996,-3.6074,-3.6328,-3.709,-3.7656,-3.7656,-3.8418,-3.8965,-3.8965,-3.9726,-4.0254,-4.0254,-4.082,-4.1191,-4.1191,-4.1191,-4.1191,-4.1191,-4.1191,-4.1308,-4.1523,-4.2109,-4.2519,-4.2754,-4.3379,-4.4141,-4.5,-4.5,-4.5469,-4.6308,-4.6308,-4.6308,-4.6308,-4.6308,-4.6308,-4.6308,-4.6308,-4.6308,-4.6308,-4.6308,-4.6308,-4.6308,-4.6308,-4.6308,-4.6308,-4.6308,-4.6308,-4.6308,-4.6308,-4.6308,-4.6308,-4.6308,-4.6308,-4.6308,-4.6308,-4.6308,-4.6308,-4.6308,-4.6308,-4.6308,-4.6308,-4.6308,-4.6308,-4.6308,-4.6267,-4.6241,-4.6241,-4.6206,-4.6165,-4.6165,-4.6134,-4.6091,-4.6072,-4.6068,-4.6035,-4.5969,-4.5933,-4.5917,-4.5814,-4.5807,-4.5807,-4.5807,-4.5807,-4.5807,-4.5807,-4.5807,-4.58,-4.5812,-4.558,-4.5438,-4.5404,-4.4619,-4.4626,-4.5438,-4.5027,-4.5167,-4.5773,-4.5723,-4.5708,-2.2754,-2.3398,0.0,0.0,0.0,0.0,-2.7559,-2.8301,-2.9258,0.0,-3.2656,-3.3301,-3.4668,-3.5215,-3.5469,-3.5469,-3.6191,-3.6758,-3.6758,-3.7519,-3.8066,-3.8066,-3.8828,-3.9355,-3.9355,-4.0156,-4.0664,-4.0664,-4.0996,-4.1191,-4.1191,-4.1191,-4.1191,-4.1191,-4.1641,-4.1894,-4.1894,-4.2402,-4.3086,-4.3926,-4.4277,-4.4902,-4.5762,-4.6133,-4.6308,-4.6308,-4.6308,-4.6308,-4.6308,-4.6308,-4.6308,-4.6308,-4.6308,-4.6308,-4.6308,-4.6308,-4.6308,-4.6308,-4.6308,-4.6308,-4.6308,-4.6308,-4.6308,-4.6308,-4.6308,-4.6308,-4.6308,-4.6308,-4.6308,-4.6308,-4.6308,-4.6308,-4.6308,-4.6308,-4.6308,-4.6308,-4.6308,-4.6308,-4.6308,-4.6308,-4.6267,-4.6241,-4.6241,-4.6207,-4.6167,-4.6145,-4.6142,-4.6118,-4.6059,-4.6046,-4.6008,-4.5886,-4.5873,-4.5848,-4.5787,-4.5807,-4.5807,-4.5807,-4.5807,-4.5807,-4.5807,-4.5807,-4.5652,-4.5316,-4.4485,-4.4117,-4.4214,-4.4418,-4.4972,-4.5791,-4.5769,-4.5734,-2.4023,-2.4141,0.0,-2.6484,-2.5214,0.0,-2.8183,-2.7968,-2.7675,0.0,-3.121,-3.2011,-3.2929,-3.373,-3.4257,-3.4257,-3.5078,-3.5762,-3.5976,-3.668,-3.7168,-3.7168,-3.793,-3.8457,-3.8457,-3.9238,-3.9766,-3.9766,-4.0566,-4.1094,-4.1191,-4.1191,-4.1191,-4.1191,-4.1191,-4.1191,-4.1191,-4.1191,-4.1601,-4.2402,-4.3281,-4.416,-4.5039,-4.5898,-4.6308,-4.6308,-4.6308,-4.6308,-4.6308,-4.6308,-4.6308,-4.6308,-4.6308,-4.6308,-4.6308,-4.6308,-4.6308,-4.6308,-4.6308,-4.6308,-4.6308,-4.6308,-4.6308,-4.6308,-4.6308,-4.6308,-4.6308,-4.6308,-4.6308,-4.6308,-4.6308,-4.6308,-4.6308,-4.6308,-4.6308,-4.6308,-4.6308,-4.6308,-4.6308,-4.6308,-4.6308,-4.6308,-4.6308,-4.6308,-4.6288,-4.6213,-4.6209,-4.6195,-4.6122,-4.6112,-4.6084,-4.6027,-4.6017,-4.5956,-4.5822,-4.5827,-4.5821,-4.5807,-4.5807,-4.5807,-4.5807,-4.5807,-4.5452,-4.4755,-4.3885,-4.2976,-4.2009,-4.375,-4.4968,-4.5671,-4.5768,-4.5807,-2.6279,-2.6324,-2.6385,-2.5981,-2.602,0.0,-2.545,-2.6164,-2.7255,0.0,-2.8826,-2.939,-3.0934,-3.1359,-3.1473,-3.1473,-3.2807,-3.4349,-3.5801,-3.6152,-3.625,-3.625,-3.7012,-3.7559,-3.7559,-3.834,-3.8848,-3.8848,-3.9668,-4.0469,-4.1152,-4.1191,-4.1191,-4.1191,-4.1191,-4.1191,-4.1191,-4.1191,-4.1601,-4.2402,-4.3281,-4.416,-4.5039,-4.5898,-4.6308,-4.6308,-4.6308,-4.6308,-4.6308,-4.6308,-4.6308,-4.6308,-4.6308,-4.6308,-4.6308,-4.6308,-4.6308,-4.6308,-4.6308,-4.6308,-4.6308,-4.6308,-4.6308,-4.6308,-4.6308,-4.6308,-4.6308,-4.6308,-4.6308,-4.6308,-4.6308,-4.6308,-4.6308,-4.6308,-4.6308,-4.6308,-4.6308,-4.6308,-4.6308,-4.6308,-4.6308,-4.6308,-4.6308,-4.6308,-4.6308,-4.6288,-4.6288,-4.6264,-4.6197,-4.6171,-4.6153,-4.6087,-4.6076,-4.6044,-4.5975,-4.5964,-4.5904,-4.5814,-4.5807,-4.5807,-4.5807,-4.5807,-4.5729,-4.5568,-4.4755,-4.3576,-4.2009,-4.375,-4.4671,-4.4852,-4.549,-4.5807,-2.7758,-2.7527,-2.753,-2.7498,-2.6838,0.0,0.0,-2.5863,-2.6045,-2.7787,-2.7422,-2.7463,-2.9645,-2.9706,-2.9688,-3.0555,-3.1833,-3.3011,-3.3877,-3.5154,-3.5996,-3.5996,-3.6387,-3.6641,-3.6641,-3.7441,-3.8125,-3.8574,-3.9004,-3.9629,-4.0508,-4.0547,-4.0742,-4.1191,-4.1191,-4.1191,-4.1191,-4.1191,-4.1406,-4.1816,-4.3086,-4.3926,-4.4394,-4.5703,-4.6308,-4.6308,-4.6308,-4.6308,-4.6269,-4.582,-4.5918,-4.6308,-4.6308,-4.6308,-4.6308,-4.6308,-4.6308,-4.6308,-4.6308,-4.6308,-4.6308,-4.6308,-4.6308,-4.6308,-4.6308,-4.6308,-4.6308,-4.6308,-4.6308,-4.6308,-4.6308,-4.6308,-4.6308,-4.6308,-4.6308,-4.6308,-4.6308,-4.6308,-4.6308,-4.6308,-4.6308,-4.6308,-4.6308,-4.6308,-4.6308,-4.6308,-4.6308,-4.6289,-4.6244,-4.6243,-4.6215,-4.6155,-4.6147,-4.6125,-4.6063,-4.6059,-4.6017,-4.5944,-4.5927,-4.5911,-4.5911,-4.5841,-4.542,-4.4562,-4.4156,-4.3111,-4.139,-4.2686,-4.375,-4.4613,-4.5007,-4.5413,-2.9504,-2.9182,-2.9338,-2.9353,-2.8145,-2.7079,0.0,0.0,0.0,-2.7203,-2.6454,0.0,0.0,0.0,0.0,-2.9434,0.0,0.0,0.0,-3.3382,0.0,-3.5234,-3.5391,-3.5566,-3.5723,-3.6094,-3.6875,-3.8242,-3.7871,-3.8203,-3.957,-3.9805,-4.0215,-4.0937,-4.1113,-4.1191,-4.1191,-4.1191,-4.1191,-4.1211,-4.2891,-4.3691,-4.3769,-4.5508,-4.6308,-4.6308,-4.6308,-4.6308,-4.625,-4.5547,-4.5566,-4.6055,-4.6055,-4.6152,-4.6308,-4.6308,-4.6308,-4.6308,-4.6308,-4.6308,-4.6308,-4.6308,-4.6308,-4.6308,-4.6308,-4.6308,-4.6308,-4.6308,-4.6308,-4.6308,-4.6308,-4.6308,-4.6308,-4.6308,-4.6308,-4.6308,-4.6308,-4.6308,-4.6308,-4.6308,-4.6308,-4.6308,-4.6308,-4.6308,-4.6308,-4.6308,-4.6308,-4.6308,-4.6308,-4.6308,-4.6288,-4.6234,-4.6212,-4.6199,-4.6125,-4.6122,-4.6115,-4.6102,-4.6054,-4.6003,-4.6002,-4.5861,-4.5084,-4.3576,-4.3401,-4.255,-4.1029,-4.1525,-4.257,-4.411,-4.4439,-4.4949,-3.2804,-3.3137,-3.3034,-2.9973,-3.0732,-3.1097,-2.6693,0.0,-2.7135,-2.5942,0.0,0.0,0.0,0.0,0.0,0.0,0.0,0.0,-2.8463,-3.0097,-3.1601,-3.2436,-3.3222,-3.4004,-3.4765,-3.3593,-3.4082,-3.7207,-3.5293,-3.5371,-3.8574,-3.9473,-3.9941,-4.0039,-4.0801,-4.1191,-4.1191,-4.1191,-4.1191,-4.1211,-4.2891,-4.3691,-4.3769,-4.5508,-4.6308,-4.6308,-4.6308,-4.6308,-4.6289,-4.6191,-4.5762,-4.5156,-4.5156,-4.5625,-4.6308,-4.6308,-4.6308,-4.6308,-4.6308,-4.6308,-4.6308,-4.6308,-4.6308,-4.6308,-4.6308,-4.6308,-4.6308,-4.6308,-4.6308,-4.6308,-4.6308,-4.6308,-4.6308,-4.6308,-4.6308,-4.6308,-4.6308,-4.6308,-4.6308,-4.6308,-4.6308,-4.6308,-4.6308,-4.6308,-4.6308,-4.6308,-4.6308,-4.6308,-4.6308,-4.6308,-4.6308,-4.6289,-4.6289,-4.6265,-4.6199,-4.6197,-4.616,-4.6105,-4.6091,-4.6052,-4.6002,-4.5861,-4.5374,-4.4458,-4.3692,-4.2841,-4.1854,-4.1235,-4.139,-4.2338,-4.3885,-4.4652,-3.3355,-3.3751,-3.3823,-3.1286,-3.1123,-3.0767,-2.7581,-2.6617,-2.6347,-2.6136,0.0,0.0,0.0,0.0,0.0,0.0,-2.6724,0.0,0.0,0.0,-2.9154,-3.1056,0.0,0.0,-3.3104,-3.2128,-3.2441,-3.4863,-3.3555,-3.3945,-3.6934,-3.8398,-3.9375,-3.9883,-4.0742,-4.1191,-4.1191,-4.1191,-4.1191,-4.1211,-4.2891,-4.3691,-4.3769,-4.5508,-4.6308,-4.6308,-4.6308,-4.6308,-4.6269,-4.5742,-4.5625,-4.5703,-4.5195,-4.5215,-4.5605,-4.6113,-4.6308,-4.6308,-4.6308,-4.6308,-4.6308,-4.6308,-4.6308,-4.6308,-4.6308,-4.6308,-4.6308,-4.6308,-4.6308,-4.6308,-4.6308,-4.6308,-4.6308,-4.6308,-4.6308,-4.6308,-4.6308,-4.6308,-4.6308,-4.6308,-4.6308,-4.6308,-4.6308,-4.6308,-4.6308,-4.6308,-4.6308,-4.6308,-4.6308,-4.6308,-4.6308,-4.6308,-4.6308,-4.6289,-4.6265,-4.6265,-4.6242,-4.6212,-4.6171,-4.6112,-4.6007,-4.5953,-4.5499,-4.462,-4.4246,-4.3382,-4.2009,-4.1661,-4.1429,-4.1332,-4.2531,-4.3363,-3.4102,-3.4588,-3.4756,-3.2019,-3.1069,-3.0188,-2.7747,-2.6755,-2.6385,-2.6563,-2.6197,0.0,0.0,0.0,0.0,0.0,0.0,-2.6373,0.0,-2.5957,0.0,0.0,0.0,0.0,0.0,-3.0403,-3.0678,-3.2871,-3.1795,-3.2381,-3.5488,-3.707,-3.8398,-3.9512,-4.0391,-4.0957,-4.1191,-4.1191,-4.1191,-4.1211,-4.2891,-4.3691,-4.3769,-4.5508,-4.6308,-4.6308,-4.6308,-4.6308,-4.625,-4.5625,-4.5586,-4.5898,-4.5508,-4.5215,-4.5117,-4.5976,-4.6308,-4.6308,-4.6308,-4.6308,-4.6308,-4.6308,-4.6308,-4.6308,-4.6308,-4.6308,-4.6308,-4.6308,-4.6308,-4.6308,-4.6308,-4.6308,-4.6308,-4.6308,-4.6308,-4.6308,-4.6308,-4.6308,-4.6308,-4.6308,-4.6308,-4.6308,-4.6308,-4.6308,-4.6308,-4.6308,-4.6308,-4.6308,-4.6308,-4.6308,-4.6308,-4.6308,-4.6308,-4.6308,-4.6308,-4.6308,-4.6308,-4.6308,-4.6239,-4.6153,-4.6067,-4.6013,-4.5687,-4.5009,-4.4737,-4.3866,-4.2357,-4.2125,-4.1583,-4.0816,-4.1622,-4.2338,-3.5999,-3.6722,-3.6768,-3.1692,-3.1055,-3.0564,-2.6346,-2.7255,-2.853,-2.6928,-2.8519,-2.9712,-2.814,0.0,0.0,0.0,0.0,0.0,0.0,0.0,0.0,0.0,0.0,0.0,0.0,-2.7989,-2.8374,-3.1874,-2.9776,-3.0205,-3.4512,-3.5586,-3.6875,-3.8594,-3.9492,-4.0351,-4.1191,-4.1191,-4.1191,-4.1211,-4.2891,-4.3691,-4.3769,-4.5508,-4.6308,-4.6308,-4.6308,-4.6308,-4.6308,-4.6269,-4.5781,-4.5117,-4.5937,-4.5742,-4.5117,-4.5976,-4.6308,-4.6308,-4.6308,-4.6308,-4.6308,-4.6308,-4.6308,-4.6308,-4.6308,-4.6308,-4.6308,-4.6308,-4.6308,-4.6308,-4.6308,-4.6308,-4.6308,-4.6308,-4.6308,-4.6308,-4.6308,-4.6308,-4.6308,-4.6308,-4.6308,-4.6308,-4.6308,-4.6308,-4.6308,-4.6308,-4.6308,-4.6308,-4.6308,-4.6308,-4.6308,-4.6308,-4.6308,-4.6308,-4.6308,-4.6308,-4.6308,-4.6308,-4.6239,-4.6202,-4.6199,-4.6064,-4.5997,-4.5958,-4.506,-4.4149,-4.3266,-4.2415,-4.1583,-4.0816,-4.1622,-4.2009,-3.7486,-3.8163,-3.8041,-3.3992,-3.2765,-3.159,-2.7862,-2.8102,-2.8626,-2.6948,-2.8635,-2.9885,-2.8217,0.0,0.0,0.0,0.0,0.0,0.0,0.0,0.0,0.0,0.0,0.0,0.0,0.0,-2.7225,-3.0164,-2.9074,-2.9899,-3.3633,-3.5215,-3.6797,-3.8535,-3.9453,-4.0312,-4.1191,-4.1191,-4.1191,-4.1211,-4.2891,-4.3691,-4.3769,-4.5508,-4.6308,-4.6308,-4.6308,-4.6308,-4.6308,-4.6308,-4.6133,-4.5898,-4.6172,-4.6113,-4.5898,-4.6191,-4.6308,-4.6308,-4.6308,-4.6308,-4.6308,-4.6308,-4.6308,-4.6308,-4.6308,-4.6308,-4.6308,-4.6308,-4.6308,-4.6308,-4.6308,-4.6738,-4.7168,-4.7168,-4.7598,-4.8027,-4.8027,-4.8027,-4.8027,-4.8027,-4.8027,-4.7832,-4.7266,-4.7168,-4.6953,-4.6387,-4.6308,-4.6308,-4.6308,-4.6308,-4.6308,-4.6308,-4.6308,-4.6308,-4.6308,-4.6308,-4.6308,-4.6308,-4.6288,-4.6242,-4.6204,-4.6115,-4.605,-4.6002,-4.5603,-4.4987,-4.4149,-4.3285,-4.2415,-4.1583,-4.1332,-4.1222,-3.8291,-3.8813,-3.8716,-3.5546,-3.4349,-3.3031,-2.9602,-2.9932,-3.0466,-2.8756,-2.9942,-3.1154,-3.0698,-2.9352,0.0,0.0,0.0,0.0,0.0,-2.3216,0.0,0.0,0.0,0.0,0.0,0.0,-2.6052,-2.8439,-2.8089,-2.9152,-3.2344,-3.4141,-3.6016,-3.8066,-3.8984,-4.0019,-4.1191,-4.1191,-4.1191,-4.1211,-4.2891,-4.3691,-4.3769,-4.5508,-4.6308,-4.6308,-4.6308,-4.6308,-4.6308,-4.6308,-4.6308,-4.6308,-4.6308,-4.6308,-4.6308,-4.6308,-4.6308,-4.6308,-4.6308,-4.6308,-4.6308,-4.6308,-4.6308,-4.6308,-4.6308,-4.6308,-4.6308,-4.6308,-4.6523,-4.6758,-4.6758,-4.7402,-4.8066,-4.8066,-4.8496,-4.8906,-4.8906,-4.8906,-4.8906,-4.8906,-4.8906,-4.8711,-4.8164,-4.7812,-4.7305,-4.6426,-4.6308,-4.6308,-4.6308,-4.6308,-4.6308,-4.6308,-4.6308,-4.6308,-4.6308,-4.6308,-4.6308,-4.6308,-4.6308,-4.6288,-4.6239,-4.6147,-4.6076,-4.6036,-4.588,-4.5394,-4.4594,-4.373,-4.286,-4.197,-4.1164,-4.0797]},{"header":{"parameterUnit":"m.s-1","parameterCategory":1,"la1":30.6,"la2":29.2853,"lo1":-89.7004,"lo2":-87.6739,"dy":0.0162,"dx":0.0183,"nx":112,"ny":82,"refTime":"2026-04-15T12:00:00:Z","depth":0,"parameterNumber":3,"parameterNumberName":"V-component_of_WINDS"},"data":[0.0,0.0,0.0,0.0,0.0,0.0,0.0,0.0,0.0,0.0,0.0,0.0,0.0,0.0,0.0,0.0,0.0,0.0,0.0,0.0,0.0,0.0,0.0,0.0,0.0,0.0,0.0,0.0,0.0,0.0,0.0,0.0,0.0,0.0,0.0,0.0,0.0,0.0,0.0,0.0,0.0,0.0,0.0,0.0,0.0,0.0,0.0,0.0,0.0,0.0,0.0,0.0,0.0,0.0,0.0,0.0,0.0,0.0,0.0,0.0,0.0,0.0,0.0,0.0,0.0,0.0,0.0,0.0,0.0,0.0,0.0,0.0,0.0,0.0,0.0,0.0,0.0,0.0,0.0,0.0,0.0,0.0,0.0,0.0,0.0,0.0,0.0,0.0,0.0,0.0,-0.5973,-0.6984,-0.7722,-0.7805,-0.6965,-0.6954,-0.6365,-0.4872,0.0,0.0,0.0,0.0,0.0,0.0,0.0,0.0,0.0,0.0,0.0,0.0,0.0,0.0,0.0,0.0,0.0,0.0,0.0,0.0,0.0,0.0,0.0,0.0,0.0,0.0,0.0,0.0,0.0,0.0,0.0,0.0,0.0,0.0,0.0,0.0,0.0,0.0,0.0,0.0,0.0,0.0,0.0,0.0,0.0,0.0,0.0,0.0,0.0,0.0,0.0,0.0,0.0,0.0,0.0,0.0,0.0,0.0,0.0,0.0,0.0,0.0,0.0,0.0,0.0,0.0,0.0,0.0,0.0,0.0,0.0,0.0,0.0,0.0,0.0,0.0,0.0,0.0,0.0,0.0,0.0,0.0,0.0,0.0,0.0,0.0,0.0,0.0,0.0,0.0,0.0,0.0,0.0,0.0,0.0,0.0,0.0,0.0,0.0,0.0,0.0,0.0,0.0,0.0,-0.6084,-0.7364,-0.777,-0.7883,-0.7741,-0.7028,-0.6305,-0.5663,0.0,0.0,0.0,0.0,0.0,0.0,0.0,0.0,0.0,0.0,0.0,0.0,0.0,0.0,0.0,0.0,0.0,0.0,0.0,0.0,0.0,0.0,0.0,0.0,0.0,0.0,0.0,0.0,0.0,0.0,0.0,0.0,0.0,0.0,0.0,0.0,0.0,0.0,0.0,0.0,0.0,0.0,0.0,0.0,0.0,0.0,0.0,0.0,0.0,0.0,0.0,0.0,0.0,0.0,0.0,0.0,0.0,0.0,0.0,0.0,0.0,0.0,0.0,0.0,0.0,0.0,0.0,0.0,0.0,0.0,0.0,0.0,0.0,0.0,0.0,0.0,0.0,0.0,0.0,0.0,0.0,0.0,0.0,0.0,0.0,0.0,0.0,0.0,0.0,0.0,0.0,0.0,0.0,0.0,0.0,0.0,0.0,0.0,0.0,0.0,0.0,0.0,0.0,-0.6161,-0.672,-0.7653,-0.7935,-0.7901,-0.7494,-0.7229,-0.6624,-0.5548,-0.4894,0.0,0.0,0.0,0.0,0.0,0.0,0.0,0.0,0.0,0.0,0.0,0.0,0.0,0.0,0.0,0.0,0.0,0.0,0.0,0.0,0.0,0.0,0.0,0.0,0.0,0.0,0.0,0.0,0.0,0.0,0.0,0.0,0.0,0.0,0.0,0.0,0.0,0.0,0.0,0.0,0.0,0.0,0.0,0.0,0.0,0.0,0.0,0.0,0.0,0.0,0.0,0.0,0.0,0.0,0.0,0.0,0.0,0.0,0.0,0.0,0.0,0.0,0.0,0.0,0.0,0.0,0.0,0.0,0.0,0.0,0.0,0.0,0.0,0.0,0.0,0.0,0.0,0.0,0.0,0.0,0.0,0.0,0.0,0.0,0.0,0.0,0.0,0.0,0.0,0.0,0.0,0.0,0.0,0.0,0.0,0.0,0.0,0.0,0.0,0.0,0.0,0.0,-0.7002,-0.7419,-0.7946,-0.8126,-0.7991,-0.7438,-0.7367,-0.6804,-0.551,-0.4833,0.0,0.0,0.0,0.0,0.0,0.0,0.0,0.0,0.0,0.0,0.0,0.0,0.0,0.0,0.0,0.0,0.0,0.0,0.0,0.0,0.0,0.0,0.0,0.0,0.0,0.0,0.0,0.0,0.0,0.0,0.0,0.0,0.0,0.0,0.0,0.0,0.0,0.0,0.0,0.0,0.0,0.0,0.0,0.0,0.0,0.0,0.0,0.0,0.0,0.0,0.0,0.0,0.0,0.0,0.0,0.0,0.0,0.0,0.0,0.0,0.0,0.0,0.0,0.0,0.0,0.0,0.0,0.0,0.0,0.0,0.0,0.0,0.0,0.0,0.0,0.0,0.0,0.0,0.0,0.0,0.0,0.0,0.0,0.0,0.0,0.0,0.0,0.0,0.0,0.0,0.0,0.0,0.0,0.0,0.0,0.0,0.0,0.0,0.0,0.0,0.0,0.0,-0.7261,-0.7958,-0.8231,-0.8289,-0.8261,-0.8233,-0.7206,-0.6455,-0.6139,-0.4639,0.0,0.0,0.0,0.0,0.0,0.0,0.0,0.0,0.0,0.0,0.0,0.0,0.0,0.0,0.0,0.0,0.0,0.0,0.0,0.0,0.0,0.0,0.0,0.0,0.0,0.0,0.0,0.0,0.0,0.0,0.0,0.0,0.0,0.0,0.0,0.0,0.0,0.0,0.0,0.0,0.0,0.0,0.0,0.0,0.0,0.0,0.0,0.0,0.0,0.0,0.0,0.0,0.0,0.0,0.0,0.0,0.0,0.0,0.0,0.0,0.0,0.0,0.0,0.0,0.0,0.0,0.0,0.0,0.0,0.0,0.0,0.0,0.0,0.0,0.0,0.0,0.0,0.0,0.0,0.0,0.0,0.0,0.0,0.0,0.0,0.0,0.0,0.0,0.0,0.0,0.0,0.0,0.0,0.0,0.0,0.0,0.0,0.0,0.0,0.0,0.0,0.0,-0.7134,-0.7683,-0.8253,-0.8291,-0.8291,-0.8291,-0.7457,-0.6706,-0.6173,0.0,0.0,0.0,0.0,0.0,0.0,0.0,0.0,0.0,0.0,0.0,0.0,0.0,0.0,0.0,0.0,0.0,0.0,0.0,0.0,0.0,0.0,0.0,0.0,0.0,0.0,0.0,0.0,0.0,0.0,0.0,0.0,0.0,0.0,0.0,0.0,0.0,0.0,0.0,0.0,0.0,0.0,0.0,0.0,0.0,0.0,0.0,0.0,0.0,0.0,0.0,0.0,0.0,0.0,0.0,0.0,0.0,0.0,0.0,0.0,0.0,0.0,0.0,0.0,0.0,0.0,0.0,0.0,0.0,0.0,0.0,0.0,0.0,0.0,0.0,0.0,0.0,0.0,0.0,0.0,0.0,0.0,0.0,0.0,0.0,0.0,0.0,0.0,0.0,0.0,0.0,0.0,0.0,0.0,0.0,0.0,0.0,0.0,0.0,0.0,0.0,0.0,-0.6507,-0.7182,-0.7774,-0.8373,-0.8439,-0.8439,-0.8439,-0.7685,-0.6895,-0.6173,0.0,0.0,0.0,0.0,0.0,0.0,0.0,0.0,0.0,0.0,0.0,0.0,0.0,0.0,0.0,0.0,0.0,0.0,0.0,0.0,0.0,0.0,0.0,0.0,0.0,0.0,0.0,0.0,0.0,0.0,0.0,0.0,0.0,0.0,0.0,0.0,0.0,0.0,0.0,0.0,0.0,0.0,0.0,0.0,0.0,0.0,0.0,0.0,0.0,0.0,0.0,0.0,0.0,0.0,0.0,0.0,0.0,0.0,0.0,0.0,0.0,0.0,0.0,0.0,0.0,0.0,0.0,0.0,0.0,0.0,0.0,0.0,0.0,0.0,0.0,0.0,0.0,0.0,0.0,0.0,0.0,0.0,0.0,0.0,0.0,0.0,0.0,0.0,0.0,0.0,0.0,0.0,0.0,0.0,0.0,0.0,0.0,0.0,0.0,0.0,0.0,0.0,-0.6298,-0.7501,-0.8387,-0.868,-0.8704,-0.8704,-0.871,-0.7788,-0.6913,0.0,0.0,0.0,0.0,0.0,0.0,0.0,0.0,0.0,0.0,0.0,0.0,0.0,0.0,0.0,0.0,0.0,0.0,0.0,0.0,0.0,0.0,0.0,0.0,0.0,0.0,0.0,0.0,0.0,0.0,0.0,0.0,0.0,0.0,0.0,0.0,0.0,0.0,0.0,0.0,0.0,0.0,0.0,0.0,0.0,0.0,0.0,0.0,0.0,0.0,0.0,0.0,0.0,0.0,0.0,0.0,0.0,0.0,0.0,0.0,0.0,0.0,0.0,0.0,0.0,0.0,0.0,0.0,0.0,0.0,0.0,0.0,0.0,0.0,0.0,0.0,0.0,0.0,0.0,0.0,0.0,0.0,0.0,0.0,0.0,0.0,0.0,0.0,0.0,0.0,0.0,0.0,0.0,0.0,0.0,0.0,0.0,0.0,0.0,0.0,0.0,0.0,0.0,-0.6817,-0.7567,-0.8183,-0.8656,-0.8542,-0.8506,-0.8692,-0.7788,-0.6959,-0.6375,0.0,0.0,0.0,0.0,0.0,0.0,0.0,0.0,0.0,0.0,0.0,0.0,0.0,0.0,0.0,0.0,0.0,0.0,0.0,0.0,0.0,0.0,0.0,0.0,0.0,0.0,0.0,0.0,0.0,0.0,0.0,0.0,0.0,0.0,0.0,0.0,0.0,0.0,0.0,0.0,0.0,0.0,0.0,0.0,0.0,0.0,0.0,0.0,0.0,0.0,0.0,0.0,0.0,0.0,0.0,0.0,0.0,0.0,0.0,0.0,0.0,0.0,0.0,0.0,0.0,0.0,0.0,0.0,0.0,0.0,0.0,0.0,0.0,0.0,0.0,0.0,0.0,0.0,0.0,0.0,0.0,0.0,0.0,0.0,0.0,0.0,0.0,0.0,0.0,0.0,0.0,0.0,0.0,0.0,0.0,0.0,0.0,0.0,0.0,0.0,0.0,0.0,-0.6902,-0.7647,-0.8213,-0.8662,-0.8475,-0.8399,-0.8686,-0.7788,-0.6899,-0.6198,0.0,0.0,0.0,0.0,0.0,0.0,0.0,0.0,0.0,0.0,0.0,0.0,0.0,0.0,0.0,0.0,0.0,0.0,0.0,0.0,0.0,0.0,0.0,0.0,0.0,0.0,0.0,0.0,0.0,0.0,0.0,0.0,0.0,0.0,0.0,0.0,0.0,0.0,0.0,0.0,0.0,0.0,0.0,0.0,0.0,0.0,0.0,0.0,0.0,0.0,0.0,0.0,0.0,0.0,0.0,0.0,0.0,0.0,0.0,0.0,0.0,0.0,0.0,0.0,0.0,0.0,0.0,0.0,0.0,0.0,0.0,0.0,0.0,0.0,0.0,0.0,0.0,0.0,0.0,0.0,0.0,0.0,0.0,0.0,0.0,0.0,0.0,0.0,0.0,0.0,0.0,0.0,0.0,0.0,0.0,0.0,0.0,0.0,0.0,0.0,0.0,0.0,-0.6738,-0.7683,-0.8357,-0.8644,-0.8411,-0.8357,-0.865,-0.7776,-0.6818,-0.594,0.0,0.0,0.0,0.0,0.0,0.0,0.0,0.0,0.0,0.0,0.0,0.0,0.0,0.0,0.0,0.0,0.0,0.0,0.0,0.0,0.0,0.0,0.0,0.0,0.0,0.0,0.0,0.0,0.0,0.0,0.0,0.0,0.0,0.0,0.0,0.0,0.0,0.0,0.0,0.0,0.0,0.0,0.0,0.0,0.0,0.0,0.0,0.0,0.0,0.0,0.0,0.0,0.0,0.0,0.0,0.0,0.0,0.0,0.0,0.0,-0.4666,-0.4192,0.0,0.0,0.0,0.0,0.0,0.0,0.0,0.0,0.0,0.0,0.0,0.0,0.0,0.0,0.0,0.0,0.0,0.0,0.0,0.0,0.0,0.0,0.0,0.0,0.0,0.0,0.0,0.0,0.0,0.0,0.0,0.0,0.0,0.0,0.0,0.0,0.0,0.0,0.0,0.0,-0.7012,-0.7609,-0.8081,-0.8345,-0.8141,-0.8087,-0.8351,-0.7667,-0.7013,-0.6603,-0.5368,0.0,0.0,0.0,0.0,0.0,0.0,0.0,0.0,0.0,0.0,0.0,0.0,0.0,0.0,0.0,0.0,0.0,0.0,0.0,0.0,0.0,0.0,0.0,0.0,0.0,0.0,0.0,0.0,0.0,0.0,0.0,0.0,0.0,0.0,0.0,0.0,0.0,0.0,0.0,0.0,0.0,0.0,0.0,0.0,0.0,0.0,0.0,0.0,0.0,0.0,0.0,0.0,0.0,0.0,0.0,0.0,0.0,0.0,0.0,-0.5376,-0.488,0.0,0.0,0.0,0.0,0.0,0.0,0.0,0.0,0.0,0.0,0.0,0.0,0.0,0.0,0.0,0.0,0.0,0.0,0.0,0.0,0.0,0.0,0.0,0.0,0.0,0.0,0.0,0.0,0.0,0.0,0.0,0.0,0.0,0.0,0.0,0.0,0.0,0.0,0.0,0.0,-0.7273,-0.7889,-0.83,-0.8475,-0.8243,-0.8141,-0.8279,-0.7751,-0.7224,-0.6835,-0.5792,0.0,0.0,0.0,0.0,0.0,0.0,0.0,0.0,0.0,0.0,0.0,0.0,0.0,0.0,0.0,0.0,0.0,0.0,0.0,0.0,0.0,0.0,0.0,0.0,0.0,0.0,0.0,0.0,0.0,0.0,0.0,0.0,0.0,0.0,0.0,0.0,0.0,0.0,0.0,0.0,0.0,0.0,0.0,0.0,0.0,0.0,0.0,0.0,0.0,0.0,0.0,0.0,0.0,-0.6302,-0.6511,-0.6829,-0.6971,-0.7009,-0.6895,-0.6162,-0.5748,-0.555,-0.5138,0.0,0.0,0.0,0.0,0.0,0.0,0.0,0.0,0.0,0.0,0.0,0.0,0.0,0.0,0.0,0.0,0.0,0.0,0.0,0.0,0.0,0.0,-0.4517,-0.4776,-0.505,-0.514,-0.4749,0.0,0.0,0.0,0.0,0.0,0.0,0.0,0.0,0.0,0.0,0.0,-0.7492,-0.8203,-0.8614,-0.868,-0.8475,-0.8291,-0.8291,-0.7879,-0.7407,-0.6969,-0.6109,-0.5234,0.0,0.0,0.0,0.0,0.0,0.0,0.0,0.0,0.0,0.0,0.0,0.0,0.0,0.0,0.0,0.0,0.0,0.0,0.0,0.0,0.0,0.0,0.0,0.0,0.0,0.0,0.0,0.0,0.0,0.0,0.0,0.0,-0.3542,-0.3683,0.0,0.0,0.0,0.0,0.0,0.0,0.0,0.0,0.0,0.0,0.0,0.0,0.0,-0.5756,-0.5768,-0.6375,-0.6802,-0.704,-0.7452,-0.7812,-0.8085,-0.8272,-0.8166,-0.7801,-0.7718,0.0,-0.6334,-0.6085,0.0,0.0,0.0,0.0,0.0,0.0,0.0,0.0,0.0,0.0,0.0,0.0,0.0,0.0,0.0,0.0,0.0,0.0,0.0,0.0,0.0,0.0,-0.6232,-0.6179,-0.7185,-0.8001,-0.7488,-0.6336,-0.541,-0.5535,-0.5517,-0.5396,0.0,0.0,0.0,0.0,0.0,0.0,-0.7628,-0.823,-0.8614,-0.868,-0.8475,-0.8291,-0.8291,-0.7879,-0.7565,-0.7498,-0.635,-0.5805,-0.6059,-0.4575,0.0,0.0,0.0,0.0,0.0,0.0,0.0,0.0,0.0,0.0,0.0,0.0,0.0,0.0,0.0,0.0,0.0,0.0,0.0,0.0,0.0,0.0,0.0,0.0,0.0,0.0,0.0,0.0,0.0,-0.3385,-0.3754,-0.39,-0.3971,-0.3991,0.0,0.0,0.0,0.0,0.0,0.0,0.0,0.0,0.0,-0.629,-0.6465,-0.6677,-0.6977,-0.7333,-0.7703,-0.8096,-0.8165,-0.8286,-0.8514,-0.8458,-0.8407,-0.8392,-0.8288,-0.8017,-0.7616,-0.6705,-0.6091,-0.5722,0.0,0.0,0.0,0.0,-0.5457,-0.5451,-0.5686,-0.5723,-0.5666,-0.5666,0.0,0.0,0.0,0.0,0.0,0.0,0.0,-0.4887,-0.504,-0.5549,-0.603,-0.6045,-0.6507,-0.6985,-0.7131,-0.6821,-0.662,-0.6874,-0.683,-0.6586,-0.6173,-0.5985,0.0,0.0,0.0,-0.7598,-0.7984,-0.8638,-0.902,-0.8945,-0.8692,-0.8475,-0.8303,-0.797,-0.7707,-0.7607,-0.6931,-0.6394,-0.6067,-0.5384,-0.4786,0.0,0.0,0.0,0.0,0.0,0.0,0.0,0.0,0.0,0.0,0.0,0.0,0.0,0.0,0.0,0.0,0.0,0.0,0.0,0.0,0.0,0.0,0.0,0.0,0.0,0.0,0.0,0.0,-0.3778,-0.4047,-0.4201,-0.4389,-0.4457,0.0,0.0,0.0,0.0,0.0,0.0,-0.6295,-0.6398,-0.6676,-0.7099,-0.7355,-0.7628,-0.7974,-0.8107,-0.8387,-0.8866,-0.864,-0.8656,-0.8871,-0.8729,-0.8651,-0.8703,-0.8579,-0.8542,-0.8412,-0.7293,-0.6716,-0.6507,-0.6144,-0.5962,-0.5942,-0.6166,-0.6198,-0.6187,-0.6477,-0.6511,-0.642,-0.6501,-0.6385,-0.6172,-0.5782,0.0,0.0,0.0,0.0,-0.5741,-0.6019,-0.6441,-0.6819,-0.6953,-0.704,-0.7214,-0.7646,-0.7957,-0.8073,-0.7881,-0.7857,-0.7709,-0.7182,-0.6905,0.0,-0.6817,0.0,-0.8117,-0.8417,-0.9009,-0.9365,-0.9228,-0.8969,-0.8698,-0.8411,-0.8153,-0.791,-0.7691,-0.7325,-0.683,-0.6174,-0.5998,-0.5521,-0.4641,0.0,0.0,0.0,0.0,0.0,0.0,0.0,0.0,0.0,0.0,0.0,0.0,0.0,0.0,0.0,0.0,0.0,0.0,0.0,0.0,0.0,0.0,0.0,0.0,0.0,0.0,0.0,0.0,0.0,-0.4819,-0.5131,0.0,0.0,0.0,0.0,-0.593,-0.6241,-0.6683,-0.7194,-0.7521,-0.7867,-0.8189,-0.8528,-0.8628,-0.8472,-0.859,-0.8761,-0.8996,-0.8996,-0.9096,-0.9348,-0.9474,-0.9216,-0.8715,-0.8878,-0.8708,-0.8309,-0.8017,-0.7745,-0.7411,-0.6999,-0.674,-0.6517,-0.6374,-0.6386,-0.646,-0.648,-0.6759,-0.7092,-0.7293,-0.7176,-0.6923,-0.6698,-0.631,0.0,0.0,-0.6839,-0.7374,-0.7834,-0.8995,-1.0117,-1.0244,-1.0711,-1.1052,-1.0839,-1.0436,-0.9669,-0.8031,-0.8217,-0.8481,-0.7931,0.0,-0.787,-0.7996,-0.8335,-0.8633,-0.8843,-0.9192,-0.9408,-0.9468,-0.9245,-0.8969,-0.871,-0.8445,-0.8159,-0.7901,-0.7284,-0.697,-0.7122,-0.6219,-0.5663,-0.5528,-0.5044,0.0,0.0,0.0,0.0,0.0,0.0,0.0,0.0,0.0,0.0,0.0,0.0,0.0,0.0,0.0,0.0,0.0,0.0,0.0,0.0,0.0,0.0,0.0,0.0,0.0,0.0,0.0,0.0,-0.5485,-0.5612,0.0,-0.6022,-0.6214,-0.6453,-0.6807,-0.7244,-0.7677,-0.8124,-0.8324,-0.8577,-0.8804,-0.8934,-0.9005,-0.9071,-0.92,-0.9223,-0.9143,-0.9103,-0.9046,-0.8984,-0.8704,-0.872,-0.8997,-0.8802,-0.8841,-0.8993,-0.8629,-0.8093,-0.7491,-0.7197,-0.6989,-0.6899,-0.7108,-0.7293,-0.7416,-0.7468,-0.7544,-0.7594,-0.7586,-0.7331,-0.7006,-0.6949,-0.6737,-0.6468,-0.6484,-0.6723,-0.6956,-0.7045,-0.7467,-0.7837,-0.7791,-0.787,-0.8018,-0.8424,-0.8389,-0.8212,-0.788,-0.8581,-0.9059,-0.8495,-0.8566,-0.8566,-0.8284,-0.8628,-0.8944,-0.9011,-0.9296,-0.9477,-0.9504,-0.9263,-0.8987,-0.8728,-0.8469,-0.8133,-0.7745,-0.7311,-0.6911,-0.6515,-0.6262,-0.5916,-0.5421,-0.5352,-0.5007,0.0,0.0,0.0,0.0,0.0,0.0,0.0,0.0,0.0,0.0,0.0,0.0,0.0,0.0,0.0,0.0,0.0,0.0,0.0,0.0,0.0,0.0,0.0,0.0,0.0,-0.4874,-0.5394,-0.5867,-0.6181,-0.6405,-0.6596,-0.6874,-0.7186,-0.7556,-0.7913,-0.8336,-0.8731,-0.8818,-0.8995,-0.9271,-0.924,-0.9352,-0.9673,-0.9746,-0.971,-0.9559,-0.947,-0.9411,-0.9245,-0.8794,-0.8798,-0.9198,-0.8829,-0.8803,-0.8984,-0.862,-0.811,-0.7587,-0.7474,-0.7392,-0.7343,-0.7562,-0.7686,-0.7759,-0.7858,-0.7974,-0.7994,-0.7893,-0.77,-0.7506,-0.7433,-0.7237,-0.7038,-0.6913,-0.7108,-0.7286,-0.7215,-0.7387,-0.7621,-0.7762,-0.7625,-0.7664,-0.8417,-0.824,-0.8079,-0.8377,-0.8761,-0.8875,-0.8428,-0.8672,-0.8769,-0.8409,-0.8859,-0.9239,-0.9239,-0.9402,-0.9516,-0.9516,-0.9348,-0.9095,-0.8734,-0.8548,-0.8223,-0.7739,-0.748,-0.7068,-0.6486,-0.6505,-0.6219,-0.555,-0.5494,-0.525,-0.479,0.0,0.0,0.0,0.0,0.0,0.0,0.0,0.0,0.0,0.0,0.0,0.0,0.0,0.0,0.0,0.0,0.0,0.0,0.0,0.0,0.0,0.0,0.0,-0.4894,-0.5443,-0.5853,-0.6021,-0.6834,-0.726,-0.6869,-0.7473,-0.7998,-0.8204,-0.8335,-0.8597,-0.9049,-0.9037,-0.9211,-0.9579,-0.9551,-0.9725,-1.0212,-1.022,-1.0168,-1.0164,-1.0168,-1.0168,-1.0164,-0.9847,-0.9537,-0.9268,-0.8903,-0.8579,-0.831,-0.8106,-0.7957,-0.7804,-0.7891,-0.7879,-0.7875,-0.7691,-0.7549,-0.7461,-0.7643,-0.7969,-0.8277,-0.8224,-0.8348,-0.8515,-0.8112,-0.7838,-0.7672,-0.7672,-0.8069,-0.8464,-0.8455,-0.9068,-0.9822,-1.0433,-1.0456,-1.0506,-1.1134,-1.0319,-0.9457,-0.9488,-0.8729,-0.7983,-0.7796,-0.8195,-0.8511,-0.8501,-0.9066,0.0,-0.9484,-0.949,-0.9496,-0.9516,-0.9516,-0.93,-0.8764,-0.871,-0.8481,-0.7919,-0.7709,-0.7461,-0.7176,-0.691,-0.6544,-0.6003,-0.5481,-0.5086,-0.4808,0.0,0.0,0.0,0.0,0.0,0.0,0.0,0.0,0.0,0.0,0.0,0.0,0.0,0.0,0.0,0.0,0.0,0.0,0.0,0.0,0.0,-0.5064,-0.5511,-0.5552,-0.5793,-0.6204,-0.685,-0.7066,-0.7338,-0.7723,-0.799,-0.8204,-0.8245,-0.864,-0.8902,-0.8997,-0.9231,-0.9511,-0.9811,-0.9942,-1.0059,-1.0212,-1.0294,-1.0083,-0.9537,-0.9708,-0.9705,-0.9537,-0.9268,-0.9268,-0.9586,-0.928,-0.9039,-0.8874,-0.8628,-0.8414,-0.8206,-0.7952,-0.7784,-0.7691,-0.7782,-0.7873,-0.7893,-0.7912,-0.7902,-0.7869,-0.7827,-0.784,-0.7876,-0.7916,-0.7721,-0.7498,-0.7498,-0.7497,-0.7462,-0.7353,-0.7988,-0.8526,-0.793,-0.8292,-0.8716,-0.8714,-0.8437,-0.8322,-0.8826,-0.8106,-0.7726,-0.8578,-0.8912,-0.9021,-0.8803,-0.8942,-0.8981,-0.8808,-0.9379,-0.9727,-0.9534,-0.9516,-0.9372,-0.9017,-0.8818,-0.8397,-0.7727,-0.7461,-0.7044,-0.6434,-0.6481,-0.6355,-0.5997,-0.5663,-0.5359,0.0,0.0,0.0,0.0,0.0,0.0,0.0,0.0,0.0,0.0,0.0,0.0,0.0,0.0,0.0,0.0,0.0,0.0,0.0,0.0,0.0,0.0,-0.5572,-0.5983,-0.6237,-0.631,-0.6596,-0.7139,-0.7275,-0.7476,-0.7869,-0.8117,-0.8255,-0.8255,-0.8646,-0.901,-0.9182,-0.9373,-0.9646,-0.9948,-0.9951,-0.9989,-1.001,-1.0112,-0.995,-0.9533,-0.9626,-0.9622,-0.9479,-0.9208,-0.9262,-0.9583,-0.9197,-0.9008,-0.8915,-0.8691,-0.8524,-0.8317,0.0,0.0,0.0,0.0,-0.7956,-0.8033,-0.7963,-0.7911,-0.793,-0.793,-0.7901,-0.7922,-0.8013,-0.7855,-0.7603,-0.7603,-0.7447,-0.7217,-0.7136,-0.745,-0.7701,-0.7372,-0.7704,-0.823,-0.8765,-0.8263,-0.794,-0.8734,-0.8053,0.0,-0.8317,-0.8623,-0.8739,-0.86,-0.8819,-0.8797,-0.8233,-0.8898,-0.933,-0.911,-0.9318,-0.9275,-0.8719,-0.8496,0.0,0.0,0.0,-0.6815,-0.6407,-0.6504,0.0,0.0,0.0,0.0,0.0,0.0,0.0,0.0,-0.4934,-0.4715,0.0,0.0,0.0,0.0,0.0,0.0,0.0,0.0,0.0,0.0,0.0,0.0,0.0,0.0,0.0,0.0,-0.5963,-0.6286,-0.6832,-0.6923,-0.6984,-0.7105,-0.7493,-0.7699,-0.7611,-0.8,-0.8243,-0.8212,-0.8579,-0.8976,-0.9403,-0.9481,0.0,0.0,0.0,-0.9663,-0.9812,-0.9816,-0.9761,-0.9761,-0.9761,-0.9761,-0.9761,-0.9489,-0.9379,-0.9372,-0.8957,-0.8726,-0.8699,-0.8564,-0.8425,-0.8279,-0.8106,-0.7988,-0.7975,-0.7885,-0.7913,-0.7944,-0.7858,0.0,0.0,-0.8142,-0.8189,-0.8226,-0.8226,-0.8074,-0.7879,-0.7893,-0.7638,-0.7415,-0.7415,-0.7348,-0.7369,-0.7877,-0.8056,-0.851,-0.9917,-0.8913,-0.8024,-0.8897,-0.8238,-0.7543,-0.7642,-0.7822,-0.8006,-0.8006,-0.8473,-0.8548,-0.7675,-0.8233,-0.8654,-0.8511,-0.9087,0.0,-0.8324,-0.8048,-0.7744,-0.7364,-0.6945,-0.6762,-0.6849,-0.6878,-0.6884,-0.6854,-0.6854,-0.6969,-0.72,-0.72,-0.72,-0.717,-0.5954,-0.5511,0.0,0.0,0.0,0.0,0.0,0.0,0.0,0.0,0.0,0.0,0.0,0.0,0.0,0.0,0.0,-0.5905,-0.6377,-0.6792,-0.7021,-0.7207,-0.7295,-0.7322,-0.761,-0.7784,-0.7767,-0.8101,-0.8343,-0.8275,-0.8563,-0.8798,-0.9012,-0.9195,-0.9339,-0.9613,-0.9697,-0.9783,-0.9816,-0.9816,-0.9706,-0.9489,-0.9489,0.0,-0.9489,-0.9434,-0.9379,-0.9375,-0.9292,-0.9043,-0.871,-0.8679,-0.8577,-0.8414,-0.8143,-0.7988,-0.7985,-0.7958,-0.7887,-0.7851,-0.7821,-0.7811,-0.7842,-0.7773,-0.7794,-0.7911,-0.7911,-0.7784,0.0,-0.7784,-0.7624,-0.7415,-0.7415,-0.7834,-0.8053,-0.7453,-0.7884,-0.8442,-0.856,-0.8283,-0.8209,-0.8825,-0.826,-0.7838,-0.8388,-0.7858,-0.7375,-0.7375,-0.7385,-0.7254,-0.6864,-0.8025,-0.8782,-0.8517,-0.9087,-0.9428,-0.9247,-0.8527,-0.7943,-0.7648,-0.7129,-0.6949,-0.7122,-0.7328,-0.734,-0.7127,-0.7127,-0.7151,-0.72,-0.72,-0.72,-0.7194,-0.6714,-0.6526,0.0,0.0,0.0,0.0,0.0,0.0,0.0,0.0,0.0,0.0,0.0,-0.5118,-0.5386,0.0,-0.6152,-0.6485,-0.6738,-0.6991,-0.7329,-0.7438,-0.7512,-0.7584,-0.7723,-0.7841,-0.7919,-0.8089,-0.8253,-0.831,-0.8524,-0.8777,-0.9012,-0.9258,-0.9388,-0.9472,-0.9552,-0.9544,-0.9379,-0.9379,-0.9268,-0.9158,-0.9158,-0.9158,-0.9158,-0.9158,-0.9158,-0.9158,-0.9158,-0.9003,-0.8818,-0.8743,-0.8665,-0.8574,-0.835,-0.8218,-0.8147,-0.8019,-0.7941,-0.7877,-0.7877,-0.7875,-0.7814,-0.7818,-0.7818,-0.7824,-0.7902,-0.7875,-0.7834,-0.7857,-0.7763,-0.7577,-0.7506,-0.7734,-0.7815,-0.7245,-0.7445,-0.7906,-0.8214,-0.7873,-0.7697,-0.8374,-0.7761,-0.7173,-0.7435,-0.7064,-0.6897,-0.7308,-0.7224,-0.6897,-0.6268,-0.7099,-0.7808,-0.7927,-0.8592,-0.8856,-0.8463,-0.758,-0.6957,-0.6747,-0.7097,-0.7295,-0.7254,-0.7561,-0.7689,-0.7556,-0.7143,-0.7143,-0.7556,-0.7271,-0.7296,-0.755,-0.7418,-0.7212,0.0,0.0,0.0,0.0,0.0,0.0,0.0,0.0,-0.476,-0.5067,-0.5348,-0.5692,-0.6044,-0.6268,-0.6556,-0.7014,-0.7028,-0.7163,-0.7584,-0.7641,-0.7695,-0.7838,-0.7855,-0.7902,-0.7978,-0.8015,-0.8147,-0.8299,-0.8543,-0.8835,-0.9118,-0.9291,-0.9349,-0.932,-0.9323,-0.9158,-0.8885,-0.8885,-0.8885,-0.8885,-0.8885,-0.8885,-0.8885,-0.8885,-0.8885,-0.8885,-0.8885,-0.8885,-0.8875,-0.8804,-0.8754,-0.874,-0.8584,-0.8459,-0.8333,-0.815,-0.8015,-0.7988,-0.7988,-0.7911,-0.7872,-0.7914,-0.7913,-0.7834,-0.7907,-0.7944,-0.7951,-0.7982,-0.788,-0.7784,-0.7672,-0.7506,-0.7339,-0.7214,-0.7119,-0.7316,-0.8061,-0.757,-0.7136,-0.7731,-0.7152,-0.6511,-0.6364,-0.6317,-0.6528,-0.7176,-0.71,-0.6666,-0.5892,-0.6289,-0.686,-0.7433,-0.8098,-0.8213,-0.7456,-0.672,-0.6143,-0.5868,-0.6954,-0.7511,-0.7385,-0.7822,-0.8051,-0.8051,-0.7416,-0.741,-0.8051,-0.7636,-0.7636,-0.8051,-0.8051,-0.7796,-0.3578,-0.399,-0.4446,-0.4699,-0.4704,-0.4789,0.0,0.0,-0.5416,-0.5781,-0.604,-0.6252,-0.6429,-0.6661,-0.6873,-0.7065,-0.7241,-0.7431,-0.7743,-0.7787,-0.7845,-0.7944,-0.7965,-0.7971,-0.7988,-0.8163,-0.8303,-0.8445,-0.8637,-0.8787,-0.8903,-0.8968,-0.8975,-0.894,-0.894,-0.8937,-0.8885,-0.8885,-0.8885,-0.8885,-0.8885,-0.8885,-0.8885,-0.8885,-0.8885,-0.8885,-0.8885,-0.8885,-0.8881,-0.8865,-0.8858,-0.8844,-0.8743,-0.8676,-0.8628,-0.8347,-0.8157,-0.7988,-0.7988,-0.7978,-0.7944,-0.7875,-0.7824,-0.7814,-0.7831,-0.7838,-0.7865,-0.7951,-0.788,-0.7807,-0.779,-0.758,-0.7412,-0.735,-0.7241,-0.7139,-0.7228,-0.717,-0.7075,-0.7058,-0.6822,-0.6627,-0.6515,-0.6381,-0.6338,-0.6416,-0.6277,-0.6046,-0.582,-0.6429,-0.7092,-0.7677,-0.8299,-0.8322,-0.7466,-0.7298,-0.6874,-0.6025,-0.6737,-0.7328,-0.7645,-0.8282,-0.862,-0.862,-0.8532,-0.8532,-0.862,-0.8562,-0.8562,-0.862,-0.862,-0.8343,-0.4544,-0.4796,-0.4904,0.0,-0.5196,-0.5294,-0.5606,-0.5715,-0.583,-0.6105,-0.6424,-0.6668,-0.6725,-0.6983,-0.7234,0.0,-0.7461,-0.7607,-0.7902,-0.7868,-0.7834,-0.7899,-0.7934,-0.7988,-0.7988,-0.818,-0.8381,-0.8472,-0.8625,-0.8777,-0.8875,-0.8885,-0.8885,-0.8885,-0.8885,-0.8885,-0.8885,-0.8885,-0.8885,-0.8885,-0.8885,-0.8885,-0.8885,-0.8885,-0.8885,-0.8885,-0.8885,-0.8885,-0.8885,-0.8885,-0.8885,-0.8875,-0.8814,-0.8791,-0.8676,-0.8381,-0.8231,-0.816,-0.8022,-0.7988,-0.7978,-0.7917,-0.7894,-0.7894,-0.7894,-0.7894,-0.7907,-0.7971,-0.7944,-0.7874,-0.7834,-0.7719,-0.7584,-0.7456,-0.7322,-0.7251,-0.7115,-0.7095,-0.7055,-0.6913,-0.6836,-0.6756,-0.6555,-0.6463,-0.6395,-0.6313,-0.6129,-0.5969,-0.5942,-0.6107,-0.6486,-0.7031,-0.7316,-0.7304,-0.6843,-0.647,-0.6085,-0.569,-0.6686,-0.735,-0.7511,-0.8432,-0.8933,-0.8933,-0.8486,-0.8381,-0.871,-0.8381,-0.841,-0.871,-0.871,-0.859,-0.5058,-0.5216,0.0,-0.547,-0.5665,-0.5786,-0.5823,-0.603,-0.6261,-0.6413,-0.6705,-0.69,-0.6937,-0.7163,-0.7373,-0.7567,-0.76,-0.7702,-0.7948,-0.7909,-0.7811,-0.7811,-0.7875,-0.7884,-0.7924,-0.8157,-0.8381,-0.8472,-0.8625,-0.8777,-0.8875,-0.8885,-0.8885,-0.8885,-0.8885,-0.8902,-0.8998,-0.8998,-0.9018,-0.9062,-0.9062,-0.9039,-0.8994,-0.8902,-0.8885,-0.8885,-0.8885,-0.8885,-0.8885,-0.8885,-0.8885,-0.8885,-0.8885,-0.8814,-0.8743,-0.8486,-0.834,-0.8255,-0.8143,-0.8025,-0.7988,-0.7988,-0.7988,-0.7988,-0.7988,-0.7988,-0.7988,-0.7988,-0.7988,-0.7965,-0.7902,-0.7841,-0.7746,-0.7495,-0.7446,-0.7329,-0.7129,-0.7095,-0.7065,-0.6964,-0.6913,-0.6844,-0.658,-0.6542,-0.6463,-0.632,-0.6166,-0.6078,-0.5996,-0.6115,-0.632,-0.669,-0.6912,-0.6877,-0.6489,-0.5973,-0.5591,-0.5428,-0.6671,-0.7386,-0.7386,-0.8581,-0.9215,-0.9215,-0.8651,-0.8535,-0.8933,-0.8529,-0.8529,-0.8933,-0.8933,-0.8933,-0.491,0.0,-0.5457,-0.5715,-0.6054,-0.6317,-0.6453,-0.6566,-0.6722,-0.6832,-0.6876,-0.6927,-0.7065,-0.7098,-0.7203,-0.755,-0.76,-0.7702,-0.7948,-0.7909,-0.7811,-0.7811,-0.7692,-0.7665,0.0,-0.8092,-0.8381,-0.8472,-0.8625,-0.8777,-0.8875,-0.8885,-0.8885,-0.8885,-0.8885,-0.9005,-0.9204,-0.9204,-0.9279,-0.9367,-0.9367,-0.9289,-0.92,-0.9001,-0.8885,-0.8885,-0.8885,-0.8885,-0.8885,-0.8885,-0.8885,-0.8885,-0.8885,-0.8881,-0.8858,-0.8754,-0.8516,-0.8323,-0.8316,-0.8167,-0.7988,-0.7988,-0.7988,-0.7988,-0.7988,-0.7988,-0.7988,-0.7988,-0.7988,-0.7988,-0.7985,-0.7874,-0.7773,-0.7628,-0.7478,-0.7329,-0.7129,-0.7095,-0.7095,-0.7092,-0.6977,-0.6836,-0.6722,-0.6569,-0.6463,-0.632,-0.6296,-0.6238,-0.6013,-0.6689,-0.7122,-0.7077,-0.7682,-0.767,-0.668,-0.6468,-0.6108,-0.5428,-0.6671,-0.7386,-0.7386,-0.8753,-0.9504,-0.9504,-0.946,-0.946,-0.9492,-0.946,-0.946,-0.9492,-0.9492,-0.9492,-0.5256,0.0,-0.5854,-0.6095,-0.6332,-0.6566,-0.6614,-0.6742,-0.6837,-0.6787,-0.6858,-0.69,-0.6947,-0.7034,-0.7196,-0.755,-0.7678,-0.7811,-0.7961,-0.7944,-0.7889,-0.7695,-0.7801,0.0,0.0,0.0,0.0,-0.8465,-0.8625,-0.8777,-0.8875,-0.8885,-0.8885,-0.8885,-0.9032,-0.9103,-0.921,-0.9309,-0.933,-0.9381,-0.9381,-0.9357,-0.9207,-0.9103,-0.9028,-0.8885,-0.8885,-0.8885,-0.8885,-0.8885,-0.8885,-0.8885,-0.8885,-0.8885,-0.8875,-0.8824,-0.8733,-0.8533,-0.834,-0.8238,-0.8177,-0.8022,-0.7988,-0.7988,-0.7988,-0.7988,-0.7988,-0.7988,-0.7988,-0.7988,-0.7988,-0.7951,-0.7877,-0.7777,-0.7628,-0.7482,-0.7326,-0.7214,-0.7095,-0.7095,-0.7058,-0.6977,-0.6836,-0.6725,-0.6539,-0.6337,-0.63,-0.6279,-0.619,-0.6447,-0.6556,-0.6369,-0.657,-0.6501,-0.5984,-0.5877,-0.5734,-0.5435,-0.6239,-0.6728,-0.6728,-0.8102,-0.885,-0.885,-0.9285,-0.9516,-0.9516,-0.9516,-0.9516,-0.9516,-0.9516,-0.9516,-0.558,-0.5884,-0.6054,-0.6352,-0.6603,-0.678,-0.678,-0.6858,-0.6859,-0.6803,-0.6773,-0.6783,-0.6837,-0.6837,-0.6976,-0.7444,-0.755,-0.7631,-0.7944,-0.7941,-0.7889,-0.7699,-0.7797,-0.7828,0.0,0.0,0.0,-0.8455,-0.8574,-0.872,-0.8871,-0.8885,-0.8885,-0.8885,-0.9079,-0.9234,-0.9292,-0.9388,-0.949,-0.9537,-0.9486,-0.9412,-0.9313,-0.9258,-0.9103,-0.9011,-0.8905,-0.8885,-0.8885,-0.8885,-0.8885,-0.8885,-0.8885,-0.8885,-0.8885,-0.8885,-0.8821,-0.875,-0.8448,-0.8364,-0.8245,-0.8089,-0.7988,-0.7988,-0.7988,-0.7988,-0.7988,-0.7988,-0.7988,-0.7988,-0.7988,-0.7988,-0.7951,-0.7848,-0.7743,-0.7621,-0.746,-0.7292,-0.7207,-0.7105,-0.7095,-0.7051,-0.691,-0.6756,-0.6536,-0.6337,-0.63,-0.63,-0.63,-0.63,-0.6262,-0.6122,-0.6027,-0.5915,-0.5762,-0.565,-0.5549,-0.5484,-0.6043,-0.64,-0.64,-0.7512,-0.8226,-0.849,-0.892,-0.9253,-0.9516,-0.9516,-0.9516,-0.9516,-0.9516,-0.9516,-0.5848,-0.602,-0.6138,-0.6603,-0.6827,-0.6896,-0.6886,-0.6886,-0.6879,-0.6856,-0.6658,-0.6491,-0.6627,0.0,-0.6538,-0.7276,-0.7244,-0.7324,-0.7907,-0.7867,-0.7824,0.0,0.0,0.0,0.0,0.0,0.0,-0.8462,0.0,-0.8615,-0.8868,-0.8885,-0.8888,-0.8895,-0.9089,-0.9296,-0.9391,-0.9544,-0.9686,-0.9819,-0.9686,-0.9615,-0.9598,-0.93,-0.9217,-0.9204,-0.9001,-0.8885,-0.8885,-0.8885,-0.8885,-0.8885,-0.8885,-0.8885,-0.8885,-0.8885,-0.8885,-0.8841,-0.8598,-0.8408,-0.8265,-0.8102,-0.8002,-0.8002,-0.7992,-0.7988,-0.7988,-0.7988,-0.7988,-0.7988,-0.7988,-0.7988,-0.7955,-0.7858,-0.7818,-0.7733,-0.7455,-0.7429,-0.7329,-0.7136,-0.7102,-0.7051,-0.691,-0.6681,-0.6474,-0.633,-0.6306,-0.63,-0.63,-0.63,-0.63,-0.63,-0.6129,-0.6,-0.5993,-0.5772,-0.5606,-0.5593,-0.6078,-0.6342,-0.6334,-0.7027,-0.7712,-0.8393,-0.849,-0.885,-0.9452,-0.9484,-0.9516,-0.9516,-0.9516,-0.9516,-0.6101,-0.6444,-0.6687,-0.6802,-0.6937,-0.7014,-0.691,-0.6886,-0.6834,-0.6498,-0.6278,-0.6118,-0.6044,-0.6194,0.0,-0.6956,-0.7288,0.0,-0.7938,-0.7958,0.0,-0.7931,0.0,-0.8113,-0.815,-0.8248,0.0,0.0,-0.8547,-0.8615,-0.8868,-0.8885,-0.8988,-0.9096,-0.9245,-0.9398,-0.9551,-0.9693,-0.9785,-0.9822,-0.9785,-0.971,-0.9602,-0.9412,-0.9316,-0.9204,-0.9001,-0.8885,-0.8885,-0.8885,-0.8885,-0.8885,-0.8885,-0.8885,-0.8885,-0.8885,-0.8885,-0.8854,-0.872,-0.8628,-0.8557,-0.8296,-0.8211,-0.8191,-0.8025,-0.7988,-0.7988,-0.7988,-0.7988,-0.7988,-0.7988,-0.7988,-0.7978,-0.7941,-0.7892,-0.779,-0.7716,-0.7526,-0.7405,-0.7319,-0.7217,-0.7051,-0.691,-0.677,-0.659,-0.648,-0.6368,-0.63,-0.63,-0.63,-0.63,-0.63,-0.6265,-0.6156,-0.6003,-0.5925,-0.5823,-0.5603,-0.572,-0.5745,-0.566,-0.6765,-0.7251,-0.6953,-0.8463,-0.9081,-0.8753,-0.9253,-0.9516,-0.9516,-0.9516,-0.9516,-0.6474,-0.6736,-0.69,-0.6964,-0.6991,-0.6903,-0.6437,-0.6419,-0.6347,-0.5704,-0.5392,0.0,-0.5575,-0.5623,-0.5828,0.0,0.0,0.0,-0.784,-0.7948,-0.8015,0.0,-0.8218,0.0,-0.8357,-0.8435,-0.8547,0.0,-0.8632,-0.8686,-0.8871,-0.8998,-0.9069,-0.9207,-0.9367,-0.9551,-0.97,-0.9781,-0.9822,-0.9822,-0.9822,-0.9778,-0.9696,-0.9479,-0.9334,-0.9299,-0.9032,-0.8885,-0.8885,-0.8885,-0.8885,-0.8885,-0.8885,-0.8885,-0.8885,-0.8885,-0.8885,-0.8871,-0.8842,-0.8811,-0.876,-0.8462,-0.8374,-0.8255,-0.8167,-0.8092,-0.7988,-0.7988,-0.7988,-0.7988,-0.7988,-0.7988,-0.7988,-0.7988,-0.7924,-0.7892,-0.7824,-0.7631,-0.7431,-0.7295,-0.72,-0.7051,-0.691,-0.6858,-0.6725,-0.6545,-0.6446,-0.6371,-0.631,-0.63,-0.63,-0.63,-0.63,-0.6265,-0.6139,-0.6067,-0.5922,-0.5793,-0.5722,-0.5644,-0.5593,-0.6233,-0.6555,-0.6484,-0.7559,-0.8264,-0.849,-0.8882,-0.9215,-0.9516,-0.9516,-0.9516,-0.6603,-0.6724,-0.6721,-0.6731,-0.68,-0.6626,-0.5597,-0.5633,-0.5638,-0.4723,0.0,-0.4269,-0.4954,-0.4852,-0.5027,-0.6123,0.0,-0.723,-0.7746,-0.7877,-0.8082,-0.8275,-0.835,-0.8364,-0.8526,-0.8543,-0.8598,-0.873,-0.874,-0.8798,-0.8875,-0.9076,-0.9228,-0.9268,-0.949,-0.9696,-0.9819,-0.9822,-0.9822,-0.9822,-0.9822,-0.9822,-0.9812,-0.9513,-0.9381,-0.9364,-0.9069,-0.8885,-0.8885,-0.8885,-0.8885,-0.8885,-0.8885,-0.8885,-0.8885,-0.8885,-0.8885,-0.8885,-0.8885,-0.8885,-0.8838,-0.8604,-0.8428,-0.8323,-0.8333,-0.8177,-0.8015,-0.7995,-0.7988,-0.7988,-0.7988,-0.7988,-0.7988,-0.7988,-0.7988,-0.7955,-0.7872,-0.7712,-0.7516,-0.7183,-0.7109,-0.7058,-0.6933,-0.69,-0.6841,-0.6573,-0.6538,-0.6467,-0.6344,-0.6313,-0.63,-0.63,-0.63,-0.63,-0.63,-0.6139,-0.6013,-0.5993,-0.5905,-0.5823,-0.58,-0.579,-0.5995,-0.6502,-0.655,-0.7197,-0.8451,-0.8549,-0.8918,-0.9618,-0.9618,-0.9618,-0.5709,-0.5831,-0.5714,-0.4887,-0.5815,-0.6444,-0.4595,-0.4739,0.0,0.0,-0.3459,-0.3296,-0.332,-0.3977,-0.4723,-0.5239,0.0,0.0,0.0,0.0,-0.7997,0.0,0.0,-0.8554,-0.8832,-0.8804,0.0,0.0,-0.8844,-0.8854,-0.8881,-0.9076,-0.9326,-0.952,-0.9696,-0.9795,-0.9822,-0.9822,-0.9822,-0.9822,-0.9822,-0.9822,-0.9812,-0.9513,-0.9381,-0.9364,-0.9069,-0.8885,-0.8885,-0.8885,-0.8885,-0.8885,-0.8885,-0.8885,-0.8885,-0.8885,-0.8885,-0.8885,-0.8885,-0.8885,-0.8854,-0.873,-0.8655,-0.8587,-0.8343,-0.8252,-0.8204,-0.8025,-0.7988,-0.7988,-0.7988,-0.7988,-0.7988,-0.7988,-0.7988,-0.7982,-0.7958,-0.779,-0.7546,-0.7366,-0.7227,-0.7088,-0.7065,-0.6964,-0.6869,-0.6858,-0.6634,-0.6504,-0.6477,-0.6371,-0.63,-0.63,-0.63,-0.63,-0.63,-0.6276,-0.6166,-0.6,-0.5969,-0.5932,-0.5806,-0.635,-0.6438,-0.594,-0.707,-0.7822,-0.818,-0.8731,-0.9387,-1.016,-1.016,-1.016,-0.5333,-0.5231,-0.4844,-0.4348,-0.4806,-0.5018,-0.3501,0.0,0.0,0.0,-0.2488,-0.2508,-0.2754,0.0,0.0,0.0,0.0,0.0,0.0,0.0,0.0,0.0,0.0,0.0,0.0,-0.8885,-0.8885,-0.8885,-0.8885,-0.8885,-0.8885,-0.915,-0.9374,-0.9602,-0.9747,-0.9822,-0.9822,-0.9822,-0.9822,-0.9822,-0.9822,-0.9822,-0.9812,-0.9513,-0.9381,-0.9364,-0.9069,-0.8885,-0.8885,-0.8885,-0.8885,-0.8885,-0.8885,-0.8885,-0.8885,-0.8885,-0.8885,-0.8885,-0.8885,-0.8885,-0.8871,-0.8797,-0.8774,-0.8669,-0.8448,-0.8381,-0.8238,-0.8032,-0.7988,-0.7988,-0.7988,-0.7988,-0.7988,-0.7988,-0.7988,-0.7968,-0.7887,-0.7811,-0.7641,-0.746,-0.7312,-0.7234,-0.7109,-0.7041,-0.697,-0.6896,-0.6803,-0.6654,-0.6532,-0.6453,-0.6381,-0.6306,-0.63,-0.63,-0.63,-0.63,-0.6269,-0.6156,-0.6149,-0.6118,-0.6081,-0.6294,-0.6247,-0.5922,-0.6486,-0.7011,-0.7477,-0.7792,-0.8534,-0.9695,-0.9695,-0.9904,-0.4689,-0.4485,-0.3953,-0.3635,-0.3808,-0.3678,-0.2467,-0.2612,0.0,0.0,-0.1595,-0.1762,-0.2235,0.0,-0.275,0.0,-0.4615,0.0,0.0,0.0,0.0,0.0,0.0,0.0,0.0,-0.8754,0.0,-0.8885,-0.8885,-0.8898,-0.8984,-0.9205,-0.9418,-0.9605,-0.9717,-0.9791,-0.9822,-0.9822,-0.9822,-0.9822,-0.9822,-0.9805,-0.9768,-0.9503,-0.9364,-0.9317,-0.9052,-0.8885,-0.8885,-0.8885,-0.8885,-0.8885,-0.8885,-0.8885,-0.8885,-0.8885,-0.8885,-0.8885,-0.8885,-0.8885,-0.8885,-0.8885,-0.8804,-0.8723,-0.8537,-0.8404,-0.8279,-0.8042,-0.7988,-0.7988,-0.7988,-0.7988,-0.7988,-0.7988,-0.7988,-0.7958,-0.7885,-0.7834,-0.7743,-0.7509,-0.746,-0.7333,-0.721,-0.7119,-0.7058,-0.6947,-0.6906,-0.6844,-0.66,-0.6579,-0.6504,-0.6361,-0.6317,-0.63,-0.63,-0.63,-0.63,-0.63,-0.63,-0.63,-0.63,-0.6142,-0.6078,-0.6078,-0.5962,-0.6262,-0.7029,-0.7207,-0.796,-0.928,-0.9458,-0.9854,-0.2974,-0.304,-0.2795,-0.1792,-0.2774,-0.3512,-0.1639,0.0,0.0,-0.1174,-0.0981,-0.1009,-0.1065,-0.159,-0.2196,-0.2617,0.0,-0.4356,0.0,0.0,0.0,0.0,0.0,0.0,0.0,-0.8249,-0.8885,-0.8885,-0.8885,-0.8994,-0.9183,-0.9217,-0.9306,-0.9602,-0.9622,-0.969,-0.9819,-0.9822,-0.9822,-0.9822,-0.9822,-0.9754,-0.9625,-0.9456,-0.9306,-0.9221,-0.9008,-0.8885,-0.8885,-0.8885,-0.8885,-0.8885,-0.8885,-0.8885,-0.8885,-0.8885,-0.8885,-0.8885,-0.8885,-0.8885,-0.8885,-0.8885,-0.8875,-0.8807,-0.857,-0.8472,-0.8404,-0.8069,-0.7988,-0.7988,-0.7988,-0.7988,-0.7988,-0.7988,-0.7988,-0.7985,-0.7971,-0.7909,-0.7801,-0.7777,-0.7553,-0.7412,-0.7398,-0.7234,-0.7092,-0.7078,-0.6967,-0.6876,-0.6849,-0.6766,-0.662,-0.6508,-0.6378,-0.63,-0.63,-0.63,-0.63,-0.63,-0.63,-0.63,-0.63,-0.6286,-0.6279,-0.6279,-0.6265,-0.6639,-0.7435,-0.8192,-0.8982,-0.9852,-1.0593,-1.0965,-0.2358,-0.2228,-0.1849,-0.1396,-0.1842,-0.2167,-0.128,0.0,-0.1415,-0.0973,-0.0898,-0.0898,-0.0898,-0.1133,-0.1553,-0.2145,-0.2538,-0.3186,-0.4516,0.0,0.0,0.0,0.0,0.0,0.0,0.0,-0.7091,-0.7765,-0.8494,-0.8908,-0.9022,-0.9106,-0.9265,-0.933,-0.9513,-0.9635,-0.9693,-0.9778,-0.9822,-0.9819,-0.9734,-0.9663,-0.9602,-0.9354,-0.9268,-0.9204,-0.9001,-0.8885,-0.8885,-0.8885,-0.8885,-0.8885,-0.8885,-0.8885,-0.8885,-0.8885,-0.8885,-0.8885,-0.8885,-0.8885,-0.8885,-0.8885,-0.8821,-0.876,-0.8547,-0.8421,-0.8309,-0.8049,-0.7988,-0.7988,-0.7988,-0.7988,-0.7988,-0.7988,-0.7988,-0.7988,-0.7988,-0.7941,-0.7874,-0.7828,-0.7716,-0.758,-0.7446,-0.7319,-0.7248,-0.7109,-0.7048,-0.698,-0.6896,-0.6832,-0.6746,-0.6538,-0.646,-0.6395,-0.6306,-0.63,-0.63,-0.63,-0.63,-0.63,-0.63,-0.63,-0.63,-0.63,-0.63,-0.6683,-0.7484,-0.7825,-0.8623,-0.9922,-1.0218,-1.0625,-0.1751,-0.1582,-0.1219,-0.1295,-0.1288,-0.1252,0.0,-0.1047,-0.0966,-0.0858,-0.087,-0.0898,-0.0842,-0.087,-0.1085,-0.1658,-0.1761,-0.2195,-0.3341,0.0,0.0,0.0,0.0,-0.4646,0.0,-0.5115,-0.5753,-0.6536,-0.7371,-0.7986,-0.8325,-0.8186,-0.8423,-0.915,-0.9361,-0.9496,-0.954,-0.9642,-0.969,-0.969,-0.9591,-0.9517,-0.9466,-0.9309,-0.9187,-0.9083,-0.8984,-0.8885,-0.8885,-0.8885,-0.8885,-0.8885,-0.8885,-0.8885,-0.8885,-0.8885,-0.8885,-0.8885,-0.8885,-0.8885,-0.8885,-0.8885,-0.8804,-0.8621,-0.8516,-0.8384,-0.8238,-0.8032,-0.7988,-0.7988,-0.7988,-0.7988,-0.7988,-0.7988,-0.7988,-0.7988,-0.7988,-0.7988,-0.7958,-0.7899,-0.7841,-0.7746,-0.7536,-0.7477,-0.7333,-0.7224,-0.7125,-0.7061,-0.696,-0.6947,-0.6892,-0.6634,-0.6566,-0.6504,-0.6317,-0.63,-0.63,-0.63,-0.63,-0.63,-0.63,-0.63,-0.63,-0.63,-0.63,-0.6567,-0.7142,-0.7369,-0.8208,-0.9539,-0.9809,-1.0331,-0.0976,-0.1017,-0.1047,-0.127,-0.1257,-0.1188,0.0,-0.1063,-0.0941,-0.0739,-0.0813,-0.087,-0.0729,-0.0813,-0.0907,-0.0909,-0.0963,-0.1377,-0.2461,-0.1853,0.0,0.0,0.0,-0.3432,-0.3408,-0.4611,-0.5417,-0.5417,-0.5417,0.0,-0.7041,-0.6033,-0.658,-0.9147,-0.9214,-0.9286,-0.9384,-0.9384,-0.9388,-0.9388,-0.9384,-0.9361,-0.9214,-0.921,-0.9076,-0.8885,-0.8885,-0.8885,-0.8885,-0.8885,-0.8885,-0.8885,-0.8885,-0.8885,-0.8885,-0.8885,-0.8885,-0.8885,-0.8885,-0.8885,-0.8885,-0.8885,-0.8733,-0.8482,-0.8482,-0.8384,-0.8238,-0.8032,-0.7988,-0.7988,-0.7988,-0.7988,-0.7988,-0.7988,-0.7988,-0.7988,-0.7988,-0.7988,-0.7988,-0.7988,-0.7916,-0.7811,-0.7807,-0.7563,-0.7415,-0.7415,-0.7238,-0.7095,-0.7095,-0.7095,-0.7041,-0.6896,-0.679,-0.658,-0.6323,-0.63,-0.63,-0.63,-0.63,-0.63,-0.63,-0.63,-0.63,-0.63,-0.63,-0.63,-0.63,-0.7103,-0.7902,-0.8737,-0.9539,-1.0331,-0.0578,-0.0663,-0.0744,-0.0849,-0.085,-0.0774,-0.0706,-0.0677,-0.0621,-0.0509,-0.0645,-0.0757,-0.0701,-0.0813,-0.0921,-0.0962,-0.0989,0.0,0.0,0.0,0.0,0.0,0.0,-0.2264,0.0,0.0,-0.4193,-0.4193,-0.4916,-0.5584,-0.5919,-0.5584,-0.6102,-0.7712,-0.7906,-0.7971,-0.8015,-0.8104,-0.8151,-0.8148,-0.8057,-0.7589,-0.6808,-0.8314,-0.8533,-0.7709,-0.8546,-0.8885,-0.8885,-0.8885,-0.8885,-0.8885,-0.8885,-0.8885,-0.8885,-0.8885,-0.8885,-0.8885,-0.8885,-0.8885,-0.8885,-0.8885,-0.873,-0.8482,-0.8482,-0.8309,-0.8102,-0.8005,-0.7988,-0.7988,-0.7988,-0.7988,-0.7988,-0.7988,-0.7988,-0.7988,-0.7988,-0.7988,-0.7988,-0.7988,-0.7951,-0.7884,-0.7828,-0.7733,-0.7604,-0.7446,-0.7329,-0.7258,-0.7109,-0.7095,-0.7041,-0.6903,-0.6842,-0.6732,-0.647,-0.6358,-0.63,-0.63,-0.63,-0.63,-0.63,-0.63,-0.63,-0.63,-0.63,-0.6567,-0.7138,-0.7369,-0.8208,-0.9539,-0.9765,-1.0331,0.0,-0.0411,-0.0518,-0.0622,-0.0635,-0.0577,-0.0528,-0.0512,-0.0467,-0.0339,-0.0477,-0.0561,-0.0533,-0.0673,-0.083,-0.0882,-0.0939,-0.1054,0.0,0.0,0.0,0.0,0.0,0.0,0.0,-0.2447,-0.2912,-0.2912,-0.3636,-0.4249,-0.4693,-0.4305,-0.4583,-0.5757,-0.6317,-0.6633,-0.6633,-0.6702,-0.6794,-0.6794,-0.6665,-0.6238,-0.5558,-0.6956,-0.7149,-0.6536,-0.7709,-0.8214,0.0,-0.8716,-0.8885,-0.8885,-0.8885,-0.8885,-0.8885,-0.8885,-0.8885,-0.8885,-0.8885,-0.8885,-0.8875,-0.8817,-0.8648,-0.8391,-0.8333,-0.8187,-0.7988,-0.7988,-0.7988,-0.7988,-0.7988,-0.7988,-0.7988,-0.7988,-0.7988,-0.7988,-0.7988,-0.7988,-0.7988,-0.7988,-0.7988,-0.7961,-0.7913,-0.7848,-0.7729,-0.7492,-0.7453,-0.7316,-0.7115,-0.7095,-0.7061,-0.6974,-0.6916,-0.6851,-0.6661,-0.6497,-0.6358,-0.6303,-0.63,-0.63,-0.63,-0.63,-0.63,-0.63,-0.63,-0.6528,-0.7065,-0.7369,-0.8016,-0.9003,-0.9614,-1.018,0.0,-0.0294,-0.0334,-0.05,-0.0555,-0.054,-0.0494,-0.045,0.0,-0.0226,-0.028,-0.0337,-0.0226,-0.045,-0.0675,-0.0712,-0.0869,-0.1027,0.0,0.0,0.0,0.0,-0.1682,0.0,-0.1707,-0.1762,-0.1795,-0.1795,-0.1795,-0.2298,-0.3413,-0.2409,-0.2297,-0.3413,-0.4582,-0.5194,-0.525,-0.525,-0.525,-0.525,-0.525,-0.525,-0.5139,-0.5306,-0.5361,-0.5361,-0.648,-0.6985,-0.7041,-0.8211,-0.8716,-0.8771,-0.8771,-0.8826,-0.8885,-0.8885,-0.8885,-0.8885,-0.8885,-0.8885,-0.8858,-0.8747,-0.8509,-0.8255,-0.8039,-0.7988,-0.7988,-0.7988,-0.7988,-0.7988,-0.7988,-0.7998,-0.8005,-0.7992,-0.7998,-0.8005,-0.7992,-0.7988,-0.7988,-0.7988,-0.7988,-0.7988,-0.7988,-0.7874,-0.778,-0.7638,-0.7495,-0.7343,-0.7132,-0.7112,-0.7109,-0.7098,-0.6977,-0.6896,-0.6886,-0.6647,-0.6457,-0.6323,-0.6306,-0.63,-0.63,-0.63,-0.63,-0.63,-0.63,-0.63,-0.63,-0.7065,-0.7446,-0.7522,-0.9084,-0.9841,-0.0055,0.0,-0.0091,-0.0118,-0.0146,-0.0145,0.0,-0.0114,-0.0113,-0.0056,0.0,-0.0228,-0.021,-0.0348,-0.0526,-0.0755,-0.0863,-0.1001,-0.1241,0.0,0.0,-0.1657,-0.1686,-0.1715,-0.1768,-0.1787,-0.1795,-0.1795,-0.1795,-0.1907,-0.2186,-0.1963,-0.1907,-0.2242,-0.2521,-0.3079,-0.4026,-0.4026,-0.4026,-0.4026,-0.4026,-0.3525,-0.2688,-0.4582,-0.4916,-0.4081,-0.5308,-0.5808,-0.5808,-0.6086,-0.6758,-0.7543,-0.7543,-0.81,-0.8885,-0.8885,-0.8885,-0.8885,-0.8885,-0.8885,-0.8841,-0.8625,-0.8489,-0.8384,-0.8069,-0.7988,-0.7988,-0.7988,-0.7988,-0.7988,-0.7988,-0.8126,-0.8187,-0.8019,-0.813,-0.8184,-0.8015,-0.7988,-0.7988,-0.7988,-0.7988,-0.7988,-0.7988,-0.7961,-0.7884,-0.7784,-0.7729,-0.7614,-0.7353,-0.7316,-0.7272,-0.7109,-0.7065,-0.7004,-0.6896,-0.6647,-0.6497,-0.6463,-0.6361,-0.63,-0.63,-0.63,-0.63,-0.63,-0.63,-0.63,-0.63,-0.649,-0.6911,-0.7518,-0.8513,-0.9311,0.0,0.0,0.0,0.0,0.0,0.0,0.0,0.0,0.0,0.0,0.0,-0.0113,-0.0118,-0.0291,-0.0504,-0.0653,-0.0845,0.0,0.0,0.0,0.0,-0.1671,-0.1697,-0.1722,0.0,-0.1787,-0.1795,-0.1795,-0.1795,-0.1795,-0.1795,-0.1795,-0.1795,-0.1795,-0.1795,-0.213,-0.2744,-0.28,-0.28,-0.28,-0.28,-0.2409,-0.1851,-0.3135,-0.3413,-0.2856,-0.4026,-0.4582,-0.4637,-0.5194,-0.6089,-0.7096,-0.7096,-0.7823,-0.8885,-0.8885,-0.8885,-0.8885,-0.8885,-0.8838,-0.8794,-0.856,-0.8438,-0.8343,-0.8059,-0.7988,-0.7988,-0.7988,-0.7988,-0.7988,-0.7988,-0.8102,-0.8143,-0.8008,-0.8102,-0.814,-0.8008,-0.7988,-0.7988,-0.7988,-0.7988,-0.7988,-0.7988,-0.7988,-0.7938,-0.7834,-0.7811,-0.7702,-0.7456,-0.7415,-0.7312,-0.7112,-0.7095,-0.7065,-0.6991,-0.6814,-0.6651,-0.658,-0.6477,-0.6399,-0.6399,-0.6334,-0.63,-0.63,-0.63,-0.63,-0.63,-0.63,-0.6528,-0.6988,-0.7787,-0.8589,0.0,0.0,0.0,0.0,0.0,0.0,0.0,0.0,0.0,0.0,0.0,0.0,0.0,-0.0235,0.0,0.0,0.0,0.0,-0.1372,-0.1472,-0.1584,-0.17,-0.1683,0.0,-0.1794,-0.1766,-0.1781,-0.1781,-0.1781,-0.1783,-0.1788,-0.1788,-0.179,-0.1795,-0.1795,-0.1795,-0.1795,-0.1795,-0.1795,-0.1795,-0.1795,-0.1795,-0.1795,-0.1795,-0.1795,-0.1851,-0.2856,-0.3301,-0.3413,-0.4416,-0.5641,-0.6818,-0.6818,-0.7709,-0.8885,-0.8885,-0.8885,-0.8885,-0.8885,-0.8838,-0.8686,-0.853,-0.8387,-0.8241,-0.8085,-0.7988,-0.7988,-0.7988,-0.7988,-0.7988,-0.7988,-0.8008,-0.8019,-0.7995,-0.8008,-0.8019,-0.7995,-0.7988,-0.7988,-0.7988,-0.7988,-0.7988,-0.7988,-0.7988,-0.7944,-0.7865,-0.7845,-0.7746,-0.7475,-0.7438,-0.737,-0.7149,-0.7132,-0.7122,-0.7098,-0.6987,-0.6862,-0.6776,-0.6603,-0.6538,-0.6515,-0.6399,-0.6323,-0.63,-0.63,-0.63,-0.63,-0.63,-0.63,-0.63,-0.7138,-0.7863,0.0,0.0,0.0,0.0,0.0,0.0,0.0,0.0,0.0,0.0,0.0,0.0,0.0,-0.0032,-0.0132,0.0,0.0,-0.1121,0.0,0.0,-0.1633,-0.1705,0.0,-0.168,-0.1708,-0.1715,-0.1718,-0.1718,-0.1718,-0.1729,-0.181,-0.1811,-0.1823,-0.1794,-0.1795,-0.1795,-0.1795,-0.1795,-0.1795,-0.1795,-0.1795,-0.1795,-0.1795,-0.1795,-0.1795,-0.1795,-0.2019,-0.2074,-0.2074,-0.2298,-0.3636,-0.5639,-0.5639,-0.698,-0.8885,-0.8885,-0.8885,-0.8885,-0.8885,-0.8838,-0.8686,-0.853,-0.8387,-0.8241,-0.8085,-0.7988,-0.7988,-0.7988,-0.7988,-0.7988,-0.7988,-0.8136,-0.8201,-0.8022,-0.814,-0.8201,-0.8019,-0.7988,-0.7988,-0.7988,-0.7988,-0.7988,-0.7988,-0.7988,-0.7982,-0.7958,-0.7955,-0.7891,-0.7767,-0.7743,-0.7638,-0.7366,-0.7336,-0.7282,-0.7105,-0.7078,-0.7055,-0.7031,-0.6817,-0.6607,-0.6518,-0.6491,-0.6422,-0.6303,-0.63,-0.63,-0.63,-0.63,-0.63,-0.63,-0.7138,-0.7557,0.0,0.0,0.0,0.0,0.0,0.0,0.0,0.0,0.0,0.0,0.0,0.0,0.0,0.0,-0.0459,-0.0842,0.0,-0.1307,-0.1519,-0.1602,-0.1588,0.0,0.0,-0.1719,-0.168,-0.1695,-0.1704,-0.1704,-0.1704,-0.171,-0.1725,-0.1725,-0.1731,-0.1746,-0.1746,-0.1746,-0.1746,-0.1762,-0.1778,-0.1795,-0.1795,-0.1795,-0.1795,-0.1795,-0.1795,-0.1795,-0.1795,-0.1795,-0.1795,-0.1795,-0.2856,-0.447,-0.5139,-0.6422,-0.7989,-0.866,-0.8885,-0.8885,-0.8885,-0.8838,-0.8794,-0.856,-0.8438,-0.834,-0.8059,-0.7988,-0.7988,-0.7988,-0.7988,-0.7988,-0.7988,-0.8092,-0.813,-0.8008,-0.8096,-0.8126,-0.8005,-0.7988,-0.7988,-0.7988,-0.7988,-0.7988,-0.7988,-0.7988,-0.7988,-0.7988,-0.7988,-0.7934,-0.7831,-0.7811,-0.7729,-0.7516,-0.7495,-0.7431,-0.7278,-0.7265,-0.7197,-0.6994,-0.6856,-0.6756,-0.6603,-0.6555,-0.648,-0.6416,-0.6337,-0.63,-0.63,-0.63,-0.63,-0.63,-0.6683,-0.7099,0.0,0.0,0.0,0.0,0.0,0.0,0.0,0.0,0.0,0.0,0.0,0.0,0.0,-0.0245,0.0,-0.1074,-0.1208,-0.1298,-0.1463,-0.1578,-0.1591,-0.1614,-0.1637,-0.1652,-0.1652,-0.1671,-0.1684,-0.1684,-0.1684,-0.1686,-0.1694,-0.1695,-0.1697,-0.1704,-0.1704,-0.1704,-0.1704,-0.1727,-0.1809,-0.1785,-0.1785,-0.1785,-0.1784,-0.1777,-0.1774,-0.1774,-0.1774,-0.1774,-0.1774,-0.1774,-0.2497,-0.367,-0.4611,-0.5678,-0.6871,-0.8045,-0.8491,-0.8491,-0.8826,-0.8861,-0.8842,-0.857,-0.8459,-0.8384,-0.8069,-0.7988,-0.7988,-0.7988,-0.7988,-0.7988,-0.7988,-0.7988,-0.7988,-0.7988,-0.7988,-0.7988,-0.7988,-0.7988,-0.7988,-0.7988,-0.7988,-0.7988,-0.7988,-0.7988,-0.7988,-0.7988,-0.7988,-0.7948,-0.7879,-0.7865,-0.7811,-0.7665,-0.7648,-0.7573,-0.7433,-0.7415,-0.7261,-0.6953,-0.6933,-0.6869,-0.6759,-0.6641,-0.6563,-0.6566,-0.646,-0.6385,-0.6351,-0.6351,-0.6351,-0.6351,-0.6351,-0.6677,0.0,0.0,0.0,0.0,0.0,0.0,0.0,0.0,0.0,0.0,0.0,0.0,0.0,-0.0038,-0.0124,-0.0443,-0.0694,-0.0957,-0.1175,0.0,-0.1614,-0.1616,-0.1619,-0.162,-0.162,-0.1622,-0.1623,-0.1623,-0.1623,-0.1635,-0.1716,-0.1717,-0.1677,-0.1703,-0.1704,-0.1704,-0.1704,-0.1706,-0.1722,-0.1807,-0.1807,-0.1807,-0.1807,-0.1724,-0.1711,-0.1711,-0.1711,-0.1711,-0.1711,-0.1711,-0.2426,-0.3496,-0.3605,-0.4409,-0.5639,-0.6816,-0.721,-0.7376,-0.8491,-0.8845,-0.8699,-0.8533,-0.8391,-0.8255,-0.8039,-0.7988,-0.7988,-0.7988,-0.7988,-0.7988,-0.7988,-0.7988,-0.7988,-0.7988,-0.7988,-0.7988,-0.7988,-0.7988,-0.7988,-0.7988,-0.7988,-0.7988,-0.7988,-0.7988,-0.7988,-0.7988,-0.7988,-0.7985,-0.7975,-0.7975,-0.7914,-0.7814,-0.7794,-0.7682,-0.7443,-0.7415,-0.7299,-0.7092,-0.7082,-0.7018,-0.6876,-0.6859,-0.6827,-0.6685,-0.6675,-0.66,-0.6497,-0.6497,-0.6497,-0.6497,-0.6497,-0.6573,0.0,0.0,0.0,0.0,0.0,0.0,0.0,0.0,0.0,0.0,0.0,0.0,0.0,0.0,-0.0345,-0.059,-0.0749,-0.082,-0.0946,-0.1056,-0.1162,-0.1314,-0.1364,-0.1364,-0.1364,-0.1516,-0.1516,-0.1364,-0.1516,-0.1622,-0.1633,-0.1634,-0.1639,-0.165,-0.165,-0.165,-0.165,-0.1669,-0.1736,-0.1748,-0.1713,-0.1721,-0.1721,-0.171,-0.1704,-0.1704,-0.1704,-0.1704,-0.1704,-0.1704,-0.1977,-0.2472,-0.3223,-0.4231,-0.5393,-0.5834,-0.598,-0.62,-0.7374,-0.7679,-0.7708,-0.8319,-0.8387,-0.8241,-0.8085,-0.7988,-0.7988,-0.7988,-0.7988,-0.7988,-0.7988,-0.7988,-0.7988,-0.7988,-0.7988,-0.7988,-0.7988,-0.7988,-0.7988,-0.7988,-0.7988,-0.7988,-0.7988,-0.7988,-0.7988,-0.7988,-0.7988,-0.7988,-0.7988,-0.7988,-0.7968,-0.7911,-0.7868,-0.7767,-0.7655,-0.7478,-0.7346,-0.7288,-0.7149,-0.7071,-0.7018,-0.6933,-0.6859,-0.6844,-0.6749,-0.6671,-0.6614,-0.6614,-0.6614,-0.6614,-0.6614,-0.6647,0.0,0.0,0.0,0.0,0.0,0.0,0.0,0.0,0.0,0.0,0.0,-0.0041,-0.0249,0.0,0.0,0.0,-0.0609,-0.0675,-0.0698,-0.0755,-0.0859,-0.1061,-0.1061,-0.1061,-0.1061,-0.1263,-0.1263,-0.1111,-0.1263,-0.1364,-0.1364,-0.1364,-0.1364,-0.1465,-0.1465,-0.1516,-0.1617,-0.1637,-0.1648,-0.1648,-0.1667,-0.1682,-0.169,-0.1681,-0.1677,-0.1677,-0.1677,-0.1677,-0.1677,-0.1677,-0.1682,-0.1797,-0.2602,-0.3429,-0.4223,-0.4571,-0.4762,-0.4954,-0.6143,-0.6468,-0.6572,-0.7614,-0.7875,-0.7824,-0.7935,-0.7988,-0.7988,-0.7988,-0.7988,-0.7988,-0.7988,-0.7988,-0.7988,-0.7988,-0.7988,-0.7988,-0.7988,-0.7988,-0.8005,-0.8102,-0.8113,-0.8113,-0.8113,-0.8113,-0.8096,-0.7995,-0.7988,-0.7988,-0.7988,-0.7988,-0.7988,-0.7988,-0.7897,-0.7865,-0.7814,-0.7628,-0.7468,-0.7422,-0.7272,-0.7146,-0.7098,-0.7004,-0.6953,-0.6953,-0.6892,-0.6817,-0.6773,-0.6773,-0.6773,-0.6773,-0.6773,-0.6797,0.0,0.0,0.0,0.0,0.0,0.0,0.0,0.0,0.0,0.0,0.0,0.0,0.0,0.0,0.0,0.0,-0.0232,-0.0384,-0.0392,-0.0649,-0.0808,-0.0808,-0.0808,-0.0808,-0.0808,-0.0808,-0.0808,-0.0808,-0.0808,-0.0808,-0.0808,-0.0808,-0.0909,-0.1212,-0.1212,-0.1314,-0.1566,-0.1617,-0.1617,-0.1617,-0.1617,-0.1633,-0.1713,-0.163,-0.1617,-0.1617,-0.1617,-0.1617,-0.1617,-0.1617,-0.1635,-0.1717,-0.1692,-0.1703,-0.1867,-0.3035,-0.3508,-0.368,-0.488,-0.5283,-0.5453,-0.6388,-0.6659,-0.6842,-0.7729,-0.7988,-0.7988,-0.7988,-0.7988,-0.7988,-0.7988,-0.7988,-0.7988,-0.7988,-0.7988,-0.7988,-0.7988,-0.7988,-0.8035,-0.8238,-0.832,-0.8323,-0.8323,-0.8323,-0.8221,-0.8015,-0.7992,-0.7992,-0.7988,-0.7988,-0.7988,-0.7988,-0.7988,-0.7928,-0.7828,-0.7811,-0.7685,-0.7439,-0.7419,-0.7302,-0.7102,-0.7095,-0.7095,-0.7095,-0.7095,-0.7028,-0.6886,-0.6886,-0.6886,-0.6886,-0.6886,-0.6964,0.0,0.0,0.0,0.0,0.0,0.0,0.0,0.0,0.0,0.0,0.0,0.0,0.0,0.0,0.0,0.0,-0.0046,-0.0142,-0.0098,-0.0197,-0.0298,-0.0504,-0.0505,-0.0505,-0.0505,-0.0707,-0.0707,-0.0556,-0.0707,-0.0808,-0.0808,-0.0808,-0.0859,-0.0909,-0.0909,-0.096,-0.1061,-0.1061,-0.1061,-0.1061,-0.1061,-0.1267,-0.163,-0.1621,-0.1617,-0.1617,-0.1617,-0.1617,-0.1617,-0.1617,-0.1622,-0.1631,-0.1639,-0.1656,-0.1728,-0.2104,-0.2223,-0.2397,-0.3639,-0.3973,-0.4065,-0.5229,-0.5479,-0.5567,-0.6545,-0.6886,-0.7036,-0.7789,-0.7988,-0.7988,-0.7988,-0.7988,-0.7988,-0.7988,-0.7988,-0.7988,-0.7988,-0.7988,-0.8005,-0.8099,-0.8197,-0.8323,-0.8323,-0.8353,-0.837,-0.8225,-0.8201,-0.8163,-0.8005,-0.7988,-0.7988,-0.7988,-0.7988,-0.7971,-0.7928,-0.7872,-0.7773,-0.7685,-0.7587,-0.7414,-0.7105,-0.7095,-0.7095,-0.7095,-0.7095,-0.7075,-0.7034,-0.7034,-0.7034,-0.7034,-0.7034,-0.7055,0.0,0.0,0.0,0.0,0.0,0.0,0.0,0.0,0.0,0.0,0.0,0.0,0.0,0.0,0.0,0.0,0.0,0.0,0.0,0.0,-0.0049,-0.02,-0.0251,-0.0253,-0.0253,-0.0404,-0.0404,-0.0253,-0.0404,-0.0505,-0.0505,-0.0505,-0.0556,-0.0657,-0.0657,-0.0707,-0.0808,-0.0808,-0.0808,-0.0808,-0.0808,-0.096,-0.1263,-0.1415,-0.1465,-0.1465,-0.1566,-0.1516,-0.1465,-0.1566,-0.1516,-0.1465,-0.1566,-0.1628,-0.1646,-0.171,-0.1665,-0.1776,-0.2524,-0.2708,-0.282,-0.3992,-0.4264,-0.4375,-0.5429,-0.5779,-0.5982,-0.7086,-0.7388,-0.7437,-0.7889,-0.7988,-0.7988,-0.7988,-0.7988,-0.7988,-0.7988,-0.7988,-0.8008,-0.8119,-0.8208,-0.8323,-0.8323,-0.8387,-0.8435,-0.8344,-0.8323,-0.8214,-0.8008,-0.7988,-0.7988,-0.7988,-0.7988,-0.7988,-0.7988,-0.7907,-0.7875,-0.7814,-0.7729,-0.7573,-0.7287,-0.7265,-0.7204,-0.7098,-0.7095,-0.7095,-0.7095,-0.7095,-0.7095,-0.7095,-0.7095,-0.7095,0.0,0.0,0.0,0.0,0.0,0.0,0.0,0.0,0.0,0.0,0.0,0.0,0.0,0.0,0.0,0.0,0.0,0.0,0.0,0.0,0.0,0.0,0.0,0.0,0.0,0.0,0.0,0.0,0.0,0.0,0.0,0.0,-0.0101,-0.0354,-0.0354,-0.0505,-0.0707,-0.0707,-0.0707,-0.0707,-0.0707,-0.0707,-0.0758,-0.101,-0.1162,-0.1162,-0.1415,-0.1364,-0.1162,-0.1415,-0.1364,-0.1212,-0.1415,-0.1516,-0.1519,-0.1597,-0.1589,-0.1519,-0.1649,-0.164,-0.1717,-0.2723,-0.3074,-0.3274,-0.4325,-0.4674,-0.4874,-0.5932,-0.6334,-0.6637,-0.7587,-0.7939,-0.7988,-0.7988,-0.7988,-0.7988,-0.7988,-0.7988,-0.8029,-0.8221,-0.8262,-0.8323,-0.8323,-0.8387,-0.8435,-0.8241,-0.8207,-0.8147,-0.7959,-0.7939,-0.7942,-0.7942,-0.7942,-0.7992,-0.7988,-0.7988,-0.7931,-0.7841,-0.7831,-0.7767,-0.7624,-0.7472,-0.7326,-0.7139,-0.7139,-0.7132,-0.7119,-0.7119,-0.7109,-0.7095,-0.7095,-0.7095,0.0,0.0,0.0,0.0,0.0,0.0,0.0,0.0,0.0,0.0,0.0,0.0,0.0,0.0,0.0,0.0,0.0,0.0,0.0,0.0,0.0,0.0,0.0,0.0,0.0,0.0,0.0,0.0,0.0,0.0,0.0,0.0,-0.0051,-0.0101,-0.0101,-0.0101,-0.0152,-0.0152,-0.0152,-0.0152,-0.0152,-0.0152,-0.0202,-0.0657,-0.0909,-0.0909,-0.096,-0.096,-0.0909,-0.096,-0.096,-0.0909,-0.096,-0.096,-0.096,-0.0964,-0.0963,-0.1011,-0.1218,-0.1318,-0.1364,-0.1818,-0.1969,-0.212,-0.3224,-0.3524,-0.3775,-0.4826,-0.5729,-0.6437,-0.6686,-0.7388,-0.7988,-0.7988,-0.7988,-0.7988,-0.7988,-0.7988,-0.8002,-0.8032,-0.8187,-0.8323,-0.8323,-0.8235,-0.8073,-0.7724,-0.7712,-0.7679,-0.7391,-0.7543,-0.7696,-0.7696,-0.7696,-0.7793,-0.7988,-0.7988,-0.7975,-0.7941,-0.7941,-0.7874,-0.7773,-0.7628,-0.7536,-0.7502,-0.7502,-0.7441,-0.7322,-0.7322,-0.7258,-0.7095,-0.7095,-0.7095,0.0,0.0,0.0,0.0,0.0,0.0,0.0,0.0,0.0,0.0,0.0,0.0,0.0,0.0,0.0,0.0,0.0,0.0,0.0,0.0,0.0,0.0,0.0,0.0,0.0,0.0,0.0,0.0,0.0,0.0,0.0,0.0,0.0,0.0,0.0,0.0,0.0,0.0,0.0,0.0,0.0,0.0,0.0,-0.0404,-0.0657,-0.0808,-0.0808,-0.0707,-0.0606,-0.0758,-0.0707,-0.0606,-0.0758,-0.0808,-0.0808,-0.0808,-0.0808,-0.0808,-0.096,-0.1111,-0.1212,-0.1364,-0.1415,-0.1515,-0.2069,-0.2219,-0.242,-0.337,-0.4225,-0.4929,-0.5175,-0.5774,-0.6379,-0.6778,-0.7434,-0.7988,-0.7988,-0.7988,-0.7942,-0.7842,-0.7905,-0.7911,-0.7803,-0.7821,-0.7733,-0.7506,-0.7537,-0.7469,-0.7244,-0.7341,-0.7391,-0.7391,-0.7391,-0.7494,-0.7793,-0.7793,-0.7842,-0.7988,-0.7988,-0.7955,-0.7923,-0.7848,-0.7743,-0.7604,-0.76,-0.756,-0.7482,-0.7482,-0.7438,-0.7356,-0.7285,-0.7251,0.0,0.0,0.0,0.0,0.0,0.0,0.0,0.0,0.0,0.0,0.0,0.0,0.0,0.0,0.0,0.0,0.0,0.0,0.0,0.0,0.0,0.0,0.0,0.0,0.0,0.0,0.0,0.0,0.0,0.0,0.0,0.0,0.0,0.0,0.0,0.0,0.0,0.0,0.0,0.0,0.0,0.0,0.0,-0.0253,-0.0455,-0.0657,-0.0657,-0.0556,-0.0354,-0.0556,-0.0556,-0.0354,-0.0556,-0.0657,-0.0657,-0.0657,-0.0657,-0.0657,-0.0707,-0.0859,-0.1061,-0.1111,-0.1111,-0.1111,-0.1111,-0.1111,-0.1262,-0.1915,-0.2568,-0.3171,-0.3616,-0.4017,-0.452,-0.517,-0.6476,-0.7637,-0.7839,-0.7839,-0.7789,-0.7593,-0.7543,-0.7444,-0.7191,-0.7285,-0.7358,-0.7307,-0.7358,-0.7316,-0.7101,-0.7089,-0.7138,-0.7138,-0.7138,-0.7241,-0.7494,-0.7574,-0.7657,-0.7902,-0.7951,-0.7951,-0.7951,-0.7975,-0.7877,-0.7682,-0.7675,-0.7662,-0.7638,-0.7638,-0.7624,-0.7597,-0.7468,-0.7456,0.0,0.0,0.0,0.0,0.0,0.0,0.0,0.0,0.0,0.0,0.0,0.0,0.0,0.0,0.0,0.0,0.0,0.0,0.0,0.0,0.0,0.0,0.0,0.0,0.0,0.0,0.0,0.0,0.0,0.0,0.0,0.0,0.0,0.0,0.0,0.0,0.0,0.0,0.0,0.0,0.0,0.0,0.0,-0.0051,-0.0051,-0.0101,-0.0101,-0.0101,-0.0051,-0.0101,-0.0101,-0.0051,-0.0101,-0.0101,-0.0101,-0.0101,-0.0101,-0.0152,-0.0354,-0.0455,-0.0556,-0.0758,-0.0859,-0.0859,-0.0859,-0.0859,-0.0859,-0.0959,-0.1714,-0.2517,-0.2616,-0.3317,-0.4066,-0.4166,-0.507,-0.6176,-0.7086,-0.7288,-0.7288,-0.7238,-0.7238,-0.7188,-0.6892,-0.6856,-0.6818,-0.6561,-0.6765,-0.6812,-0.6539,-0.6689,-0.6845,-0.6845,-0.6845,-0.6942,-0.7238,-0.738,-0.7459,-0.7456,-0.7699,-0.7841,-0.7841,-0.7921,-0.7971,-0.7931,-0.7931,-0.7867,-0.7784,-0.7784,-0.7719,-0.76,-0.758,-0.757,0.0,0.0,0.0,0.0,0.0,0.0,0.0,0.0,0.0,0.0,0.0,0.0,0.0,0.0,0.0,0.0,0.0,0.0,0.0,0.0,0.0,0.0,0.0,0.0,0.0,0.0,0.0,0.0,0.0,0.0,0.0,0.0,0.0,0.0,0.0,0.0,0.0,0.0,0.0,0.0,0.0,0.0,0.0,0.0,0.0,0.0,0.0,0.0,0.0,0.0,0.0,0.0,0.0,0.0,0.0,0.0,0.0,0.0,-0.0152,-0.0253,-0.0404,-0.0556,-0.0556,-0.0556,-0.0556,-0.0556,-0.0556,-0.0404,-0.0908,-0.1412,-0.1109,-0.1511,-0.2114,-0.2566,-0.3019,-0.3822,-0.5482,-0.6587,-0.7138,-0.6992,-0.6839,-0.6739,-0.6589,-0.6589,-0.6539,-0.6437,-0.6487,-0.6539,-0.6437,-0.6487,-0.6589,-0.6589,-0.6589,-0.6689,-0.6942,-0.7038,-0.7205,-0.75,-0.7599,-0.7743,-0.7891,-0.7955,-0.7988,-0.7988,-0.7988,-0.7958,-0.7891,-0.7891,-0.786,-0.7845,-0.7756,-0.7719,0.0,0.0,0.0,0.0,0.0,0.0,0.0,0.0,0.0,0.0,0.0,0.0,0.0,0.0,0.0,0.0,0.0,0.0,0.0,0.0,0.0,0.0,0.0,0.0,0.0,0.0,0.0,0.0,0.0,0.0,0.0,0.0,0.0,0.0,0.0,0.0,0.0,0.0,0.0,0.0,0.0,0.0,0.0,0.0,0.0,0.0,0.0,0.0,0.0,0.0,0.0,0.0,0.0,0.0,0.0,0.0,0.0,0.0,0.0,-0.0152,-0.0303,-0.0303,-0.0303,-0.0303,-0.0303,-0.0303,-0.0253,-0.0051,-0.0303,-0.0505,-0.0101,-0.0152,-0.0454,-0.1059,-0.1412,-0.2167,-0.4331,-0.5937,-0.6939,-0.6742,-0.6539,-0.6387,-0.6387,-0.6387,-0.6387,-0.6387,-0.6387,-0.6387,-0.6387,-0.6387,-0.6387,-0.6387,-0.6387,-0.6487,-0.6692,-0.6714,-0.6945,-0.7344,-0.7394,-0.7592,-0.7836,-0.7836,-0.7902,-0.7988,-0.7902,-0.7902,-0.7988,-0.7988,-0.7988,-0.7985,-0.7874,-0.7868,0.0,0.0,0.0,0.0,0.0,0.0,0.0,0.0,0.0,0.0,0.0,0.0,0.0,0.0,0.0,0.0,0.0,0.0,0.0,0.0,0.0,0.0,0.0,0.0,0.0,0.0,0.0,0.0,0.0,0.0,0.0,0.0,0.0,0.0,0.0,0.0,0.0,0.0,0.0,0.0,0.0,0.0,0.0,0.0,0.0,0.0,0.0,0.0,0.0,0.0,0.0,0.0,0.0,0.0,0.0,0.0,0.0,0.0,0.0,0.0,0.0,0.0,0.0,0.0,0.0,0.0,0.0,0.0,0.0,-0.0051,0.0,0.0,-0.0051,-0.0051,-0.0858,-0.2167,-0.4331,-0.5684,-0.6437,-0.6437,-0.6387,-0.6387,-0.6387,-0.6387,-0.6387,-0.6387,-0.6387,-0.6387,-0.6387,-0.6387,-0.6387,-0.6387,-0.6387,-0.6387,-0.6437,-0.653,-0.6611,-0.666,-0.6909,-0.7152,-0.744,-0.744,-0.7602,-0.7988,-0.7606,-0.7606,-0.7988,-0.7988,-0.7988,-0.7988,-0.7982,-0.7978,0.0,0.0,0.0,0.0,0.0,0.0,0.0,0.0,0.0,0.0,0.0,0.0,0.0,0.0,0.0,0.0,0.0,0.0,0.0,0.0,0.0,0.0,0.0,0.0,0.0,0.0,0.0,0.0,0.0,0.0,0.0,0.0,0.0,0.0,0.0,0.0,0.0,0.0,0.0,0.0,0.0,0.0,0.0,0.0,0.0,0.0,0.0,0.0,0.0,0.0,0.0,0.0,0.0,0.0,0.0,0.0,0.0,0.0,0.0,0.0,0.0,0.0,0.0,0.0,0.0,0.0,0.0,0.0,0.0,0.0,0.0,0.0,0.0,0.0,-0.0807,-0.1815,-0.2569,-0.3574,-0.4327,-0.4327,-0.488,-0.5386,-0.5386,-0.5937,-0.6387,-0.6387,-0.6387,-0.6387,-0.6387,-0.6387,-0.6387,-0.6387,-0.6387,-0.6387,-0.6387,-0.6446,-0.6523,-0.6723,-0.6825,-0.6973,-0.7267,-0.7267,-0.7338,-0.7487,-0.7341,-0.744,-0.7743,-0.7743,-0.7743,-0.7743,-0.7942,-0.7988,0.0,0.0,0.0,0.0,0.0,0.0,0.0,0.0,0.0,0.0,0.0,0.0,0.0,0.0,0.0,0.0,0.0,0.0,0.0,0.0,0.0,0.0,0.0,0.0,0.0,0.0,0.0,0.0,0.0,0.0,0.0,0.0,0.0,0.0,0.0,0.0,0.0,0.0,0.0,0.0,0.0,0.0,0.0,0.0,0.0,0.0,0.0,0.0,0.0,0.0,0.0,0.0,0.0,0.0,0.0,0.0,0.0,0.0,0.0,0.0,0.0,0.0,0.0,0.0,0.0,0.0,0.0,0.0,0.0,0.0,0.0,0.0,0.0,0.0,-0.0555,-0.1059,-0.1059,-0.2167,-0.3224,-0.3224,-0.3776,-0.428,-0.428,-0.483,-0.5432,-0.5784,-0.5887,-0.5984,-0.6337,-0.6387,-0.6387,-0.6387,-0.6387,-0.6387,-0.6387,-0.6387,-0.6487,-0.6642,-0.6642,-0.6792,-0.7042,-0.7047,-0.7072,-0.7168,-0.7027,-0.7076,-0.7276,-0.7422,-0.7444,-0.7494,-0.764,-0.7739,0.0,0.0,0.0,0.0,0.0,0.0,0.0,0.0,0.0,0.0,0.0,0.0,0.0,0.0,0.0,0.0,0.0,0.0,0.0,0.0,0.0,0.0,0.0,0.0,0.0,0.0,0.0,0.0,0.0,0.0,0.0,0.0,0.0,0.0,0.0,0.0,0.0,0.0,0.0,0.0,0.0,0.0,0.0,0.0,0.0,0.0,0.0,0.0,0.0,0.0,0.0,0.0,0.0,0.0,0.0,0.0,0.0,0.0,0.0,0.0,0.0,0.0,0.0,0.0,0.0,0.0,0.0,0.0,0.0,0.0,0.0,0.0,0.0,0.0,0.0,0.0,0.0,-0.1613,-0.3123,-0.3123,-0.3123,-0.3173,-0.3173,-0.3173,-0.3575,-0.4582,-0.4734,-0.5135,-0.6234,-0.6337,-0.6384,-0.6387,-0.6387,-0.6387,-0.6387,-0.6387,-0.6387,-0.6387,-0.6387,-0.6539,-0.6792,-0.6675,-0.6751,-0.7088,-0.6623,-0.6477,-0.6706,-0.7023,-0.7185,-0.7188,-0.7188,-0.7188,0.0,0.0,0.0,0.0,0.0,0.0,0.0,0.0,0.0,0.0,0.0,0.0,0.0,0.0,0.0,0.0,0.0,0.0,0.0,0.0,0.0,0.0,0.0,0.0,0.0,0.0,0.0,0.0,0.0,0.0,0.0,0.0,0.0,0.0,0.0,0.0,0.0,0.0,0.0,0.0,0.0,0.0,0.0,0.0,0.0,0.0,0.0,0.0,0.0,0.0,0.0,0.0,0.0,0.0,0.0,0.0,0.0,0.0,0.0,0.0,0.0,0.0,0.0,0.0,0.0,0.0,0.0,0.0,0.0,0.0,0.0,0.0,0.0,0.0,0.0,0.0,0.0,-0.0454,-0.0908,-0.0908,-0.1513,-0.2066,-0.2066,-0.267,-0.3324,-0.3575,-0.3626,-0.4028,-0.5085,-0.5233,-0.5536,-0.6337,-0.6387,-0.6387,-0.6387,-0.6387,-0.6387,-0.6387,-0.6387,-0.6437,-0.6489,-0.6457,-0.6487,-0.6583,-0.642,-0.6371,-0.6487,-0.6729,-0.6851,-0.6892,-0.7089,-0.7188,0.0,0.0,0.0,0.0,0.0,0.0,0.0,0.0,0.0,0.0,0.0,0.0,0.0,0.0,0.0,0.0,0.0,0.0,0.0,0.0,0.0,0.0,0.0,0.0,0.0,0.0,0.0,0.0,0.0,0.0,0.0,0.0,0.0,0.0,0.0,0.0,0.0,0.0,0.0,0.0,0.0,0.0,0.0,0.0,0.0,0.0,0.0,0.0,0.0,0.0,0.0,0.0,0.0,0.0,0.0,0.0,0.0,0.0,0.0,0.0,0.0,0.0,0.0,0.0,0.0,0.0,0.0,0.0,0.0,0.0,0.0,0.0,0.0,0.0,0.0,0.0,0.0,0.0,0.0,0.0,-0.0505,-0.0908,-0.0908,-0.1462,-0.2016,-0.2469,-0.2519,-0.2922,-0.3979,-0.413,-0.4531,-0.5634,-0.5734,-0.5934,-0.6384,-0.6387,-0.6387,-0.6387,-0.6387,-0.6387,-0.6387,-0.6387,-0.6365,-0.6369,-0.6252,-0.62,-0.6214,-0.644,-0.6571,-0.6639,-0.6789,-0.6886,0.0105,0.0053,0.0,0.0173,0.0193,0.0,0.0184,0.0214,0.0242,0.0,0.0204,0.021,0.0216,0.0221,0.0262,0.0262,0.0191,0.0078,0.0,0.0,0.0,0.0,0.0,0.0,0.0,0.0,0.0,0.0,0.0,0.0,0.0,0.0,0.0,0.0,0.0,0.0,0.0,0.0,0.0,0.0,0.0,0.0,0.0,0.0,0.0,0.0,0.0,0.0,0.0,0.0,0.0,0.0,0.0,0.0,0.0,0.0,0.0,0.0,0.0,0.0,0.0,0.0,0.0,0.0,0.0,0.0,0.0,0.0,0.0,0.0,0.0,0.0,0.0,0.0,0.0,0.0,0.0,0.0,0.0,0.0,0.0,0.0,0.0,0.0,-0.0303,-0.1261,-0.1412,-0.1815,-0.2871,-0.3022,-0.3425,-0.4533,-0.4634,-0.5033,-0.6134,-0.6237,-0.6287,-0.6387,-0.6387,-0.6387,-0.6387,-0.6387,-0.6388,-0.629,-0.6168,-0.604,-0.5904,-0.6149,-0.632,-0.6368,-0.6381,-0.6387,0.0717,0.0459,0.0259,0.1333,0.1335,0.0,0.1389,0.1572,0.1637,0.0,0.1542,0.1605,0.1621,0.1712,0.1787,0.1787,0.1289,0.0675,0.0078,0.0,0.0,0.0,0.0,0.0,0.0,0.0,0.0,0.0,0.0,0.0,0.0,0.0,0.0,0.0,0.0,0.0,0.0,0.0,0.0,0.0,0.0,0.0,0.0,0.0,0.0,0.0,0.0,0.0,0.0,0.0,0.0,0.0,0.0,0.0,0.0,0.0,0.0,0.0,0.0,0.0,0.0,0.0,0.0,0.0,0.0,0.0,0.0,0.0,0.0,0.0,0.0,0.0,0.0,0.0,0.0,0.0,0.0,0.0,0.0,0.0,0.0,0.0,0.0,0.0,-0.0051,-0.0303,-0.0303,-0.0707,-0.1765,-0.1915,-0.2318,-0.3374,-0.3525,-0.3927,-0.5035,-0.5135,-0.5484,-0.6337,-0.6387,-0.6387,-0.6387,-0.6387,-0.6376,-0.6404,-0.629,-0.6124,-0.5904,-0.6149,-0.6328,-0.6304,-0.6393,-0.6387,0.1394,0.1322,0.1262,0.2104,0.2024,0.0,0.0,0.2206,0.2136,0.2156,0.2068,0.2041,0.2203,0.2175,0.2141,0.2338,0.1633,0.1045,0.0813,0.0345,0.0,0.0,0.0,0.0,0.0,0.0,0.0,0.0,0.0,0.0,0.0,0.0,0.0,0.0,0.0,0.0,0.0,0.0,0.0,0.0,0.0,0.0,0.0,0.0,0.0,0.0,0.0,0.0,0.0,0.0,0.0,0.0,0.0,0.0,0.0,0.0,0.0,0.0,0.0,0.0,0.0,0.0,0.0,0.0,0.0,0.0,0.0,0.0,0.0,0.0,0.0,0.0,0.0,0.0,0.0,0.0,0.0,0.0,0.0,0.0,0.0,0.0,0.0,0.0,0.0,0.0,0.0,-0.0202,-0.0757,-0.0807,-0.121,-0.2267,-0.2418,-0.2821,-0.3929,-0.3979,-0.4228,-0.4778,-0.5284,-0.5586,-0.5586,-0.6137,-0.6333,-0.6263,-0.6206,-0.6059,-0.5817,-0.5999,-0.6149,-0.632,-0.6325,-0.6382,0.2257,0.2361,0.2373,0.2859,0.2772,0.2637,0.0,0.0,0.0,0.2769,0.2605,0.0,0.0,0.0,0.0,0.2834,0.0,0.0,0.0,0.1056,0.0,0.0115,0.0039,0.0,0.0039,0.0039,0.0,0.0,0.0,0.0,0.0,0.0,0.0,0.0,0.0,0.0,0.0,0.0,0.0,0.0,0.0,0.0,0.0,0.0,0.0,0.0,0.0,0.0,0.0,0.0,0.0,0.0,0.0,0.0,0.0,0.0,0.0,0.0,0.0,0.0,0.0,0.0,0.0,0.0,0.0,0.0,0.0,0.0,0.0,0.0,0.0,0.0,0.0,0.0,0.0,0.0,0.0,0.0,0.0,0.0,0.0,0.0,0.0,0.0,0.0,0.0,0.0,0.0,0.0,0.0,-0.0353,-0.1211,-0.1311,-0.1714,-0.2821,-0.2871,-0.2972,-0.3173,-0.4029,-0.4582,-0.4784,-0.5834,-0.6336,-0.6124,-0.61,-0.598,-0.5721,-0.5836,-0.5983,-0.6248,-0.6295,-0.6317,0.3484,0.33,0.3144,0.4112,0.4182,0.3956,0.387,0.0,0.4086,0.3877,0.0,0.0,0.0,0.0,0.0,0.0,0.0,0.0,0.3117,0.2435,0.1587,0.0566,0.0181,0.0074,0.0265,0.011,0.0,0.0,0.0,0.0,0.0,0.0,0.0,0.0,0.0,0.0,0.0,0.0,0.0,0.0,0.0,0.0,0.0,0.0,0.0,0.0,0.0,0.0,0.0,0.0,0.0,0.0,0.0,0.0,0.0,0.0,0.0,0.0,0.0,0.0,0.0,0.0,0.0,0.0,0.0,0.0,0.0,0.0,0.0,0.0,0.0,0.0,0.0,0.0,0.0,0.0,0.0,0.0,0.0,0.0,0.0,0.0,0.0,0.0,0.0,0.0,0.0,0.0,0.0,0.0,-0.0051,-0.0151,-0.0202,-0.0606,-0.1714,-0.1765,-0.2167,-0.3123,-0.3324,-0.3827,-0.4784,-0.5834,-0.6377,-0.6298,-0.614,-0.6021,-0.5882,-0.5795,-0.5817,-0.595,-0.6168,-0.6325,0.4317,0.4294,0.419,0.485,0.4756,0.4495,0.4523,0.4484,0.4439,0.4403,0.0,0.0,0.0,0.0,0.0,0.0,0.3934,0.0,0.0,0.0,0.1943,0.1526,0.0,0.0,0.0289,0.0175,0.0071,0.0,0.0073,0.0074,0.0,0.0,0.0,0.0,0.0,0.0,0.0,0.0,0.0,0.0,0.0,0.0,0.0,0.0,0.0,0.0,0.0,0.0,0.0,0.0,0.0,0.0,0.0,0.0,0.0,0.0,0.0,0.0,0.0,0.0,0.0,0.0,0.0,0.0,0.0,0.0,0.0,0.0,0.0,0.0,0.0,0.0,0.0,0.0,0.0,0.0,0.0,0.0,0.0,0.0,0.0,0.0,0.0,0.0,0.0,0.0,0.0,0.0,0.0,0.0,0.0,0.0,0.0,-0.0202,-0.0656,-0.0656,-0.0858,-0.1311,-0.1915,-0.3022,-0.4734,-0.5236,-0.5738,-0.6271,-0.6268,-0.6097,-0.5904,-0.5855,-0.5822,-0.5809,-0.5977,-0.6094,0.4907,0.5092,0.5156,0.5215,0.5095,0.4916,0.483,0.4718,0.4682,0.4684,0.4619,0.0,0.0,0.0,0.0,0.0,0.0,0.3765,0.0,0.3187,0.0,0.0,0.0,0.0,0.0,0.0663,0.0569,0.0108,0.0312,0.0318,0.0,0.0,0.0,0.0,0.0,0.0,0.0,0.0,0.0,0.0,0.0,0.0,0.0,0.0,0.0,0.0,0.0,0.0,0.0,0.0,0.0,0.0,0.0,0.0,0.0,0.0,0.0,0.0,0.0,0.0,0.0,0.0,0.0,0.0,0.0,0.0,0.0,0.0,0.0,0.0,0.0,0.0,0.0,0.0,0.0,0.0,0.0,0.0,0.0,0.0,0.0,0.0,0.0,0.0,0.0,0.0,0.0,0.0,0.0,0.0,0.0,0.0,0.0,0.0,0.0,0.0,0.0,0.0,-0.1009,-0.2318,-0.3879,-0.4481,-0.5155,-0.5876,-0.6138,-0.6165,-0.5953,-0.592,-0.5844,-0.5691,-0.585,-0.595,0.53,0.5611,0.5824,0.5161,0.5301,0.5389,0.4675,0.4806,0.4999,0.4748,0.5061,0.5272,0.4962,0.0,0.0,0.0,0.0,0.0,0.0,0.0,0.0,0.0,0.0,0.0,0.0,0.1804,0.158,0.0278,0.0747,0.0758,0.0038,0.0,0.0,0.0,0.0,0.0,0.0,0.0,0.0,0.0,0.0,0.0,0.0,0.0,0.0,0.0,0.0,0.0,0.0,0.0,0.0,0.0,0.0,0.0,0.0,0.0,0.0,0.0,0.0,0.0,0.0,0.0,0.0,0.0,0.0,0.0,0.0,0.0,0.0,0.0,0.0,0.0,0.0,0.0,0.0,0.0,0.0,0.0,0.0,0.0,0.0,0.0,0.0,0.0,0.0,0.0,0.0,0.0,0.0,0.0,0.0,0.0,0.0,0.0,0.0,0.0,0.0,0.0,-0.1009,-0.1613,-0.1714,-0.3676,-0.4834,-0.483,-0.5782,-0.6254,-0.6081,-0.5961,-0.5844,-0.5691,-0.585,-0.5904,0.5519,0.5618,0.5643,0.5498,0.5373,0.518,0.485,0.4955,0.5015,0.4752,0.5081,0.5303,0.4975,0.0,0.0,0.0,0.0,0.0,0.0,0.0,0.0,0.0,0.0,0.0,0.0,0.0,0.1486,0.0856,0.0698,0.0457,0.0037,0.0,0.0,0.0,0.0,0.0,0.0,0.0,0.0,0.0,0.0,0.0,0.0,0.0,0.0,0.0,0.0,0.0,0.0,0.0,0.0,0.0,0.0,0.0,0.0,0.0,0.0,0.0,0.0,0.0,0.0,0.0,0.0,0.0,0.0,0.0,0.0,0.0,0.0,0.0,0.0,0.0,0.0,0.0,0.0,0.0,0.0,0.0,0.0,0.0,0.0,0.0,0.0,0.0,0.0,0.0,0.0,0.0,0.0,0.0,0.0,0.0,0.0,0.0,0.0,0.0,0.0,0.0,-0.0353,-0.0858,-0.1563,-0.2972,-0.4079,-0.4784,-0.5852,-0.6323,-0.6254,-0.6083,-0.5961,-0.5844,-0.5809,-0.5748,0.5552,0.5628,0.5614,0.555,0.5364,0.5195,0.4987,0.5143,0.5269,0.507,0.5313,0.5528,0.5413,0.5176,0.0,0.0,0.0,0.0,0.0,0.4094,0.0,0.0,0.0,0.0,0.0,0.0,0.205,0.1024,0.095,0.07,0.0106,0.0037,0.0,0.0,0.0,0.0,0.0,0.0,0.0,0.0,0.0,0.0,0.0,0.0,0.0,0.0,0.0,0.0,0.0,0.0,0.0,0.0,0.0,0.0,0.0,0.0,0.0,0.0,0.0,0.0,0.0,0.0,0.0,0.0,0.0,0.0,0.0,0.0,0.0,0.0,0.0,0.0,0.0,0.0,0.0,0.0,0.0,0.0,0.0,0.0,0.0,0.0,0.0,0.0,0.0,0.0,0.0,0.0,0.0,0.0,0.0,0.0,0.0,0.0,0.0,0.0,0.0,0.0,0.0,-0.0303,-0.1009,-0.2418,-0.3525,-0.423,-0.5684,-0.638,-0.6317,-0.6146,-0.6024,-0.5899,-0.5739,-0.5688]}]]